Wetterdaten: Mittwoch, 10.07.2019
Datum Zeit Temp. A. Feuchte A. Luftdruck Regen Wind Richtung Richtung Sonnenschein ET UV Solar Taupunkt Windchill Windböen
10.07.2019 00:00 11,3 °C 86 % 1016,4 hPa 0,0 mm 0,0 km/h (0 Bft) S 181 ° 0 min 0,000 mm 0,0 UV-I 0 W/m² 9,0 °C 11,3 °C 0,0 km/h (0 Bft)
10.07.2019 00:01 11,3 °C 86 % 1016,4 hPa 0,0 mm 0,0 km/h (0 Bft) S 181 ° 0 min 0,000 mm 0,0 UV-I 0 W/m² 9,0 °C 11,3 °C 0,0 km/h (0 Bft)
10.07.2019 00:02 11,3 °C 86 % 1016,4 hPa 0,0 mm 0,0 km/h (0 Bft) S 181 ° 0 min 0,000 mm 0,0 UV-I 0 W/m² 9,0 °C 11,3 °C 0,0 km/h (0 Bft)
10.07.2019 00:03 11,3 °C 86 % 1016,4 hPa 0,0 mm 0,0 km/h (0 Bft) S 181 ° 0 min 0,000 mm 0,0 UV-I 0 W/m² 9,0 °C 11,3 °C 0,0 km/h (0 Bft)
10.07.2019 00:04 11,4 °C 85 % 1016,4 hPa 0,0 mm 0,0 km/h (0 Bft) S 181 ° 0 min 0,000 mm 0,0 UV-I 0 W/m² 9,0 °C 11,4 °C 0,0 km/h (0 Bft)
10.07.2019 00:05 11,4 °C 85 % 1016,4 hPa 0,0 mm 0,0 km/h (0 Bft) S 181 ° 0 min 0,000 mm 0,0 UV-I 0 W/m² 9,0 °C 11,4 °C 0,0 km/h (0 Bft)
10.07.2019 00:06 11,5 °C 85 % 1016,4 hPa 0,0 mm 0,0 km/h (0 Bft) S 181 ° 0 min 0,000 mm 0,0 UV-I 0 W/m² 9,1 °C 11,5 °C 0,0 km/h (0 Bft)
10.07.2019 00:07 11,6 °C 86 % 1016,4 hPa 0,0 mm 0,0 km/h (0 Bft) S 181 ° 0 min 0,000 mm 0,0 UV-I 0 W/m² 9,3 °C 11,6 °C 0,0 km/h (0 Bft)
10.07.2019 00:08 11,5 °C 86 % 1016,4 hPa 0,0 mm 0,0 km/h (0 Bft) S 181 ° 0 min 0,000 mm 0,0 UV-I 0 W/m² 9,2 °C 11,5 °C 0,0 km/h (0 Bft)
10.07.2019 00:09 11,5 °C 86 % 1016,4 hPa 0,0 mm 0,0 km/h (0 Bft) S 181 ° 0 min 0,000 mm 0,0 UV-I 0 W/m² 9,2 °C 11,5 °C 0,0 km/h (0 Bft)
10.07.2019 00:10 11,5 °C 87 % 1016,4 hPa 0,0 mm 0,0 km/h (0 Bft) S 181 ° 0 min 0,000 mm 0,0 UV-I 0 W/m² 9,4 °C 11,5 °C 0,0 km/h (0 Bft)
10.07.2019 00:11 11,5 °C 87 % 1016,4 hPa 0,0 mm 0,0 km/h (0 Bft) S 181 ° 0 min 0,000 mm 0,0 UV-I 0 W/m² 9,4 °C 11,5 °C 0,0 km/h (0 Bft)
10.07.2019 00:12 11,5 °C 87 % 1016,4 hPa 0,0 mm 0,0 km/h (0 Bft) S 181 ° 0 min 0,000 mm 0,0 UV-I 0 W/m² 9,4 °C 11,5 °C 0,0 km/h (0 Bft)
10.07.2019 00:13 11,5 °C 87 % 1016,4 hPa 0,0 mm 0,0 km/h (0 Bft) S 181 ° 0 min 0,000 mm 0,0 UV-I 0 W/m² 9,4 °C 11,5 °C 0,0 km/h (0 Bft)
10.07.2019 00:14 11,5 °C 86 % 1016,4 hPa 0,0 mm 0,0 km/h (0 Bft) S 181 ° 0 min 0,000 mm 0,0 UV-I 0 W/m² 9,2 °C 11,5 °C 0,0 km/h (0 Bft)
10.07.2019 00:15 11,6 °C 86 % 1016,4 hPa 0,0 mm 0,0 km/h (0 Bft) S 181 ° 0 min 0,000 mm 0,0 UV-I 0 W/m² 9,3 °C 11,6 °C 0,0 km/h (0 Bft)
10.07.2019 00:16 11,6 °C 86 % 1016,4 hPa 0,0 mm 0,0 km/h (0 Bft) S 181 ° 0 min 0,000 mm 0,0 UV-I 0 W/m² 9,3 °C 11,6 °C 0,0 km/h (0 Bft)
10.07.2019 00:17 11,6 °C 86 % 1016,4 hPa 0,0 mm 0,0 km/h (0 Bft) S 181 ° 0 min 0,000 mm 0,0 UV-I 0 W/m² 9,3 °C 11,6 °C 0,0 km/h (0 Bft)
10.07.2019 00:18 11,6 °C 86 % 1016,5 hPa 0,0 mm 0,0 km/h (0 Bft) S 181 ° 0 min 0,000 mm 0,0 UV-I 0 W/m² 9,3 °C 11,6 °C 0,0 km/h (0 Bft)
10.07.2019 00:19 11,6 °C 86 % 1016,5 hPa 0,0 mm 0,0 km/h (0 Bft) S 181 ° 0 min 0,000 mm 0,0 UV-I 0 W/m² 9,3 °C 11,6 °C 0,0 km/h (0 Bft)
10.07.2019 00:20 11,6 °C 86 % 1016,5 hPa 0,0 mm 0,0 km/h (0 Bft) S 181 ° 0 min 0,000 mm 0,0 UV-I 0 W/m² 9,3 °C 11,6 °C 0,0 km/h (0 Bft)
10.07.2019 00:21 11,6 °C 86 % 1016,5 hPa 0,0 mm 0,0 km/h (0 Bft) S 181 ° 0 min 0,000 mm 0,0 UV-I 0 W/m² 9,3 °C 11,6 °C 0,0 km/h (0 Bft)
10.07.2019 00:22 11,5 °C 86 % 1016,5 hPa 0,0 mm 0,0 km/h (0 Bft) S 181 ° 0 min 0,000 mm 0,0 UV-I 0 W/m² 9,2 °C 11,5 °C 0,0 km/h (0 Bft)
10.07.2019 00:23 11,5 °C 86 % 1016,4 hPa 0,0 mm 0,5 km/h (0 Bft) S-SO 147 ° 0 min 0,000 mm 0,0 UV-I 0 W/m² 9,2 °C 11,5 °C 1,6 km/h (1 Bft)
10.07.2019 00:24 11,5 °C 85 % 1016,4 hPa 0,0 mm 0,0 km/h (0 Bft) S-SO 147 ° 0 min 0,000 mm 0,0 UV-I 0 W/m² 9,1 °C 11,5 °C 0,0 km/h (0 Bft)
10.07.2019 00:25 11,6 °C 84 % 1016,5 hPa 0,0 mm 0,0 km/h (0 Bft) S-SO 147 ° 0 min 0,000 mm 0,0 UV-I 0 W/m² 9,0 °C 11,6 °C 0,0 km/h (0 Bft)
10.07.2019 00:26 11,7 °C 83 % 1016,4 hPa 0,0 mm 0,7 km/h (0 Bft) S-SO 147 ° 0 min 0,000 mm 0,0 UV-I 0 W/m² 8,9 °C 11,7 °C 3,2 km/h (1 Bft)
10.07.2019 00:27 11,7 °C 82 % 1016,6 hPa 0,0 mm 0,5 km/h (0 Bft) S-SO 147 ° 0 min 0,000 mm 0,0 UV-I 0 W/m² 8,7 °C 11,7 °C 1,6 km/h (1 Bft)
10.07.2019 00:28 11,7 °C 82 % 1016,6 hPa 0,0 mm 0,9 km/h (0 Bft) S-SO 147 ° 0 min 0,000 mm 0,0 UV-I 0 W/m² 8,7 °C 11,7 °C 3,2 km/h (1 Bft)
10.07.2019 00:29 11,7 °C 81 % 1016,6 hPa 0,0 mm 1,0 km/h (0 Bft) O-SO 123 ° 0 min 0,000 mm 0,0 UV-I 0 W/m² 8,5 °C 11,7 °C 4,8 km/h (1 Bft)
10.07.2019 00:30 11,8 °C 80 % 1016,6 hPa 0,0 mm 0,0 km/h (0 Bft) O-SO 123 ° 0 min 0,000 mm 0,0 UV-I 0 W/m² 8,5 °C 11,8 °C 0,0 km/h (0 Bft)
10.07.2019 00:31 11,8 °C 80 % 1016,6 hPa 0,0 mm 0,0 km/h (0 Bft) O-SO 123 ° 0 min 0,000 mm 0,0 UV-I 0 W/m² 8,5 °C 11,8 °C 0,0 km/h (0 Bft)
10.07.2019 00:32 11,8 °C 80 % 1016,6 hPa 0,0 mm 0,0 km/h (0 Bft) O-SO 123 ° 0 min 0,000 mm 0,0 UV-I 0 W/m² 8,5 °C 11,8 °C 0,0 km/h (0 Bft)
10.07.2019 00:33 11,9 °C 80 % 1016,6 hPa 0,0 mm 2,0 km/h (1 Bft) NO 37 ° 0 min 0,000 mm 0,0 UV-I 0 W/m² 8,6 °C 11,9 °C 8,0 km/h (2 Bft)
10.07.2019 00:34 11,9 °C 80 % 1016,6 hPa 0,0 mm 4,6 km/h (1 Bft) N 5 ° 0 min 0,000 mm 0,0 UV-I 0 W/m² 8,6 °C 11,9 °C 6,4 km/h (2 Bft)
10.07.2019 00:35 11,9 °C 79 % 1016,6 hPa 0,0 mm 2,1 km/h (1 Bft) N 355 ° 0 min 0,000 mm 0,0 UV-I 0 W/m² 8,4 °C 11,9 °C 6,4 km/h (2 Bft)
10.07.2019 00:36 11,9 °C 78 % 1016,6 hPa 0,0 mm 2,4 km/h (1 Bft) N 360 ° 0 min 0,000 mm 0,0 UV-I 0 W/m² 8,2 °C 11,9 °C 6,4 km/h (2 Bft)
10.07.2019 00:37 12,0 °C 78 % 1016,6 hPa 0,0 mm 1,2 km/h (1 Bft) N 360 ° 0 min 0,000 mm 0,0 UV-I 0 W/m² 8,3 °C 12,0 °C 4,8 km/h (1 Bft)
10.07.2019 00:38 11,9 °C 79 % 1016,6 hPa 0,0 mm 0,1 km/h (0 Bft) N 360 ° 0 min 0,000 mm 0,0 UV-I 0 W/m² 8,4 °C 11,9 °C 1,6 km/h (1 Bft)
10.07.2019 00:39 11,9 °C 78 % 1016,6 hPa 0,0 mm 0,0 km/h (0 Bft) N 360 ° 0 min 0,000 mm 0,0 UV-I 0 W/m² 8,2 °C 11,9 °C 0,0 km/h (0 Bft)
10.07.2019 00:40 11,9 °C 78 % 1016,6 hPa 0,0 mm 0,0 km/h (0 Bft) N 360 ° 0 min 0,000 mm 0,0 UV-I 0 W/m² 8,2 °C 11,9 °C 0,0 km/h (0 Bft)
10.07.2019 00:41 11,9 °C 78 % 1016,6 hPa 0,0 mm 0,0 km/h (0 Bft) N 360 ° 0 min 0,000 mm 0,0 UV-I 0 W/m² 8,2 °C 11,9 °C 0,0 km/h (0 Bft)
10.07.2019 00:42 11,9 °C 78 % 1016,6 hPa 0,0 mm 0,0 km/h (0 Bft) N 360 ° 0 min 0,000 mm 0,0 UV-I 0 W/m² 8,2 °C 11,9 °C 0,0 km/h (0 Bft)
10.07.2019 00:43 11,8 °C 79 % 1016,6 hPa 0,0 mm 0,0 km/h (0 Bft) N 360 ° 0 min 0,000 mm 0,0 UV-I 0 W/m² 8,3 °C 11,8 °C 0,0 km/h (0 Bft)
10.07.2019 00:44 11,8 °C 79 % 1016,6 hPa 0,0 mm 0,0 km/h (0 Bft) N 360 ° 0 min 0,000 mm 0,0 UV-I 0 W/m² 8,3 °C 11,8 °C 0,0 km/h (0 Bft)
10.07.2019 00:45 11,8 °C 79 % 1016,6 hPa 0,0 mm 0,0 km/h (0 Bft) N 360 ° 0 min 0,000 mm 0,0 UV-I 0 W/m² 8,3 °C 11,8 °C 0,0 km/h (0 Bft)
10.07.2019 00:46 11,7 °C 79 % 1016,6 hPa 0,0 mm 0,0 km/h (0 Bft) N 360 ° 0 min 0,000 mm 0,0 UV-I 0 W/m² 8,2 °C 11,7 °C 0,0 km/h (0 Bft)
10.07.2019 00:47 11,6 °C 80 % 1016,6 hPa 0,0 mm 0,0 km/h (0 Bft) N 360 ° 0 min 0,000 mm 0,0 UV-I 0 W/m² 8,3 °C 11,6 °C 0,0 km/h (0 Bft)
10.07.2019 00:48 11,5 °C 81 % 1016,6 hPa 0,0 mm 0,0 km/h (0 Bft) N 360 ° 0 min 0,000 mm 0,0 UV-I 0 W/m² 8,4 °C 11,5 °C 0,0 km/h (0 Bft)
10.07.2019 00:49 11,4 °C 81 % 1016,7 hPa 0,0 mm 0,0 km/h (0 Bft) N 360 ° 0 min 0,000 mm 0,0 UV-I 0 W/m² 8,3 °C 11,4 °C 0,0 km/h (0 Bft)
10.07.2019 00:50 11,4 °C 80 % 1016,7 hPa 0,0 mm 0,0 km/h (0 Bft) N 360 ° 0 min 0,000 mm 0,0 UV-I 0 W/m² 8,1 °C 11,4 °C 0,0 km/h (0 Bft)
10.07.2019 00:51 11,4 °C 80 % 1016,7 hPa 0,0 mm 0,0 km/h (0 Bft) N 360 ° 0 min 0,000 mm 0,0 UV-I 0 W/m² 8,1 °C 11,4 °C 0,0 km/h (0 Bft)
10.07.2019 00:52 11,3 °C 80 % 1016,7 hPa 0,0 mm 0,0 km/h (0 Bft) N 360 ° 0 min 0,000 mm 0,0 UV-I 0 W/m² 8,0 °C 11,3 °C 0,0 km/h (0 Bft)
10.07.2019 00:53 11,3 °C 80 % 1016,7 hPa 0,0 mm 0,0 km/h (0 Bft) N 360 ° 0 min 0,000 mm 0,0 UV-I 0 W/m² 8,0 °C 11,3 °C 0,0 km/h (0 Bft)
10.07.2019 00:54 11,3 °C 79 % 1016,7 hPa 0,0 mm 0,0 km/h (0 Bft) N 360 ° 0 min 0,000 mm 0,0 UV-I 0 W/m² 7,8 °C 11,3 °C 0,0 km/h (0 Bft)
10.07.2019 00:55 11,4 °C 78 % 1016,8 hPa 0,0 mm 0,0 km/h (0 Bft) N 360 ° 0 min 0,000 mm 0,0 UV-I 0 W/m² 7,7 °C 11,4 °C 0,0 km/h (0 Bft)
10.07.2019 00:56 11,4 °C 78 % 1016,8 hPa 0,0 mm 0,0 km/h (0 Bft) N 360 ° 0 min 0,000 mm 0,0 UV-I 0 W/m² 7,7 °C 11,4 °C 0,0 km/h (0 Bft)
10.07.2019 00:57 11,4 °C 78 % 1016,8 hPa 0,0 mm 0,0 km/h (0 Bft) N 360 ° 0 min 0,000 mm 0,0 UV-I 0 W/m² 7,7 °C 11,4 °C 0,0 km/h (0 Bft)
10.07.2019 00:58 11,4 °C 78 % 1016,7 hPa 0,0 mm 0,0 km/h (0 Bft) N 360 ° 0 min 0,000 mm 0,0 UV-I 0 W/m² 7,7 °C 11,4 °C 0,0 km/h (0 Bft)
10.07.2019 00:59 11,4 °C 78 % 1016,8 hPa 0,0 mm 0,0 km/h (0 Bft) N 360 ° 0 min 0,000 mm 0,0 UV-I 0 W/m² 7,7 °C 11,4 °C 0,0 km/h (0 Bft)
10.07.2019 01:00 11,4 °C 78 % 1016,8 hPa 0,0 mm 0,0 km/h (0 Bft) N 360 ° 0 min 0,000 mm 0,0 UV-I 0 W/m² 7,7 °C 11,4 °C 0,0 km/h (0 Bft)
10.07.2019 01:01 11,4 °C 78 % 1016,7 hPa 0,0 mm 0,0 km/h (0 Bft) N 360 ° 0 min 0,025 mm 0,0 UV-I 0 W/m² 7,7 °C 11,4 °C 0,0 km/h (0 Bft)
10.07.2019 01:02 11,4 °C 78 % 1016,7 hPa 0,0 mm 0,0 km/h (0 Bft) N 360 ° 0 min 0,000 mm 0,0 UV-I 0 W/m² 7,7 °C 11,4 °C 0,0 km/h (0 Bft)
10.07.2019 01:03 11,3 °C 78 % 1016,7 hPa 0,0 mm 0,0 km/h (0 Bft) N 360 ° 0 min 0,000 mm 0,0 UV-I 0 W/m² 7,6 °C 11,3 °C 0,0 km/h (0 Bft)
10.07.2019 01:04 11,3 °C 79 % 1016,7 hPa 0,0 mm 0,0 km/h (0 Bft) N 360 ° 0 min 0,000 mm 0,0 UV-I 0 W/m² 7,8 °C 11,3 °C 0,0 km/h (0 Bft)
10.07.2019 01:05 11,2 °C 79 % 1016,8 hPa 0,0 mm 0,0 km/h (0 Bft) N 360 ° 0 min 0,000 mm 0,0 UV-I 0 W/m² 7,7 °C 11,2 °C 0,0 km/h (0 Bft)
10.07.2019 01:06 11,2 °C 79 % 1016,7 hPa 0,0 mm 0,0 km/h (0 Bft) N 360 ° 0 min 0,000 mm 0,0 UV-I 0 W/m² 7,7 °C 11,2 °C 0,0 km/h (0 Bft)
10.07.2019 01:07 11,1 °C 79 % 1016,7 hPa 0,0 mm 0,0 km/h (0 Bft) N 360 ° 0 min 0,000 mm 0,0 UV-I 0 W/m² 7,6 °C 11,1 °C 0,0 km/h (0 Bft)
10.07.2019 01:08 11,2 °C 79 % 1016,7 hPa 0,0 mm 0,0 km/h (0 Bft) N 360 ° 0 min 0,000 mm 0,0 UV-I 0 W/m² 7,7 °C 11,2 °C 0,0 km/h (0 Bft)
10.07.2019 01:09 11,2 °C 78 % 1016,7 hPa 0,0 mm 0,0 km/h (0 Bft) N 360 ° 0 min 0,000 mm 0,0 UV-I 0 W/m² 7,5 °C 11,2 °C 0,0 km/h (0 Bft)
10.07.2019 01:10 11,2 °C 78 % 1016,7 hPa 0,0 mm 0,0 km/h (0 Bft) N 360 ° 0 min 0,000 mm 0,0 UV-I 0 W/m² 7,5 °C 11,2 °C 0,0 km/h (0 Bft)
10.07.2019 01:11 11,2 °C 79 % 1016,7 hPa 0,0 mm 0,0 km/h (0 Bft) N 360 ° 0 min 0,000 mm 0,0 UV-I 0 W/m² 7,7 °C 11,2 °C 0,0 km/h (0 Bft)
10.07.2019 01:12 11,3 °C 78 % 1016,7 hPa 0,0 mm 0,0 km/h (0 Bft) N 360 ° 0 min 0,000 mm 0,0 UV-I 0 W/m² 7,6 °C 11,3 °C 0,0 km/h (0 Bft)
10.07.2019 01:13 11,2 °C 79 % 1016,7 hPa 0,0 mm 0,0 km/h (0 Bft) N 360 ° 0 min 0,000 mm 0,0 UV-I 0 W/m² 7,7 °C 11,2 °C 0,0 km/h (0 Bft)
10.07.2019 01:14 11,2 °C 80 % 1016,7 hPa 0,0 mm 0,0 km/h (0 Bft) N 360 ° 0 min 0,000 mm 0,0 UV-I 0 W/m² 7,9 °C 11,2 °C 0,0 km/h (0 Bft)
10.07.2019 01:15 11,2 °C 80 % 1016,7 hPa 0,0 mm 0,0 km/h (0 Bft) N 360 ° 0 min 0,000 mm 0,0 UV-I 0 W/m² 7,9 °C 11,2 °C 0,0 km/h (0 Bft)
10.07.2019 01:16 11,1 °C 79 % 1016,7 hPa 0,0 mm 0,0 km/h (0 Bft) N 360 ° 0 min 0,000 mm 0,0 UV-I 0 W/m² 7,6 °C 11,1 °C 0,0 km/h (0 Bft)
10.07.2019 01:17 11,1 °C 80 % 1016,7 hPa 0,0 mm 0,0 km/h (0 Bft) N 360 ° 0 min 0,000 mm 0,0 UV-I 0 W/m² 7,8 °C 11,1 °C 0,0 km/h (0 Bft)
10.07.2019 01:18 11,1 °C 80 % 1016,7 hPa 0,0 mm 0,0 km/h (0 Bft) N 360 ° 0 min 0,000 mm 0,0 UV-I 0 W/m² 7,8 °C 11,1 °C 0,0 km/h (0 Bft)
10.07.2019 01:19 11,1 °C 81 % 1016,7 hPa 0,0 mm 0,0 km/h (0 Bft) N 360 ° 0 min 0,000 mm 0,0 UV-I 0 W/m² 8,0 °C 11,1 °C 0,0 km/h (0 Bft)
10.07.2019 01:20 11,1 °C 80 % 1016,7 hPa 0,0 mm 0,0 km/h (0 Bft) N 360 ° 0 min 0,000 mm 0,0 UV-I 0 W/m² 7,8 °C 11,1 °C 0,0 km/h (0 Bft)
10.07.2019 01:21 11,1 °C 81 % 1016,7 hPa 0,0 mm 0,0 km/h (0 Bft) N 360 ° 0 min 0,000 mm 0,0 UV-I 0 W/m² 8,0 °C 11,1 °C 0,0 km/h (0 Bft)
10.07.2019 01:22 11,1 °C 81 % 1016,7 hPa 0,0 mm 0,0 km/h (0 Bft) N 360 ° 0 min 0,000 mm 0,0 UV-I 0 W/m² 8,0 °C 11,1 °C 0,0 km/h (0 Bft)
10.07.2019 01:23 11,1 °C 81 % 1016,8 hPa 0,0 mm 0,0 km/h (0 Bft) N 360 ° 0 min 0,000 mm 0,0 UV-I 0 W/m² 8,0 °C 11,1 °C 0,0 km/h (0 Bft)
10.07.2019 01:24 11,1 °C 80 % 1016,7 hPa 0,0 mm 0,0 km/h (0 Bft) N 360 ° 0 min 0,000 mm 0,0 UV-I 0 W/m² 7,8 °C 11,1 °C 0,0 km/h (0 Bft)
10.07.2019 01:25 11,1 °C 79 % 1016,7 hPa 0,0 mm 0,0 km/h (0 Bft) N 360 ° 0 min 0,000 mm 0,0 UV-I 0 W/m² 7,6 °C 11,1 °C 0,0 km/h (0 Bft)
10.07.2019 01:26 11,1 °C 81 % 1016,7 hPa 0,0 mm 0,0 km/h (0 Bft) N 360 ° 0 min 0,000 mm 0,0 UV-I 0 W/m² 8,0 °C 11,1 °C 0,0 km/h (0 Bft)
10.07.2019 01:27 11,1 °C 81 % 1016,7 hPa 0,0 mm 0,0 km/h (0 Bft) N 360 ° 0 min 0,000 mm 0,0 UV-I 0 W/m² 8,0 °C 11,1 °C 0,0 km/h (0 Bft)
10.07.2019 01:28 11,1 °C 80 % 1016,6 hPa 0,0 mm 0,0 km/h (0 Bft) N 360 ° 0 min 0,000 mm 0,0 UV-I 0 W/m² 7,8 °C 11,1 °C 0,0 km/h (0 Bft)
10.07.2019 01:29 11,1 °C 80 % 1016,6 hPa 0,0 mm 0,0 km/h (0 Bft) N 360 ° 0 min 0,000 mm 0,0 UV-I 0 W/m² 7,8 °C 11,1 °C 0,0 km/h (0 Bft)
10.07.2019 01:30 11,1 °C 79 % 1016,6 hPa 0,0 mm 0,0 km/h (0 Bft) N 360 ° 0 min 0,000 mm 0,0 UV-I 0 W/m² 7,6 °C 11,1 °C 0,0 km/h (0 Bft)
10.07.2019 01:31 11,1 °C 79 % 1016,6 hPa 0,0 mm 0,0 km/h (0 Bft) N 360 ° 0 min 0,000 mm 0,0 UV-I 0 W/m² 7,6 °C 11,1 °C 0,0 km/h (0 Bft)
10.07.2019 01:32 11,1 °C 77 % 1016,5 hPa 0,0 mm 0,0 km/h (0 Bft) NO 34 ° 0 min 0,000 mm 0,0 UV-I 0 W/m² 7,2 °C 11,1 °C 0,0 km/h (0 Bft)
10.07.2019 01:33 11,2 °C 77 % 1016,5 hPa 0,0 mm 0,0 km/h (0 Bft) NO 34 ° 0 min 0,000 mm 0,0 UV-I 0 W/m² 7,3 °C 11,2 °C 0,0 km/h (0 Bft)
10.07.2019 01:34 11,2 °C 78 % 1016,5 hPa 0,0 mm 0,0 km/h (0 Bft) NO 34 ° 0 min 0,000 mm 0,0 UV-I 0 W/m² 7,5 °C 11,2 °C 0,0 km/h (0 Bft)
10.07.2019 01:35 11,2 °C 79 % 1016,5 hPa 0,0 mm 0,0 km/h (0 Bft) NO 34 ° 0 min 0,000 mm 0,0 UV-I 0 W/m² 7,7 °C 11,2 °C 0,0 km/h (0 Bft)
10.07.2019 01:36 11,2 °C 78 % 1016,5 hPa 0,0 mm 0,0 km/h (0 Bft) NO 34 ° 0 min 0,000 mm 0,0 UV-I 0 W/m² 7,5 °C 11,2 °C 0,0 km/h (0 Bft)
10.07.2019 01:37 11,1 °C 79 % 1016,5 hPa 0,0 mm 0,0 km/h (0 Bft) NO 34 ° 0 min 0,000 mm 0,0 UV-I 0 W/m² 7,6 °C 11,1 °C 0,0 km/h (0 Bft)
10.07.2019 01:38 11,1 °C 78 % 1016,6 hPa 0,0 mm 0,0 km/h (0 Bft) NO 34 ° 0 min 0,000 mm 0,0 UV-I 0 W/m² 7,4 °C 11,1 °C 0,0 km/h (0 Bft)
10.07.2019 01:39 11,1 °C 78 % 1016,6 hPa 0,0 mm 0,0 km/h (0 Bft) NO 34 ° 0 min 0,000 mm 0,0 UV-I 0 W/m² 7,4 °C 11,1 °C 0,0 km/h (0 Bft)
10.07.2019 01:40 11,1 °C 78 % 1016,6 hPa 0,0 mm 0,0 km/h (0 Bft) NO 34 ° 0 min 0,000 mm 0,0 UV-I 0 W/m² 7,4 °C 11,1 °C 0,0 km/h (0 Bft)
10.07.2019 01:41 11,0 °C 79 % 1016,6 hPa 0,0 mm 0,0 km/h (0 Bft) NO 34 ° 0 min 0,000 mm 0,0 UV-I 0 W/m² 7,5 °C 11,0 °C 0,0 km/h (0 Bft)
10.07.2019 01:42 11,0 °C 79 % 1016,6 hPa 0,0 mm 0,2 km/h (0 Bft) NO 34 ° 0 min 0,000 mm 0,0 UV-I 0 W/m² 7,5 °C 11,0 °C 1,6 km/h (1 Bft)
10.07.2019 01:43 10,9 °C 79 % 1016,6 hPa 0,0 mm 1,0 km/h (0 Bft) NO 34 ° 0 min 0,000 mm 0,0 UV-I 0 W/m² 7,4 °C 10,9 °C 3,2 km/h (1 Bft)
10.07.2019 01:44 10,9 °C 79 % 1016,5 hPa 0,0 mm 0,3 km/h (0 Bft) NO 34 ° 0 min 0,000 mm 0,0 UV-I 0 W/m² 7,4 °C 10,9 °C 3,2 km/h (1 Bft)
10.07.2019 01:45 10,9 °C 78 % 1016,5 hPa 0,0 mm 0,5 km/h (0 Bft) NO 34 ° 0 min 0,000 mm 0,0 UV-I 0 W/m² 7,2 °C 10,9 °C 1,6 km/h (1 Bft)
10.07.2019 01:46 10,9 °C 78 % 1016,5 hPa 0,0 mm 0,0 km/h (0 Bft) NO 34 ° 0 min 0,000 mm 0,0 UV-I 0 W/m² 7,2 °C 10,9 °C 0,0 km/h (0 Bft)
10.07.2019 01:47 10,9 °C 79 % 1016,5 hPa 0,0 mm 0,0 km/h (0 Bft) NO 34 ° 0 min 0,000 mm 0,0 UV-I 0 W/m² 7,4 °C 10,9 °C 0,0 km/h (0 Bft)
10.07.2019 01:48 10,9 °C 79 % 1016,5 hPa 0,0 mm 0,0 km/h (0 Bft) NO 34 ° 0 min 0,000 mm 0,0 UV-I 0 W/m² 7,4 °C 10,9 °C 0,0 km/h (0 Bft)
10.07.2019 01:49 10,9 °C 80 % 1016,5 hPa 0,0 mm 0,8 km/h (0 Bft) NO 34 ° 0 min 0,000 mm 0,0 UV-I 0 W/m² 7,6 °C 10,9 °C 1,6 km/h (1 Bft)
10.07.2019 01:50 10,8 °C 81 % 1016,6 hPa 0,0 mm 0,0 km/h (0 Bft) NO 34 ° 0 min 0,000 mm 0,0 UV-I 0 W/m² 7,7 °C 10,8 °C 0,0 km/h (0 Bft)
10.07.2019 01:51 10,8 °C 81 % 1016,6 hPa 0,0 mm 0,0 km/h (0 Bft) NO 34 ° 0 min 0,000 mm 0,0 UV-I 0 W/m² 7,7 °C 10,8 °C 0,0 km/h (0 Bft)
10.07.2019 01:52 10,7 °C 81 % 1016,6 hPa 0,0 mm 0,0 km/h (0 Bft) NO 34 ° 0 min 0,000 mm 0,0 UV-I 0 W/m² 7,6 °C 10,7 °C 0,0 km/h (0 Bft)
10.07.2019 01:53 10,7 °C 81 % 1016,6 hPa 0,0 mm 0,0 km/h (0 Bft) NO 34 ° 0 min 0,000 mm 0,0 UV-I 0 W/m² 7,6 °C 10,7 °C 0,0 km/h (0 Bft)
10.07.2019 01:54 10,6 °C 81 % 1016,6 hPa 0,0 mm 0,0 km/h (0 Bft) NO 34 ° 0 min 0,000 mm 0,0 UV-I 0 W/m² 7,5 °C 10,6 °C 0,0 km/h (0 Bft)
10.07.2019 01:55 10,6 °C 82 % 1016,5 hPa 0,0 mm 0,0 km/h (0 Bft) NO 34 ° 0 min 0,000 mm 0,0 UV-I 0 W/m² 7,7 °C 10,6 °C 0,0 km/h (0 Bft)
10.07.2019 01:56 10,6 °C 81 % 1016,5 hPa 0,0 mm 0,0 km/h (0 Bft) NO 34 ° 0 min 0,000 mm 0,0 UV-I 0 W/m² 7,5 °C 10,6 °C 0,0 km/h (0 Bft)
10.07.2019 01:57 10,5 °C 81 % 1016,5 hPa 0,0 mm 0,0 km/h (0 Bft) NO 34 ° 0 min 0,000 mm 0,0 UV-I 0 W/m² 7,4 °C 10,5 °C 0,0 km/h (0 Bft)
10.07.2019 01:58 10,5 °C 82 % 1016,5 hPa 0,0 mm 0,0 km/h (0 Bft) NO 34 ° 0 min 0,000 mm 0,0 UV-I 0 W/m² 7,6 °C 10,5 °C 0,0 km/h (0 Bft)
10.07.2019 01:59 10,4 °C 82 % 1016,5 hPa 0,0 mm 1,0 km/h (0 Bft) NO 35 ° 0 min 0,000 mm 0,0 UV-I 0 W/m² 7,5 °C 10,4 °C 1,6 km/h (1 Bft)
10.07.2019 02:00 10,4 °C 82 % 1016,4 hPa 0,0 mm 1,5 km/h (1 Bft) NO 35 ° 0 min 0,026 mm 0,0 UV-I 0 W/m² 7,5 °C 10,4 °C 3,2 km/h (1 Bft)
10.07.2019 02:01 10,4 °C 81 % 1016,4 hPa 0,0 mm 0,1 km/h (0 Bft) NO 35 ° 0 min 0,000 mm 0,0 UV-I 0 W/m² 7,3 °C 10,4 °C 1,6 km/h (1 Bft)
10.07.2019 02:02 10,3 °C 82 % 1016,4 hPa 0,0 mm 1,1 km/h (1 Bft) NO 35 ° 0 min 0,000 mm 0,0 UV-I 0 W/m² 7,4 °C 10,3 °C 3,2 km/h (1 Bft)
10.07.2019 02:03 10,3 °C 81 % 1016,4 hPa 0,0 mm 0,2 km/h (0 Bft) NO 35 ° 0 min 0,000 mm 0,0 UV-I 0 W/m² 7,2 °C 10,3 °C 1,6 km/h (1 Bft)
10.07.2019 02:04 10,3 °C 81 % 1016,4 hPa 0,0 mm 0,0 km/h (0 Bft) NO 35 ° 0 min 0,000 mm 0,0 UV-I 0 W/m² 7,2 °C 10,3 °C 0,0 km/h (0 Bft)
10.07.2019 02:05 10,2 °C 81 % 1016,4 hPa 0,0 mm 0,0 km/h (0 Bft) NO 35 ° 0 min 0,000 mm 0,0 UV-I 0 W/m² 7,1 °C 10,2 °C 0,0 km/h (0 Bft)
10.07.2019 02:06 10,1 °C 82 % 1016,5 hPa 0,0 mm 0,0 km/h (0 Bft) NO 35 ° 0 min 0,000 mm 0,0 UV-I 0 W/m² 7,2 °C 10,1 °C 0,0 km/h (0 Bft)
10.07.2019 02:07 10,1 °C 82 % 1016,5 hPa 0,0 mm 0,0 km/h (0 Bft) NO 35 ° 0 min 0,000 mm 0,0 UV-I 0 W/m² 7,2 °C 10,1 °C 0,0 km/h (0 Bft)
10.07.2019 02:08 10,1 °C 82 % 1016,5 hPa 0,0 mm 0,0 km/h (0 Bft) NO 35 ° 0 min 0,000 mm 0,0 UV-I 0 W/m² 7,2 °C 10,1 °C 0,0 km/h (0 Bft)
10.07.2019 02:09 10,0 °C 82 % 1016,5 hPa 0,0 mm 0,0 km/h (0 Bft) NO 35 ° 0 min 0,000 mm 0,0 UV-I 0 W/m² 7,1 °C 10,0 °C 0,0 km/h (0 Bft)
10.07.2019 02:10 9,9 °C 82 % 1016,4 hPa 0,0 mm 0,0 km/h (0 Bft) NO 35 ° 0 min 0,000 mm 0,0 UV-I 0 W/m² 7,0 °C 9,9 °C 0,0 km/h (0 Bft)
10.07.2019 02:11 9,8 °C 82 % 1016,5 hPa 0,0 mm 0,0 km/h (0 Bft) NO 35 ° 0 min 0,000 mm 0,0 UV-I 0 W/m² 6,9 °C 9,8 °C 0,0 km/h (0 Bft)
10.07.2019 02:12 9,8 °C 83 % 1016,4 hPa 0,0 mm 0,0 km/h (0 Bft) NO 35 ° 0 min 0,000 mm 0,0 UV-I 0 W/m² 7,1 °C 9,8 °C 0,0 km/h (0 Bft)
10.07.2019 02:13 9,7 °C 83 % 1016,4 hPa 0,0 mm 0,0 km/h (0 Bft) NO 35 ° 0 min 0,000 mm 0,0 UV-I 0 W/m² 7,0 °C 9,7 °C 0,0 km/h (0 Bft)
10.07.2019 02:14 9,6 °C 83 % 1016,5 hPa 0,0 mm 0,0 km/h (0 Bft) NO 35 ° 0 min 0,000 mm 0,0 UV-I 0 W/m² 6,9 °C 9,6 °C 0,0 km/h (0 Bft)
10.07.2019 02:15 9,6 °C 84 % 1016,5 hPa 0,0 mm 0,0 km/h (0 Bft) NO 35 ° 0 min 0,000 mm 0,0 UV-I 0 W/m² 7,0 °C 9,6 °C 0,0 km/h (0 Bft)
10.07.2019 02:16 9,4 °C 84 % 1016,5 hPa 0,0 mm 0,0 km/h (0 Bft) NO 35 ° 0 min 0,000 mm 0,0 UV-I 0 W/m² 6,8 °C 9,4 °C 0,0 km/h (0 Bft)
10.07.2019 02:17 9,4 °C 84 % 1016,5 hPa 0,0 mm 0,0 km/h (0 Bft) NO 35 ° 0 min 0,000 mm 0,0 UV-I 0 W/m² 6,8 °C 9,4 °C 0,0 km/h (0 Bft)
10.07.2019 02:18 9,4 °C 84 % 1016,5 hPa 0,0 mm 0,0 km/h (0 Bft) NO 35 ° 0 min 0,000 mm 0,0 UV-I 0 W/m² 6,8 °C 9,4 °C 0,0 km/h (0 Bft)
10.07.2019 02:19 9,3 °C 85 % 1016,5 hPa 0,0 mm 0,0 km/h (0 Bft) NO 35 ° 0 min 0,000 mm 0,0 UV-I 0 W/m² 6,9 °C 9,3 °C 0,0 km/h (0 Bft)
10.07.2019 02:20 9,3 °C 85 % 1016,5 hPa 0,0 mm 0,0 km/h (0 Bft) NO 35 ° 0 min 0,000 mm 0,0 UV-I 0 W/m² 6,9 °C 9,3 °C 0,0 km/h (0 Bft)
10.07.2019 02:21 9,3 °C 85 % 1016,5 hPa 0,0 mm 0,0 km/h (0 Bft) NO 35 ° 0 min 0,000 mm 0,0 UV-I 0 W/m² 6,9 °C 9,3 °C 0,0 km/h (0 Bft)
10.07.2019 02:22 9,3 °C 84 % 1016,5 hPa 0,0 mm 0,0 km/h (0 Bft) NO 35 ° 0 min 0,000 mm 0,0 UV-I 0 W/m² 6,7 °C 9,3 °C 0,0 km/h (0 Bft)
10.07.2019 02:23 9,2 °C 84 % 1016,5 hPa 0,0 mm 0,0 km/h (0 Bft) NO 35 ° 0 min 0,000 mm 0,0 UV-I 0 W/m² 6,6 °C 9,2 °C 0,0 km/h (0 Bft)
10.07.2019 02:24 9,1 °C 84 % 1016,6 hPa 0,0 mm 0,0 km/h (0 Bft) NO 35 ° 0 min 0,000 mm 0,0 UV-I 0 W/m² 6,5 °C 9,1 °C 0,0 km/h (0 Bft)
10.07.2019 02:25 9,1 °C 85 % 1016,6 hPa 0,0 mm 0,0 km/h (0 Bft) NO 35 ° 0 min 0,000 mm 0,0 UV-I 0 W/m² 6,7 °C 9,1 °C 0,0 km/h (0 Bft)
10.07.2019 02:26 9,0 °C 85 % 1016,5 hPa 0,0 mm 0,0 km/h (0 Bft) NO 35 ° 0 min 0,000 mm 0,0 UV-I 0 W/m² 6,6 °C 9,0 °C 0,0 km/h (0 Bft)
10.07.2019 02:27 9,0 °C 85 % 1016,6 hPa 0,0 mm 0,0 km/h (0 Bft) NO 35 ° 0 min 0,000 mm 0,0 UV-I 0 W/m² 6,6 °C 9,0 °C 0,0 km/h (0 Bft)
10.07.2019 02:28 9,1 °C 85 % 1016,6 hPa 0,0 mm 0,0 km/h (0 Bft) NO 35 ° 0 min 0,000 mm 0,0 UV-I 0 W/m² 6,7 °C 9,1 °C 0,0 km/h (0 Bft)
10.07.2019 02:29 9,0 °C 86 % 1016,6 hPa 0,0 mm 0,0 km/h (0 Bft) NO 35 ° 0 min 0,000 mm 0,0 UV-I 0 W/m² 6,8 °C 9,0 °C 0,0 km/h (0 Bft)
10.07.2019 02:30 9,0 °C 86 % 1016,6 hPa 0,0 mm 0,0 km/h (0 Bft) NO 35 ° 0 min 0,000 mm 0,0 UV-I 0 W/m² 6,8 °C 9,0 °C 0,0 km/h (0 Bft)
10.07.2019 02:31 8,9 °C 86 % 1016,6 hPa 0,0 mm 0,0 km/h (0 Bft) NO 35 ° 0 min 0,000 mm 0,0 UV-I 0 W/m² 6,7 °C 8,9 °C 0,0 km/h (0 Bft)
10.07.2019 02:32 8,9 °C 86 % 1016,6 hPa 0,0 mm 0,0 km/h (0 Bft) NO 35 ° 0 min 0,000 mm 0,0 UV-I 0 W/m² 6,7 °C 8,9 °C 0,0 km/h (0 Bft)
10.07.2019 02:33 8,9 °C 86 % 1016,6 hPa 0,0 mm 0,0 km/h (0 Bft) NO 35 ° 0 min 0,000 mm 0,0 UV-I 0 W/m² 6,7 °C 8,9 °C 0,0 km/h (0 Bft)
10.07.2019 02:34 8,9 °C 86 % 1016,6 hPa 0,0 mm 0,0 km/h (0 Bft) NO 35 ° 0 min 0,000 mm 0,0 UV-I 0 W/m² 6,7 °C 8,9 °C 0,0 km/h (0 Bft)
10.07.2019 02:35 8,9 °C 87 % 1016,6 hPa 0,0 mm 0,0 km/h (0 Bft) NO 35 ° 0 min 0,000 mm 0,0 UV-I 0 W/m² 6,9 °C 8,9 °C 0,0 km/h (0 Bft)
10.07.2019 02:36 8,9 °C 87 % 1016,6 hPa 0,0 mm 0,0 km/h (0 Bft) NO 35 ° 0 min 0,000 mm 0,0 UV-I 0 W/m² 6,9 °C 8,9 °C 0,0 km/h (0 Bft)
10.07.2019 02:37 8,9 °C 87 % 1016,6 hPa 0,0 mm 0,0 km/h (0 Bft) NO 35 ° 0 min 0,000 mm 0,0 UV-I 0 W/m² 6,9 °C 8,9 °C 0,0 km/h (0 Bft)
10.07.2019 02:38 8,9 °C 87 % 1016,6 hPa 0,0 mm 0,0 km/h (0 Bft) NO 35 ° 0 min 0,000 mm 0,0 UV-I 0 W/m² 6,9 °C 8,9 °C 0,0 km/h (0 Bft)
10.07.2019 02:39 8,9 °C 87 % 1016,6 hPa 0,0 mm 0,0 km/h (0 Bft) NO 35 ° 0 min 0,000 mm 0,0 UV-I 0 W/m² 6,9 °C 8,9 °C 0,0 km/h (0 Bft)
10.07.2019 02:40 8,9 °C 87 % 1016,5 hPa 0,0 mm 0,0 km/h (0 Bft) NO 35 ° 0 min 0,000 mm 0,0 UV-I 0 W/m² 6,9 °C 8,9 °C 0,0 km/h (0 Bft)
10.07.2019 02:41 8,9 °C 86 % 1016,5 hPa 0,0 mm 0,0 km/h (0 Bft) NO 35 ° 0 min 0,000 mm 0,0 UV-I 0 W/m² 6,7 °C 8,9 °C 0,0 km/h (0 Bft)
10.07.2019 02:42 8,8 °C 87 % 1016,6 hPa 0,0 mm 0,0 km/h (0 Bft) NO 35 ° 0 min 0,000 mm 0,0 UV-I 0 W/m² 6,8 °C 8,8 °C 0,0 km/h (0 Bft)
10.07.2019 02:43 8,8 °C 87 % 1016,6 hPa 0,0 mm 0,0 km/h (0 Bft) NO 35 ° 0 min 0,000 mm 0,0 UV-I 0 W/m² 6,8 °C 8,8 °C 0,0 km/h (0 Bft)
10.07.2019 02:44 8,8 °C 87 % 1016,5 hPa 0,0 mm 0,0 km/h (0 Bft) NO 35 ° 0 min 0,000 mm 0,0 UV-I 0 W/m² 6,8 °C 8,8 °C 0,0 km/h (0 Bft)
10.07.2019 02:45 8,7 °C 87 % 1016,5 hPa 0,0 mm 0,0 km/h (0 Bft) NO 35 ° 0 min 0,000 mm 0,0 UV-I 0 W/m² 6,7 °C 8,7 °C 0,0 km/h (0 Bft)
10.07.2019 02:46 8,7 °C 87 % 1016,5 hPa 0,0 mm 0,0 km/h (0 Bft) NO 35 ° 0 min 0,000 mm 0,0 UV-I 0 W/m² 6,7 °C 8,7 °C 0,0 km/h (0 Bft)
10.07.2019 02:47 8,6 °C 87 % 1016,5 hPa 0,0 mm 0,0 km/h (0 Bft) NO 35 ° 0 min 0,000 mm 0,0 UV-I 0 W/m² 6,6 °C 8,6 °C 0,0 km/h (0 Bft)
10.07.2019 02:48 8,6 °C 88 % 1016,5 hPa 0,0 mm 0,0 km/h (0 Bft) NO 35 ° 0 min 0,000 mm 0,0 UV-I 0 W/m² 6,7 °C 8,6 °C 0,0 km/h (0 Bft)
10.07.2019 02:49 8,6 °C 88 % 1016,5 hPa 0,0 mm 0,0 km/h (0 Bft) NO 35 ° 0 min 0,000 mm 0,0 UV-I 0 W/m² 6,7 °C 8,6 °C 0,0 km/h (0 Bft)
10.07.2019 02:50 8,5 °C 88 % 1016,6 hPa 0,0 mm 0,0 km/h (0 Bft) NO 35 ° 0 min 0,000 mm 0,0 UV-I 0 W/m² 6,6 °C 8,5 °C 0,0 km/h (0 Bft)
10.07.2019 02:51 8,4 °C 88 % 1016,6 hPa 0,0 mm 0,0 km/h (0 Bft) NO 35 ° 0 min 0,000 mm 0,0 UV-I 0 W/m² 6,5 °C 8,4 °C 0,0 km/h (0 Bft)
10.07.2019 02:52 8,4 °C 88 % 1016,5 hPa 0,0 mm 0,0 km/h (0 Bft) NO 35 ° 0 min 0,000 mm 0,0 UV-I 0 W/m² 6,5 °C 8,4 °C 0,0 km/h (0 Bft)
10.07.2019 02:53 8,4 °C 88 % 1016,5 hPa 0,0 mm 0,0 km/h (0 Bft) NO 35 ° 0 min 0,000 mm 0,0 UV-I 0 W/m² 6,5 °C 8,4 °C 0,0 km/h (0 Bft)
10.07.2019 02:54 8,4 °C 88 % 1016,5 hPa 0,0 mm 0,0 km/h (0 Bft) NO 35 ° 0 min 0,000 mm 0,0 UV-I 0 W/m² 6,5 °C 8,4 °C 0,0 km/h (0 Bft)
10.07.2019 02:55 8,4 °C 88 % 1016,6 hPa 0,0 mm 0,0 km/h (0 Bft) NO 35 ° 0 min 0,000 mm 0,0 UV-I 0 W/m² 6,5 °C 8,4 °C 0,0 km/h (0 Bft)
10.07.2019 02:56 8,3 °C 89 % 1016,6 hPa 0,0 mm 0,0 km/h (0 Bft) NO 35 ° 0 min 0,000 mm 0,0 UV-I 0 W/m² 6,6 °C 8,3 °C 0,0 km/h (0 Bft)
10.07.2019 02:57 8,3 °C 89 % 1016,6 hPa 0,0 mm 0,0 km/h (0 Bft) NO 35 ° 0 min 0,000 mm 0,0 UV-I 0 W/m² 6,6 °C 8,3 °C 0,0 km/h (0 Bft)
10.07.2019 02:58 8,4 °C 89 % 1016,6 hPa 0,0 mm 0,0 km/h (0 Bft) NO 35 ° 0 min 0,000 mm 0,0 UV-I 0 W/m² 6,7 °C 8,4 °C 0,0 km/h (0 Bft)
10.07.2019 02:59 8,4 °C 89 % 1016,6 hPa 0,0 mm 0,0 km/h (0 Bft) NO 35 ° 0 min 0,000 mm 0,0 UV-I 0 W/m² 6,7 °C 8,4 °C 0,0 km/h (0 Bft)
10.07.2019 03:00 8,3 °C 88 % 1016,6 hPa 0,0 mm 0,0 km/h (0 Bft) NO 35 ° 0 min 0,000 mm 0,0 UV-I 0 W/m² 6,4 °C 8,3 °C 0,0 km/h (0 Bft)
10.07.2019 03:01 8,3 °C 88 % 1016,6 hPa 0,0 mm 0,0 km/h (0 Bft) NO 35 ° 0 min 0,000 mm 0,0 UV-I 0 W/m² 6,4 °C 8,3 °C 0,0 km/h (0 Bft)
10.07.2019 03:02 8,3 °C 89 % 1016,6 hPa 0,0 mm 0,0 km/h (0 Bft) NO 35 ° 0 min 0,000 mm 0,0 UV-I 0 W/m² 6,6 °C 8,3 °C 0,0 km/h (0 Bft)
10.07.2019 03:03 8,2 °C 89 % 1016,6 hPa 0,0 mm 0,0 km/h (0 Bft) NO 35 ° 0 min 0,000 mm 0,0 UV-I 0 W/m² 6,5 °C 8,2 °C 0,0 km/h (0 Bft)
10.07.2019 03:04 8,2 °C 89 % 1016,5 hPa 0,0 mm 0,0 km/h (0 Bft) NO 35 ° 0 min 0,000 mm 0,0 UV-I 0 W/m² 6,5 °C 8,2 °C 0,0 km/h (0 Bft)
10.07.2019 03:05 8,2 °C 89 % 1016,5 hPa 0,0 mm 0,0 km/h (0 Bft) NO 35 ° 0 min 0,000 mm 0,0 UV-I 0 W/m² 6,5 °C 8,2 °C 0,0 km/h (0 Bft)
10.07.2019 03:06 8,2 °C 89 % 1016,5 hPa 0,0 mm 0,0 km/h (0 Bft) NO 35 ° 0 min 0,000 mm 0,0 UV-I 0 W/m² 6,5 °C 8,2 °C 0,0 km/h (0 Bft)
10.07.2019 03:07 8,2 °C 89 % 1016,5 hPa 0,0 mm 0,0 km/h (0 Bft) NO 35 ° 0 min 0,000 mm 0,0 UV-I 0 W/m² 6,5 °C 8,2 °C 0,0 km/h (0 Bft)
10.07.2019 03:08 8,2 °C 89 % 1016,5 hPa 0,0 mm 0,0 km/h (0 Bft) NO 35 ° 0 min 0,000 mm 0,0 UV-I 0 W/m² 6,5 °C 8,2 °C 0,0 km/h (0 Bft)
10.07.2019 03:09 8,3 °C 89 % 1016,5 hPa 0,0 mm 0,0 km/h (0 Bft) NO 35 ° 0 min 0,000 mm 0,0 UV-I 0 W/m² 6,6 °C 8,3 °C 0,0 km/h (0 Bft)
10.07.2019 03:10 8,3 °C 89 % 1016,5 hPa 0,0 mm 0,0 km/h (0 Bft) NO 35 ° 0 min 0,000 mm 0,0 UV-I 0 W/m² 6,6 °C 8,3 °C 0,0 km/h (0 Bft)
10.07.2019 03:11 8,4 °C 89 % 1016,5 hPa 0,0 mm 0,0 km/h (0 Bft) NO 35 ° 0 min 0,000 mm 0,0 UV-I 0 W/m² 6,7 °C 8,4 °C 0,0 km/h (0 Bft)
10.07.2019 03:12 8,4 °C 88 % 1016,5 hPa 0,0 mm 0,0 km/h (0 Bft) NO 35 ° 0 min 0,000 mm 0,0 UV-I 0 W/m² 6,5 °C 8,4 °C 0,0 km/h (0 Bft)
10.07.2019 03:13 8,5 °C 88 % 1016,5 hPa 0,0 mm 0,0 km/h (0 Bft) NO 35 ° 0 min 0,000 mm 0,0 UV-I 0 W/m² 6,6 °C 8,5 °C 0,0 km/h (0 Bft)
10.07.2019 03:14 8,6 °C 88 % 1016,5 hPa 0,0 mm 0,0 km/h (0 Bft) NO 35 ° 0 min 0,000 mm 0,0 UV-I 0 W/m² 6,7 °C 8,6 °C 0,0 km/h (0 Bft)
10.07.2019 03:15 8,6 °C 88 % 1016,5 hPa 0,0 mm 0,0 km/h (0 Bft) NO 35 ° 0 min 0,000 mm 0,0 UV-I 0 W/m² 6,7 °C 8,6 °C 0,0 km/h (0 Bft)
10.07.2019 03:16 8,6 °C 88 % 1016,5 hPa 0,0 mm 0,0 km/h (0 Bft) NO 35 ° 0 min 0,000 mm 0,0 UV-I 0 W/m² 6,7 °C 8,6 °C 0,0 km/h (0 Bft)
10.07.2019 03:17 8,6 °C 88 % 1016,5 hPa 0,0 mm 0,0 km/h (0 Bft) NO 35 ° 0 min 0,000 mm 0,0 UV-I 0 W/m² 6,7 °C 8,6 °C 0,0 km/h (0 Bft)
10.07.2019 03:18 8,6 °C 88 % 1016,5 hPa 0,0 mm 0,0 km/h (0 Bft) NO 35 ° 0 min 0,000 mm 0,0 UV-I 0 W/m² 6,7 °C 8,6 °C 0,0 km/h (0 Bft)
10.07.2019 03:19 8,4 °C 88 % 1016,5 hPa 0,0 mm 0,0 km/h (0 Bft) NO 35 ° 0 min 0,000 mm 0,0 UV-I 0 W/m² 6,5 °C 8,4 °C 0,0 km/h (0 Bft)
10.07.2019 03:20 8,4 °C 88 % 1016,6 hPa 0,0 mm 0,0 km/h (0 Bft) NO 35 ° 0 min 0,000 mm 0,0 UV-I 0 W/m² 6,5 °C 8,4 °C 0,0 km/h (0 Bft)
10.07.2019 03:21 8,3 °C 88 % 1016,6 hPa 0,0 mm 0,0 km/h (0 Bft) NO 35 ° 0 min 0,000 mm 0,0 UV-I 0 W/m² 6,4 °C 8,3 °C 0,0 km/h (0 Bft)
10.07.2019 03:22 8,3 °C 89 % 1016,6 hPa 0,0 mm 0,0 km/h (0 Bft) NO 35 ° 0 min 0,000 mm 0,0 UV-I 0 W/m² 6,6 °C 8,3 °C 0,0 km/h (0 Bft)
10.07.2019 03:23 8,3 °C 89 % 1016,6 hPa 0,0 mm 0,0 km/h (0 Bft) NO 35 ° 0 min 0,000 mm 0,0 UV-I 0 W/m² 6,6 °C 8,3 °C 0,0 km/h (0 Bft)
10.07.2019 03:24 8,3 °C 89 % 1016,6 hPa 0,0 mm 0,0 km/h (0 Bft) NO 35 ° 0 min 0,000 mm 0,0 UV-I 0 W/m² 6,6 °C 8,3 °C 0,0 km/h (0 Bft)
10.07.2019 03:25 8,3 °C 89 % 1016,6 hPa 0,0 mm 0,0 km/h (0 Bft) NO 35 ° 0 min 0,000 mm 0,0 UV-I 0 W/m² 6,6 °C 8,3 °C 0,0 km/h (0 Bft)
10.07.2019 03:26 8,3 °C 89 % 1016,6 hPa 0,0 mm 0,0 km/h (0 Bft) NO 35 ° 0 min 0,000 mm 0,0 UV-I 0 W/m² 6,6 °C 8,3 °C 0,0 km/h (0 Bft)
10.07.2019 03:27 8,3 °C 90 % 1016,6 hPa 0,0 mm 0,0 km/h (0 Bft) NO 35 ° 0 min 0,000 mm 0,0 UV-I 0 W/m² 6,8 °C 8,3 °C 0,0 km/h (0 Bft)
10.07.2019 03:28 8,3 °C 90 % 1016,6 hPa 0,0 mm 0,0 km/h (0 Bft) NO 35 ° 0 min 0,000 mm 0,0 UV-I 0 W/m² 6,8 °C 8,3 °C 0,0 km/h (0 Bft)
10.07.2019 03:29 8,4 °C 90 % 1016,6 hPa 0,0 mm 0,0 km/h (0 Bft) NO 35 ° 0 min 0,000 mm 0,0 UV-I 0 W/m² 6,9 °C 8,4 °C 0,0 km/h (0 Bft)
10.07.2019 03:30 8,4 °C 90 % 1016,6 hPa 0,0 mm 0,0 km/h (0 Bft) NO 35 ° 0 min 0,000 mm 0,0 UV-I 0 W/m² 6,9 °C 8,4 °C 0,0 km/h (0 Bft)
10.07.2019 03:31 8,4 °C 90 % 1016,6 hPa 0,0 mm 0,0 km/h (0 Bft) NO 35 ° 0 min 0,000 mm 0,0 UV-I 0 W/m² 6,9 °C 8,4 °C 0,0 km/h (0 Bft)
10.07.2019 03:32 8,4 °C 90 % 1016,6 hPa 0,0 mm 0,0 km/h (0 Bft) NO 35 ° 0 min 0,000 mm 0,0 UV-I 0 W/m² 6,9 °C 8,4 °C 0,0 km/h (0 Bft)
10.07.2019 03:33 8,5 °C 90 % 1016,6 hPa 0,0 mm 0,0 km/h (0 Bft) NO 35 ° 0 min 0,000 mm 0,0 UV-I 0 W/m² 7,0 °C 8,5 °C 0,0 km/h (0 Bft)
10.07.2019 03:34 8,4 °C 90 % 1016,6 hPa 0,0 mm 0,0 km/h (0 Bft) NO 35 ° 0 min 0,000 mm 0,0 UV-I 0 W/m² 6,9 °C 8,4 °C 0,0 km/h (0 Bft)
10.07.2019 03:35 8,6 °C 90 % 1016,6 hPa 0,0 mm 0,0 km/h (0 Bft) NO 35 ° 0 min 0,000 mm 0,0 UV-I 0 W/m² 7,1 °C 8,6 °C 0,0 km/h (0 Bft)
10.07.2019 03:36 8,6 °C 90 % 1016,6 hPa 0,0 mm 0,0 km/h (0 Bft) NO 35 ° 0 min 0,000 mm 0,0 UV-I 0 W/m² 7,1 °C 8,6 °C 0,0 km/h (0 Bft)
10.07.2019 03:37 8,6 °C 90 % 1016,5 hPa 0,0 mm 0,0 km/h (0 Bft) NO 35 ° 0 min 0,000 mm 0,0 UV-I 0 W/m² 7,1 °C 8,6 °C 0,0 km/h (0 Bft)
10.07.2019 03:38 8,6 °C 90 % 1016,6 hPa 0,0 mm 0,0 km/h (0 Bft) NO 35 ° 0 min 0,000 mm 0,0 UV-I 0 W/m² 7,1 °C 8,6 °C 0,0 km/h (0 Bft)
10.07.2019 03:39 8,6 °C 90 % 1016,6 hPa 0,0 mm 0,0 km/h (0 Bft) NO 35 ° 0 min 0,000 mm 0,0 UV-I 0 W/m² 7,1 °C 8,6 °C 0,0 km/h (0 Bft)
10.07.2019 03:40 8,6 °C 90 % 1016,6 hPa 0,0 mm 0,0 km/h (0 Bft) NO 35 ° 0 min 0,000 mm 0,0 UV-I 0 W/m² 7,1 °C 8,6 °C 0,0 km/h (0 Bft)
10.07.2019 03:41 8,6 °C 90 % 1016,5 hPa 0,0 mm 0,0 km/h (0 Bft) NO 35 ° 0 min 0,000 mm 0,0 UV-I 0 W/m² 7,1 °C 8,6 °C 0,0 km/h (0 Bft)
10.07.2019 03:42 8,6 °C 90 % 1016,5 hPa 0,0 mm 0,0 km/h (0 Bft) NO 35 ° 0 min 0,000 mm 0,0 UV-I 0 W/m² 7,1 °C 8,6 °C 0,0 km/h (0 Bft)
10.07.2019 03:43 8,6 °C 90 % 1016,5 hPa 0,0 mm 0,0 km/h (0 Bft) NO 35 ° 0 min 0,000 mm 0,0 UV-I 0 W/m² 7,1 °C 8,6 °C 0,0 km/h (0 Bft)
10.07.2019 03:44 8,6 °C 90 % 1016,5 hPa 0,0 mm 0,0 km/h (0 Bft) NO 35 ° 0 min 0,000 mm 0,0 UV-I 0 W/m² 7,1 °C 8,6 °C 0,0 km/h (0 Bft)
10.07.2019 03:45 8,6 °C 90 % 1016,6 hPa 0,0 mm 0,0 km/h (0 Bft) NO 35 ° 0 min 0,000 mm 0,0 UV-I 0 W/m² 7,1 °C 8,6 °C 0,0 km/h (0 Bft)
10.07.2019 03:46 8,6 °C 90 % 1016,5 hPa 0,0 mm 0,0 km/h (0 Bft) NO 35 ° 0 min 0,000 mm 0,0 UV-I 0 W/m² 7,1 °C 8,6 °C 0,0 km/h (0 Bft)
10.07.2019 03:47 8,6 °C 90 % 1016,6 hPa 0,0 mm 0,0 km/h (0 Bft) NO 35 ° 0 min 0,000 mm 0,0 UV-I 0 W/m² 7,1 °C 8,6 °C 0,0 km/h (0 Bft)
10.07.2019 03:48 8,6 °C 90 % 1016,6 hPa 0,0 mm 0,0 km/h (0 Bft) NO 35 ° 0 min 0,000 mm 0,0 UV-I 0 W/m² 7,1 °C 8,6 °C 0,0 km/h (0 Bft)
10.07.2019 03:49 8,6 °C 90 % 1016,6 hPa 0,0 mm 0,0 km/h (0 Bft) NO 35 ° 0 min 0,000 mm 0,0 UV-I 0 W/m² 7,1 °C 8,6 °C 0,0 km/h (0 Bft)
10.07.2019 03:50 8,6 °C 90 % 1016,6 hPa 0,0 mm 0,0 km/h (0 Bft) NO 35 ° 0 min 0,000 mm 0,0 UV-I 0 W/m² 7,1 °C 8,6 °C 0,0 km/h (0 Bft)
10.07.2019 03:51 8,5 °C 90 % 1016,6 hPa 0,0 mm 0,0 km/h (0 Bft) NO 35 ° 0 min 0,000 mm 0,0 UV-I 0 W/m² 7,0 °C 8,5 °C 0,0 km/h (0 Bft)
10.07.2019 03:52 8,5 °C 90 % 1016,6 hPa 0,0 mm 0,0 km/h (0 Bft) NO 35 ° 0 min 0,000 mm 0,0 UV-I 0 W/m² 7,0 °C 8,5 °C 0,0 km/h (0 Bft)
10.07.2019 03:53 8,4 °C 90 % 1016,6 hPa 0,0 mm 0,0 km/h (0 Bft) NO 35 ° 0 min 0,000 mm 0,0 UV-I 0 W/m² 6,9 °C 8,4 °C 0,0 km/h (0 Bft)
10.07.2019 03:54 8,4 °C 90 % 1016,6 hPa 0,0 mm 0,0 km/h (0 Bft) NO 35 ° 0 min 0,000 mm 0,0 UV-I 0 W/m² 6,9 °C 8,4 °C 0,0 km/h (0 Bft)
10.07.2019 03:55 8,4 °C 90 % 1016,5 hPa 0,0 mm 0,0 km/h (0 Bft) NO 35 ° 0 min 0,000 mm 0,0 UV-I 0 W/m² 6,9 °C 8,4 °C 0,0 km/h (0 Bft)
10.07.2019 03:56 8,5 °C 90 % 1016,5 hPa 0,0 mm 0,0 km/h (0 Bft) NO 35 ° 0 min 0,000 mm 0,0 UV-I 0 W/m² 7,0 °C 8,5 °C 0,0 km/h (0 Bft)
10.07.2019 03:57 8,5 °C 91 % 1016,5 hPa 0,0 mm 0,0 km/h (0 Bft) NO 35 ° 0 min 0,000 mm 0,0 UV-I 0 W/m² 7,1 °C 8,5 °C 0,0 km/h (0 Bft)
10.07.2019 03:58 8,6 °C 90 % 1016,5 hPa 0,0 mm 1,5 km/h (1 Bft) NO 35 ° 0 min 0,000 mm 0,0 UV-I 0 W/m² 7,1 °C 8,6 °C 3,2 km/h (1 Bft)
10.07.2019 03:59 8,6 °C 90 % 1016,5 hPa 0,0 mm 3,2 km/h (1 Bft) NO 38 ° 0 min 0,000 mm 0,0 UV-I 0 W/m² 7,1 °C 8,6 °C 4,8 km/h (1 Bft)
10.07.2019 04:00 8,7 °C 90 % 1016,5 hPa 0,0 mm 3,5 km/h (1 Bft) S-SO 148 ° 0 min 0,000 mm 0,0 UV-I 0 W/m² 7,2 °C 8,7 °C 4,8 km/h (1 Bft)
10.07.2019 04:01 8,7 °C 90 % 1016,6 hPa 0,0 mm 3,4 km/h (1 Bft) S-SO 148 ° 0 min 0,000 mm 0,0 UV-I 0 W/m² 7,2 °C 8,7 °C 4,8 km/h (1 Bft)
10.07.2019 04:02 8,7 °C 89 % 1016,5 hPa 0,0 mm 3,4 km/h (1 Bft) S-SO 148 ° 0 min 0,000 mm 0,0 UV-I 0 W/m² 7,0 °C 8,7 °C 4,8 km/h (1 Bft)
10.07.2019 04:03 8,7 °C 89 % 1016,5 hPa 0,0 mm 0,7 km/h (0 Bft) S-SO 148 ° 0 min 0,000 mm 0,0 UV-I 0 W/m² 7,0 °C 8,7 °C 3,2 km/h (1 Bft)
10.07.2019 04:04 8,7 °C 89 % 1016,6 hPa 0,0 mm 0,0 km/h (0 Bft) S-SO 148 ° 0 min 0,000 mm 0,0 UV-I 0 W/m² 7,0 °C 8,7 °C 0,0 km/h (0 Bft)
10.07.2019 04:05 8,7 °C 89 % 1016,5 hPa 0,0 mm 0,0 km/h (0 Bft) S-SO 148 ° 0 min 0,000 mm 0,0 UV-I 0 W/m² 7,0 °C 8,7 °C 0,0 km/h (0 Bft)
10.07.2019 04:06 8,7 °C 89 % 1016,5 hPa 0,0 mm 0,0 km/h (0 Bft) S-SO 148 ° 0 min 0,000 mm 0,0 UV-I 0 W/m² 7,0 °C 8,7 °C 0,0 km/h (0 Bft)
10.07.2019 04:07 8,6 °C 89 % 1016,5 hPa 0,0 mm 0,3 km/h (0 Bft) S-SO 148 ° 0 min 0,000 mm 0,0 UV-I 0 W/m² 6,9 °C 8,6 °C 1,6 km/h (1 Bft)
10.07.2019 04:08 8,6 °C 88 % 1016,5 hPa 0,0 mm 2,9 km/h (1 Bft) S-SO 148 ° 0 min 0,000 mm 0,0 UV-I 0 W/m² 6,7 °C 8,6 °C 4,8 km/h (1 Bft)
10.07.2019 04:09 8,6 °C 88 % 1016,5 hPa 0,0 mm 3,0 km/h (1 Bft) S-SO 148 ° 0 min 0,000 mm 0,0 UV-I 0 W/m² 6,7 °C 8,6 °C 4,8 km/h (1 Bft)
10.07.2019 04:10 8,6 °C 88 % 1016,5 hPa 0,0 mm 3,4 km/h (1 Bft) S-SO 148 ° 0 min 0,000 mm 0,0 UV-I 0 W/m² 6,7 °C 8,6 °C 4,8 km/h (1 Bft)
10.07.2019 04:11 8,6 °C 88 % 1016,5 hPa 0,0 mm 3,1 km/h (1 Bft) S-SO 148 ° 0 min 0,000 mm 0,0 UV-I 0 W/m² 6,7 °C 8,6 °C 3,2 km/h (1 Bft)
10.07.2019 04:12 8,6 °C 88 % 1016,5 hPa 0,0 mm 1,9 km/h (1 Bft) S-SO 148 ° 0 min 0,000 mm 0,0 UV-I 0 W/m² 6,7 °C 8,6 °C 3,2 km/h (1 Bft)
10.07.2019 04:13 8,6 °C 88 % 1016,5 hPa 0,0 mm 0,0 km/h (0 Bft) S-SO 148 ° 0 min 0,000 mm 0,0 UV-I 0 W/m² 6,7 °C 8,6 °C 0,0 km/h (0 Bft)
10.07.2019 04:14 8,6 °C 88 % 1016,5 hPa 0,0 mm 0,0 km/h (0 Bft) S-SO 148 ° 0 min 0,000 mm 0,0 UV-I 0 W/m² 6,7 °C 8,6 °C 0,0 km/h (0 Bft)
10.07.2019 04:15 8,5 °C 88 % 1016,4 hPa 0,0 mm 0,0 km/h (0 Bft) S-SO 148 ° 0 min 0,000 mm 0,0 UV-I 0 W/m² 6,6 °C 8,5 °C 0,0 km/h (0 Bft)
10.07.2019 04:16 8,4 °C 87 % 1016,4 hPa 0,0 mm 0,0 km/h (0 Bft) S-SO 148 ° 0 min 0,000 mm 0,0 UV-I 0 W/m² 6,4 °C 8,4 °C 0,0 km/h (0 Bft)
10.07.2019 04:17 8,4 °C 87 % 1016,4 hPa 0,0 mm 0,0 km/h (0 Bft) S-SO 148 ° 0 min 0,000 mm 0,0 UV-I 0 W/m² 6,4 °C 8,4 °C 0,0 km/h (0 Bft)
10.07.2019 04:18 8,3 °C 87 % 1016,4 hPa 0,0 mm 0,0 km/h (0 Bft) S-SO 148 ° 0 min 0,000 mm 0,0 UV-I 0 W/m² 6,3 °C 8,3 °C 0,0 km/h (0 Bft)
10.07.2019 04:19 8,3 °C 87 % 1016,4 hPa 0,0 mm 0,0 km/h (0 Bft) S-SO 148 ° 0 min 0,000 mm 0,0 UV-I 0 W/m² 6,3 °C 8,3 °C 0,0 km/h (0 Bft)
10.07.2019 04:20 8,3 °C 88 % 1016,4 hPa 0,0 mm 0,0 km/h (0 Bft) S-SO 149 ° 0 min 0,000 mm 0,0 UV-I 0 W/m² 6,4 °C 8,3 °C 0,0 km/h (0 Bft)
10.07.2019 04:21 8,2 °C 88 % 1016,4 hPa 0,0 mm 0,0 km/h (0 Bft) S-SO 149 ° 0 min 0,000 mm 0,0 UV-I 0 W/m² 6,3 °C 8,2 °C 0,0 km/h (0 Bft)
10.07.2019 04:22 8,2 °C 88 % 1016,4 hPa 0,0 mm 0,0 km/h (0 Bft) S-SO 148 ° 0 min 0,000 mm 0,0 UV-I 0 W/m² 6,3 °C 8,2 °C 0,0 km/h (0 Bft)
10.07.2019 04:23 8,2 °C 88 % 1016,4 hPa 0,0 mm 0,0 km/h (0 Bft) S-SO 148 ° 0 min 0,000 mm 0,0 UV-I 0 W/m² 6,3 °C 8,2 °C 0,0 km/h (0 Bft)
10.07.2019 04:24 8,2 °C 88 % 1016,4 hPa 0,0 mm 0,0 km/h (0 Bft) S-SO 148 ° 0 min 0,000 mm 0,0 UV-I 0 W/m² 6,3 °C 8,2 °C 0,0 km/h (0 Bft)
10.07.2019 04:25 8,1 °C 88 % 1016,4 hPa 0,0 mm 0,0 km/h (0 Bft) S-SO 148 ° 0 min 0,000 mm 0,0 UV-I 0 W/m² 6,2 °C 8,1 °C 0,0 km/h (0 Bft)
10.07.2019 04:26 8,1 °C 88 % 1016,4 hPa 0,0 mm 0,0 km/h (0 Bft) S-SO 148 ° 0 min 0,000 mm 0,0 UV-I 0 W/m² 6,2 °C 8,1 °C 0,0 km/h (0 Bft)
10.07.2019 04:27 8,1 °C 88 % 1016,4 hPa 0,0 mm 0,0 km/h (0 Bft) S-SO 148 ° 0 min 0,000 mm 0,0 UV-I 0 W/m² 6,2 °C 8,1 °C 0,0 km/h (0 Bft)
10.07.2019 04:28 8,0 °C 88 % 1016,4 hPa 0,0 mm 0,0 km/h (0 Bft) S-SO 148 ° 0 min 0,000 mm 0,0 UV-I 0 W/m² 6,1 °C 8,0 °C 0,0 km/h (0 Bft)
10.07.2019 04:29 8,1 °C 88 % 1016,4 hPa 0,0 mm 0,0 km/h (0 Bft) S-SO 148 ° 0 min 0,000 mm 0,0 UV-I 0 W/m² 6,2 °C 8,1 °C 0,0 km/h (0 Bft)
10.07.2019 04:30 8,0 °C 88 % 1016,4 hPa 0,0 mm 0,0 km/h (0 Bft) S-SO 148 ° 0 min 0,000 mm 0,0 UV-I 0 W/m² 6,1 °C 8,0 °C 0,0 km/h (0 Bft)
10.07.2019 04:31 7,9 °C 88 % 1016,3 hPa 0,0 mm 0,0 km/h (0 Bft) S-SO 148 ° 0 min 0,000 mm 0,0 UV-I 0 W/m² 6,0 °C 7,9 °C 0,0 km/h (0 Bft)
10.07.2019 04:32 7,9 °C 88 % 1016,4 hPa 0,0 mm 0,0 km/h (0 Bft) S-SO 148 ° 0 min 0,000 mm 0,0 UV-I 0 W/m² 6,0 °C 7,9 °C 0,0 km/h (0 Bft)
10.07.2019 04:33 7,9 °C 89 % 1016,4 hPa 0,0 mm 0,0 km/h (0 Bft) S-SO 148 ° 0 min 0,000 mm 0,0 UV-I 0 W/m² 6,2 °C 7,9 °C 0,0 km/h (0 Bft)
10.07.2019 04:34 7,8 °C 89 % 1016,4 hPa 0,0 mm 0,0 km/h (0 Bft) S-SO 148 ° 0 min 0,000 mm 0,0 UV-I 0 W/m² 6,1 °C 7,8 °C 0,0 km/h (0 Bft)
10.07.2019 04:35 7,8 °C 89 % 1016,4 hPa 0,0 mm 0,0 km/h (0 Bft) S-SO 148 ° 0 min 0,000 mm 0,0 UV-I 0 W/m² 6,1 °C 7,8 °C 0,0 km/h (0 Bft)
10.07.2019 04:36 7,8 °C 89 % 1016,4 hPa 0,0 mm 0,0 km/h (0 Bft) S-SO 148 ° 0 min 0,000 mm 0,0 UV-I 0 W/m² 6,1 °C 7,8 °C 0,0 km/h (0 Bft)
10.07.2019 04:37 7,8 °C 89 % 1016,4 hPa 0,0 mm 0,0 km/h (0 Bft) S-SO 148 ° 0 min 0,000 mm 0,0 UV-I 0 W/m² 6,1 °C 7,8 °C 0,0 km/h (0 Bft)
10.07.2019 04:38 7,8 °C 89 % 1016,4 hPa 0,0 mm 0,0 km/h (0 Bft) S-SO 148 ° 0 min 0,000 mm 0,0 UV-I 0 W/m² 6,1 °C 7,8 °C 0,0 km/h (0 Bft)
10.07.2019 04:39 7,8 °C 89 % 1016,4 hPa 0,0 mm 0,0 km/h (0 Bft) S-SO 148 ° 0 min 0,000 mm 0,0 UV-I 0 W/m² 6,1 °C 7,8 °C 0,0 km/h (0 Bft)
10.07.2019 04:40 7,8 °C 89 % 1016,4 hPa 0,0 mm 0,0 km/h (0 Bft) S-SO 148 ° 0 min 0,000 mm 0,0 UV-I 0 W/m² 6,1 °C 7,8 °C 0,0 km/h (0 Bft)
10.07.2019 04:41 7,8 °C 89 % 1016,4 hPa 0,0 mm 0,0 km/h (0 Bft) S-SO 148 ° 0 min 0,000 mm 0,0 UV-I 0 W/m² 6,1 °C 7,8 °C 0,0 km/h (0 Bft)
10.07.2019 04:42 7,8 °C 89 % 1016,4 hPa 0,0 mm 0,0 km/h (0 Bft) S-SO 148 ° 0 min 0,000 mm 0,0 UV-I 0 W/m² 6,1 °C 7,8 °C 0,0 km/h (0 Bft)
10.07.2019 04:43 7,7 °C 89 % 1016,5 hPa 0,0 mm 0,0 km/h (0 Bft) S-SO 148 ° 0 min 0,000 mm 0,0 UV-I 0 W/m² 6,0 °C 7,7 °C 0,0 km/h (0 Bft)
10.07.2019 04:44 7,7 °C 89 % 1016,4 hPa 0,0 mm 0,0 km/h (0 Bft) S-SO 148 ° 0 min 0,000 mm 0,0 UV-I 0 W/m² 6,0 °C 7,7 °C 0,0 km/h (0 Bft)
10.07.2019 04:45 7,7 °C 89 % 1016,4 hPa 0,0 mm 0,0 km/h (0 Bft) S-SO 148 ° 0 min 0,000 mm 0,0 UV-I 0 W/m² 6,0 °C 7,7 °C 0,0 km/h (0 Bft)
10.07.2019 04:46 7,7 °C 89 % 1016,4 hPa 0,0 mm 0,0 km/h (0 Bft) S-SO 148 ° 0 min 0,000 mm 0,0 UV-I 0 W/m² 6,0 °C 7,7 °C 0,0 km/h (0 Bft)
10.07.2019 04:47 7,7 °C 89 % 1016,4 hPa 0,0 mm 0,0 km/h (0 Bft) S-SO 148 ° 0 min 0,000 mm 0,0 UV-I 0 W/m² 6,0 °C 7,7 °C 0,0 km/h (0 Bft)
10.07.2019 04:48 7,7 °C 89 % 1016,4 hPa 0,0 mm 0,0 km/h (0 Bft) S-SO 148 ° 0 min 0,000 mm 0,0 UV-I 0 W/m² 6,0 °C 7,7 °C 0,0 km/h (0 Bft)
10.07.2019 04:49 7,6 °C 89 % 1016,4 hPa 0,0 mm 0,0 km/h (0 Bft) S-SO 148 ° 0 min 0,000 mm 0,0 UV-I 0 W/m² 5,9 °C 7,6 °C 0,0 km/h (0 Bft)
10.07.2019 04:50 7,6 °C 89 % 1016,4 hPa 0,0 mm 0,0 km/h (0 Bft) S-SO 148 ° 0 min 0,000 mm 0,0 UV-I 0 W/m² 5,9 °C 7,6 °C 0,0 km/h (0 Bft)
10.07.2019 04:51 7,5 °C 89 % 1016,3 hPa 0,0 mm 0,0 km/h (0 Bft) S-SO 148 ° 0 min 0,000 mm 0,0 UV-I 0 W/m² 5,8 °C 7,5 °C 0,0 km/h (0 Bft)
10.07.2019 04:52 7,4 °C 89 % 1016,3 hPa 0,0 mm 0,0 km/h (0 Bft) S-SO 148 ° 0 min 0,000 mm 0,0 UV-I 0 W/m² 5,7 °C 7,4 °C 0,0 km/h (0 Bft)
10.07.2019 04:53 7,3 °C 89 % 1016,4 hPa 0,0 mm 0,0 km/h (0 Bft) S-SO 148 ° 0 min 0,000 mm 0,0 UV-I 0 W/m² 5,6 °C 7,3 °C 0,0 km/h (0 Bft)
10.07.2019 04:54 7,3 °C 89 % 1016,4 hPa 0,0 mm 0,0 km/h (0 Bft) S-SO 148 ° 0 min 0,000 mm 0,0 UV-I 0 W/m² 5,6 °C 7,3 °C 0,0 km/h (0 Bft)
10.07.2019 04:55 7,2 °C 89 % 1016,4 hPa 0,0 mm 0,0 km/h (0 Bft) S-SO 148 ° 0 min 0,000 mm 0,0 UV-I 0 W/m² 5,5 °C 7,2 °C 0,0 km/h (0 Bft)
10.07.2019 04:56 7,2 °C 89 % 1016,4 hPa 0,0 mm 0,0 km/h (0 Bft) S-SO 148 ° 0 min 0,000 mm 0,0 UV-I 0 W/m² 5,5 °C 7,2 °C 0,0 km/h (0 Bft)
10.07.2019 04:57 7,2 °C 90 % 1016,4 hPa 0,0 mm 0,0 km/h (0 Bft) S-SO 148 ° 0 min 0,000 mm 0,0 UV-I 0 W/m² 5,7 °C 7,2 °C 0,0 km/h (0 Bft)
10.07.2019 04:58 7,2 °C 90 % 1016,4 hPa 0,0 mm 0,0 km/h (0 Bft) S-SO 148 ° 0 min 0,000 mm 0,0 UV-I 0 W/m² 5,7 °C 7,2 °C 0,0 km/h (0 Bft)
10.07.2019 04:59 7,2 °C 90 % 1016,4 hPa 0,0 mm 0,0 km/h (0 Bft) S-SO 148 ° 0 min 0,000 mm 0,0 UV-I 0 W/m² 5,7 °C 7,2 °C 0,0 km/h (0 Bft)
10.07.2019 05:00 7,1 °C 89 % 1016,4 hPa 0,0 mm 0,0 km/h (0 Bft) S-SO 148 ° 0 min 0,000 mm 0,0 UV-I 0 W/m² 5,4 °C 7,1 °C 0,0 km/h (0 Bft)
10.07.2019 05:01 7,1 °C 90 % 1016,4 hPa 0,0 mm 0,0 km/h (0 Bft) S-SO 148 ° 0 min 0,000 mm 0,0 UV-I 0 W/m² 5,6 °C 7,1 °C 0,0 km/h (0 Bft)
10.07.2019 05:02 7,1 °C 90 % 1016,4 hPa 0,0 mm 0,0 km/h (0 Bft) S-SO 148 ° 0 min 0,000 mm 0,0 UV-I 0 W/m² 5,6 °C 7,1 °C 0,0 km/h (0 Bft)
10.07.2019 05:03 7,1 °C 90 % 1016,4 hPa 0,0 mm 0,0 km/h (0 Bft) S-SO 148 ° 0 min 0,000 mm 0,0 UV-I 0 W/m² 5,6 °C 7,1 °C 0,0 km/h (0 Bft)
10.07.2019 05:04 7,0 °C 90 % 1016,4 hPa 0,0 mm 0,0 km/h (0 Bft) S-SO 148 ° 0 min 0,000 mm 0,0 UV-I 0 W/m² 5,5 °C 7,0 °C 0,0 km/h (0 Bft)
10.07.2019 05:05 6,9 °C 90 % 1016,4 hPa 0,0 mm 0,0 km/h (0 Bft) S-SO 148 ° 0 min 0,000 mm 0,0 UV-I 0 W/m² 5,4 °C 6,9 °C 0,0 km/h (0 Bft)
10.07.2019 05:06 6,9 °C 90 % 1016,5 hPa 0,0 mm 0,0 km/h (0 Bft) S-SO 148 ° 0 min 0,000 mm 0,0 UV-I 0 W/m² 5,4 °C 6,9 °C 0,0 km/h (0 Bft)
10.07.2019 05:07 6,9 °C 90 % 1016,5 hPa 0,0 mm 0,0 km/h (0 Bft) S-SO 148 ° 0 min 0,000 mm 0,0 UV-I 0 W/m² 5,4 °C 6,9 °C 0,0 km/h (0 Bft)
10.07.2019 05:08 6,9 °C 90 % 1016,5 hPa 0,0 mm 0,0 km/h (0 Bft) S-SO 148 ° 0 min 0,000 mm 0,0 UV-I 0 W/m² 5,4 °C 6,9 °C 0,0 km/h (0 Bft)
10.07.2019 05:09 6,9 °C 90 % 1016,5 hPa 0,0 mm 0,0 km/h (0 Bft) S-SO 148 ° 0 min 0,000 mm 0,0 UV-I 0 W/m² 5,4 °C 6,9 °C 0,0 km/h (0 Bft)
10.07.2019 05:10 6,9 °C 90 % 1016,6 hPa 0,0 mm 0,0 km/h (0 Bft) S-SO 148 ° 0 min 0,000 mm 0,0 UV-I 0 W/m² 5,4 °C 6,9 °C 0,0 km/h (0 Bft)
10.07.2019 05:11 6,9 °C 90 % 1016,5 hPa 0,0 mm 0,0 km/h (0 Bft) S-SO 148 ° 0 min 0,000 mm 0,0 UV-I 0 W/m² 5,4 °C 6,9 °C 0,0 km/h (0 Bft)
10.07.2019 05:12 6,9 °C 90 % 1016,5 hPa 0,0 mm 0,0 km/h (0 Bft) S-SO 148 ° 0 min 0,000 mm 0,0 UV-I 0 W/m² 5,4 °C 6,9 °C 0,0 km/h (0 Bft)
10.07.2019 05:13 6,9 °C 90 % 1016,5 hPa 0,0 mm 0,0 km/h (0 Bft) S-SO 148 ° 0 min 0,000 mm 0,0 UV-I 0 W/m² 5,4 °C 6,9 °C 0,0 km/h (0 Bft)
10.07.2019 05:14 6,9 °C 90 % 1016,5 hPa 0,0 mm 0,0 km/h (0 Bft) S-SO 148 ° 0 min 0,000 mm 0,0 UV-I 0 W/m² 5,4 °C 6,9 °C 0,0 km/h (0 Bft)
10.07.2019 05:15 7,0 °C 90 % 1016,5 hPa 0,0 mm 0,0 km/h (0 Bft) S-SO 148 ° 0 min 0,000 mm 0,0 UV-I 0 W/m² 5,5 °C 7,0 °C 0,0 km/h (0 Bft)
10.07.2019 05:16 7,0 °C 90 % 1016,6 hPa 0,0 mm 0,0 km/h (0 Bft) S-SO 148 ° 0 min 0,000 mm 0,0 UV-I 0 W/m² 5,5 °C 7,0 °C 0,0 km/h (0 Bft)
10.07.2019 05:17 6,9 °C 90 % 1016,6 hPa 0,0 mm 0,0 km/h (0 Bft) S-SO 148 ° 0 min 0,000 mm 0,0 UV-I 0 W/m² 5,4 °C 6,9 °C 0,0 km/h (0 Bft)
10.07.2019 05:18 6,9 °C 90 % 1016,5 hPa 0,0 mm 0,0 km/h (0 Bft) S-SO 148 ° 0 min 0,000 mm 0,0 UV-I 0 W/m² 5,4 °C 6,9 °C 0,0 km/h (0 Bft)
10.07.2019 05:19 6,9 °C 90 % 1016,5 hPa 0,0 mm 0,0 km/h (0 Bft) S-SO 148 ° 0 min 0,000 mm 0,0 UV-I 0 W/m² 5,4 °C 6,9 °C 0,0 km/h (0 Bft)
10.07.2019 05:20 6,9 °C 90 % 1016,6 hPa 0,0 mm 0,0 km/h (0 Bft) S-SO 148 ° 0 min 0,000 mm 0,0 UV-I 0 W/m² 5,4 °C 6,9 °C 0,0 km/h (0 Bft)
10.07.2019 05:21 6,9 °C 91 % 1016,5 hPa 0,0 mm 0,0 km/h (0 Bft) S-SO 148 ° 0 min 0,000 mm 0,0 UV-I 0 W/m² 5,5 °C 6,9 °C 0,0 km/h (0 Bft)
10.07.2019 05:22 6,9 °C 90 % 1016,6 hPa 0,0 mm 0,0 km/h (0 Bft) S-SO 148 ° 0 min 0,000 mm 0,0 UV-I 0 W/m² 5,4 °C 6,9 °C 0,0 km/h (0 Bft)
10.07.2019 05:23 6,9 °C 90 % 1016,6 hPa 0,0 mm 0,0 km/h (0 Bft) S-SO 148 ° 0 min 0,000 mm 0,0 UV-I 0 W/m² 5,4 °C 6,9 °C 0,0 km/h (0 Bft)
10.07.2019 05:24 6,9 °C 90 % 1016,6 hPa 0,0 mm 0,0 km/h (0 Bft) S-SO 148 ° 0 min 0,000 mm 0,0 UV-I 0 W/m² 5,4 °C 6,9 °C 0,0 km/h (0 Bft)
10.07.2019 05:25 7,0 °C 90 % 1016,5 hPa 0,0 mm 0,0 km/h (0 Bft) S-SO 148 ° 0 min 0,000 mm 0,0 UV-I 0 W/m² 5,5 °C 7,0 °C 0,0 km/h (0 Bft)
10.07.2019 05:26 7,0 °C 91 % 1016,6 hPa 0,0 mm 0,0 km/h (0 Bft) S-SO 148 ° 0 min 0,000 mm 0,0 UV-I 0 W/m² 5,6 °C 7,0 °C 0,0 km/h (0 Bft)
10.07.2019 05:27 7,1 °C 91 % 1016,6 hPa 0,0 mm 0,0 km/h (0 Bft) S-SO 148 ° 0 min 0,000 mm 0,0 UV-I 0 W/m² 5,7 °C 7,1 °C 0,0 km/h (0 Bft)
10.07.2019 05:28 7,1 °C 91 % 1016,6 hPa 0,0 mm 0,0 km/h (0 Bft) S-SO 148 ° 0 min 0,000 mm 0,0 UV-I 0 W/m² 5,7 °C 7,1 °C 0,0 km/h (0 Bft)
10.07.2019 05:29 7,1 °C 91 % 1016,6 hPa 0,0 mm 0,0 km/h (0 Bft) S-SO 148 ° 0 min 0,000 mm 0,0 UV-I 0 W/m² 5,7 °C 7,1 °C 0,0 km/h (0 Bft)
10.07.2019 05:30 7,1 °C 91 % 1016,6 hPa 0,0 mm 0,0 km/h (0 Bft) S-SO 148 ° 0 min 0,000 mm 0,0 UV-I 0 W/m² 5,7 °C 7,1 °C 0,0 km/h (0 Bft)
10.07.2019 05:31 7,1 °C 91 % 1016,6 hPa 0,0 mm 0,0 km/h (0 Bft) S-SO 148 ° 0 min 0,000 mm 0,0 UV-I 5 W/m² 5,7 °C 7,1 °C 0,0 km/h (0 Bft)
10.07.2019 05:32 7,1 °C 91 % 1016,6 hPa 0,0 mm 0,0 km/h (0 Bft) S-SO 148 ° 0 min 0,000 mm 0,0 UV-I 5 W/m² 5,7 °C 7,1 °C 0,0 km/h (0 Bft)
10.07.2019 05:33 7,1 °C 91 % 1016,6 hPa 0,0 mm 0,0 km/h (0 Bft) S-SO 148 ° 0 min 0,000 mm 0,0 UV-I 5 W/m² 5,7 °C 7,1 °C 0,0 km/h (0 Bft)
10.07.2019 05:34 7,1 °C 91 % 1016,6 hPa 0,0 mm 0,0 km/h (0 Bft) S-SO 148 ° 0 min 0,000 mm 0,0 UV-I 5 W/m² 5,7 °C 7,1 °C 0,0 km/h (0 Bft)
10.07.2019 05:35 7,1 °C 91 % 1016,7 hPa 0,0 mm 0,0 km/h (0 Bft) S-SO 148 ° 0 min 0,000 mm 0,0 UV-I 7 W/m² 5,7 °C 7,1 °C 0,0 km/h (0 Bft)
10.07.2019 05:36 7,1 °C 91 % 1016,6 hPa 0,0 mm 0,0 km/h (0 Bft) S-SO 148 ° 0 min 0,000 mm 0,0 UV-I 7 W/m² 5,7 °C 7,1 °C 0,0 km/h (0 Bft)
10.07.2019 05:37 7,1 °C 91 % 1016,7 hPa 0,0 mm 0,0 km/h (0 Bft) S-SO 148 ° 0 min 0,000 mm 0,0 UV-I 7 W/m² 5,7 °C 7,1 °C 0,0 km/h (0 Bft)
10.07.2019 05:38 7,1 °C 91 % 1016,7 hPa 0,0 mm 0,0 km/h (0 Bft) S-SO 148 ° 0 min 0,000 mm 0,0 UV-I 7 W/m² 5,7 °C 7,1 °C 0,0 km/h (0 Bft)
10.07.2019 05:39 7,1 °C 91 % 1016,7 hPa 0,0 mm 0,0 km/h (0 Bft) S-SO 148 ° 0 min 0,000 mm 0,0 UV-I 9 W/m² 5,7 °C 7,1 °C 0,0 km/h (0 Bft)
10.07.2019 05:40 7,2 °C 91 % 1016,6 hPa 0,0 mm 0,0 km/h (0 Bft) S-SO 148 ° 0 min 0,000 mm 0,0 UV-I 9 W/m² 5,8 °C 7,2 °C 0,0 km/h (0 Bft)
10.07.2019 05:41 7,2 °C 91 % 1016,6 hPa 0,0 mm 0,0 km/h (0 Bft) S-SO 148 ° 0 min 0,000 mm 0,0 UV-I 11 W/m² 5,8 °C 7,2 °C 0,0 km/h (0 Bft)
10.07.2019 05:42 7,3 °C 91 % 1016,7 hPa 0,0 mm 0,0 km/h (0 Bft) S-SO 148 ° 0 min 0,000 mm 0,0 UV-I 11 W/m² 5,9 °C 7,3 °C 0,0 km/h (0 Bft)
10.07.2019 05:43 7,3 °C 91 % 1016,7 hPa 0,0 mm 0,0 km/h (0 Bft) S-SO 148 ° 0 min 0,000 mm 0,0 UV-I 12 W/m² 5,9 °C 7,3 °C 0,0 km/h (0 Bft)
10.07.2019 05:44 7,3 °C 91 % 1016,6 hPa 0,0 mm 0,0 km/h (0 Bft) S-SO 148 ° 0 min 0,000 mm 0,0 UV-I 12 W/m² 5,9 °C 7,3 °C 0,0 km/h (0 Bft)
10.07.2019 05:45 7,3 °C 91 % 1016,6 hPa 0,0 mm 0,0 km/h (0 Bft) S-SO 148 ° 0 min 0,000 mm 0,0 UV-I 12 W/m² 5,9 °C 7,3 °C 0,0 km/h (0 Bft)
10.07.2019 05:46 7,3 °C 91 % 1016,7 hPa 0,0 mm 0,0 km/h (0 Bft) S-SO 148 ° 0 min 0,000 mm 0,0 UV-I 12 W/m² 5,9 °C 7,3 °C 0,0 km/h (0 Bft)
10.07.2019 05:47 7,3 °C 91 % 1016,7 hPa 0,0 mm 0,0 km/h (0 Bft) S-SO 149 ° 0 min 0,000 mm 0,0 UV-I 12 W/m² 5,9 °C 7,3 °C 0,0 km/h (0 Bft)
10.07.2019 05:48 7,3 °C 91 % 1016,7 hPa 0,0 mm 0,0 km/h (0 Bft) S-SO 148 ° 0 min 0,000 mm 0,0 UV-I 12 W/m² 5,9 °C 7,3 °C 0,0 km/h (0 Bft)
10.07.2019 05:49 7,3 °C 90 % 1016,6 hPa 0,0 mm 0,0 km/h (0 Bft) S-SO 149 ° 0 min 0,000 mm 0,0 UV-I 14 W/m² 5,8 °C 7,3 °C 0,0 km/h (0 Bft)
10.07.2019 05:50 7,3 °C 90 % 1016,6 hPa 0,0 mm 0,0 km/h (0 Bft) S-SO 148 ° 0 min 0,000 mm 0,0 UV-I 14 W/m² 5,8 °C 7,3 °C 0,0 km/h (0 Bft)
10.07.2019 05:51 7,3 °C 90 % 1016,6 hPa 0,0 mm 0,0 km/h (0 Bft) S-SO 148 ° 0 min 0,000 mm 0,0 UV-I 14 W/m² 5,8 °C 7,3 °C 0,0 km/h (0 Bft)
10.07.2019 05:52 7,3 °C 90 % 1016,6 hPa 0,0 mm 0,0 km/h (0 Bft) S-SO 149 ° 0 min 0,000 mm 0,0 UV-I 16 W/m² 5,8 °C 7,3 °C 0,0 km/h (0 Bft)
10.07.2019 05:53 7,2 °C 90 % 1016,6 hPa 0,0 mm 0,0 km/h (0 Bft) S-SO 149 ° 0 min 0,000 mm 0,0 UV-I 18 W/m² 5,7 °C 7,2 °C 0,0 km/h (0 Bft)
10.07.2019 05:54 7,2 °C 90 % 1016,6 hPa 0,0 mm 0,0 km/h (0 Bft) S-SO 148 ° 0 min 0,000 mm 0,0 UV-I 18 W/m² 5,7 °C 7,2 °C 0,0 km/h (0 Bft)
10.07.2019 05:55 7,2 °C 90 % 1016,6 hPa 0,0 mm 0,0 km/h (0 Bft) S-SO 148 ° 0 min 0,000 mm 0,0 UV-I 19 W/m² 5,7 °C 7,2 °C 0,0 km/h (0 Bft)
10.07.2019 05:56 7,2 °C 90 % 1016,6 hPa 0,0 mm 0,0 km/h (0 Bft) S-SO 148 ° 0 min 0,000 mm 0,0 UV-I 19 W/m² 5,7 °C 7,2 °C 0,0 km/h (0 Bft)
10.07.2019 05:57 7,2 °C 90 % 1016,6 hPa 0,0 mm 0,0 km/h (0 Bft) S-SO 148 ° 0 min 0,000 mm 0,0 UV-I 21 W/m² 5,7 °C 7,2 °C 0,0 km/h (0 Bft)
10.07.2019 05:58 7,2 °C 90 % 1016,6 hPa 0,0 mm 0,0 km/h (0 Bft) S-SO 148 ° 0 min 0,000 mm 0,0 UV-I 21 W/m² 5,7 °C 7,2 °C 0,0 km/h (0 Bft)
10.07.2019 05:59 7,2 °C 90 % 1016,6 hPa 0,0 mm 0,0 km/h (0 Bft) S-SO 148 ° 0 min 0,000 mm 0,0 UV-I 21 W/m² 5,7 °C 7,2 °C 0,0 km/h (0 Bft)
10.07.2019 06:00 7,2 °C 90 % 1016,6 hPa 0,0 mm 0,0 km/h (0 Bft) S-SO 148 ° 0 min 0,000 mm 0,0 UV-I 21 W/m² 5,7 °C 7,2 °C 0,0 km/h (0 Bft)
10.07.2019 06:01 7,2 °C 89 % 1016,6 hPa 0,0 mm 0,0 km/h (0 Bft) S-SO 148 ° 0 min 0,000 mm 0,0 UV-I 21 W/m² 5,5 °C 7,2 °C 0,0 km/h (0 Bft)
10.07.2019 06:02 7,2 °C 89 % 1016,6 hPa 0,0 mm 0,0 km/h (0 Bft) S-SO 148 ° 0 min 0,000 mm 0,0 UV-I 23 W/m² 5,5 °C 7,2 °C 0,0 km/h (0 Bft)
10.07.2019 06:03 7,2 °C 89 % 1016,6 hPa 0,0 mm 0,0 km/h (0 Bft) S-SO 148 ° 0 min 0,000 mm 0,0 UV-I 23 W/m² 5,5 °C 7,2 °C 0,0 km/h (0 Bft)
10.07.2019 06:04 7,2 °C 89 % 1016,6 hPa 0,0 mm 0,0 km/h (0 Bft) S-SO 148 ° 0 min 0,000 mm 0,0 UV-I 25 W/m² 5,5 °C 7,2 °C 0,0 km/h (0 Bft)
10.07.2019 06:05 7,1 °C 89 % 1016,6 hPa 0,0 mm 0,0 km/h (0 Bft) S-SO 148 ° 0 min 0,000 mm 0,0 UV-I 26 W/m² 5,4 °C 7,1 °C 0,0 km/h (0 Bft)
10.07.2019 06:06 7,1 °C 89 % 1016,6 hPa 0,0 mm 0,0 km/h (0 Bft) S-SO 148 ° 0 min 0,000 mm 0,0 UV-I 28 W/m² 5,4 °C 7,1 °C 0,0 km/h (0 Bft)
10.07.2019 06:07 7,1 °C 89 % 1016,7 hPa 0,0 mm 0,0 km/h (0 Bft) S-SO 148 ° 0 min 0,000 mm 0,0 UV-I 30 W/m² 5,4 °C 7,1 °C 0,0 km/h (0 Bft)
10.07.2019 06:08 7,1 °C 89 % 1016,7 hPa 0,0 mm 0,0 km/h (0 Bft) S-SO 148 ° 0 min 0,000 mm 0,0 UV-I 33 W/m² 5,4 °C 7,1 °C 0,0 km/h (0 Bft)
10.07.2019 06:09 7,1 °C 89 % 1016,7 hPa 0,0 mm 0,0 km/h (0 Bft) S-SO 148 ° 0 min 0,000 mm 0,0 UV-I 37 W/m² 5,4 °C 7,1 °C 0,0 km/h (0 Bft)
10.07.2019 06:10 7,0 °C 89 % 1016,7 hPa 0,0 mm 0,0 km/h (0 Bft) S-SO 148 ° 0 min 0,000 mm 0,0 UV-I 42 W/m² 5,3 °C 7,0 °C 0,0 km/h (0 Bft)
10.07.2019 06:11 6,9 °C 89 % 1016,8 hPa 0,0 mm 0,0 km/h (0 Bft) S-SO 148 ° 0 min 0,000 mm 0,0 UV-I 46 W/m² 5,2 °C 6,9 °C 0,0 km/h (0 Bft)
10.07.2019 06:12 6,9 °C 89 % 1016,8 hPa 0,0 mm 0,0 km/h (0 Bft) S-SO 148 ° 0 min 0,000 mm 0,0 UV-I 49 W/m² 5,2 °C 6,9 °C 0,0 km/h (0 Bft)
10.07.2019 06:13 6,9 °C 90 % 1016,7 hPa 0,0 mm 0,0 km/h (0 Bft) S-SO 148 ° 0 min 0,000 mm 0,0 UV-I 51 W/m² 5,4 °C 6,9 °C 0,0 km/h (0 Bft)
10.07.2019 06:14 6,9 °C 90 % 1016,7 hPa 0,0 mm 0,0 km/h (0 Bft) S-SO 149 ° 0 min 0,000 mm 0,0 UV-I 53 W/m² 5,4 °C 6,9 °C 0,0 km/h (0 Bft)
10.07.2019 06:15 7,0 °C 90 % 1016,7 hPa 0,0 mm 0,0 km/h (0 Bft) S-SO 148 ° 0 min 0,000 mm 0,0 UV-I 56 W/m² 5,5 °C 7,0 °C 0,0 km/h (0 Bft)
10.07.2019 06:16 7,0 °C 90 % 1016,7 hPa 0,0 mm 0,0 km/h (0 Bft) S-SO 148 ° 0 min 0,000 mm 0,0 UV-I 58 W/m² 5,5 °C 7,0 °C 0,0 km/h (0 Bft)
10.07.2019 06:17 7,1 °C 90 % 1016,7 hPa 0,0 mm 0,0 km/h (0 Bft) S-SO 148 ° 0 min 0,000 mm 0,0 UV-I 60 W/m² 5,6 °C 7,1 °C 0,0 km/h (0 Bft)
10.07.2019 06:18 7,1 °C 90 % 1016,7 hPa 0,0 mm 0,0 km/h (0 Bft) S-SO 148 ° 0 min 0,000 mm 0,0 UV-I 62 W/m² 5,6 °C 7,1 °C 0,0 km/h (0 Bft)
10.07.2019 06:19 7,1 °C 90 % 1016,7 hPa 0,0 mm 0,0 km/h (0 Bft) S-SO 148 ° 0 min 0,000 mm 0,0 UV-I 63 W/m² 5,6 °C 7,1 °C 0,0 km/h (0 Bft)
10.07.2019 06:20 7,1 °C 90 % 1016,8 hPa 0,0 mm 0,0 km/h (0 Bft) S-SO 149 ° 0 min 0,000 mm 0,0 UV-I 63 W/m² 5,6 °C 7,1 °C 0,0 km/h (0 Bft)
10.07.2019 06:21 7,1 °C 90 % 1016,8 hPa 0,0 mm 0,0 km/h (0 Bft) S-SO 149 ° 0 min 0,000 mm 0,0 UV-I 65 W/m² 5,6 °C 7,1 °C 0,0 km/h (0 Bft)
10.07.2019 06:22 7,2 °C 90 % 1016,8 hPa 0,0 mm 0,0 km/h (0 Bft) S-SO 148 ° 0 min 0,000 mm 0,0 UV-I 67 W/m² 5,7 °C 7,2 °C 0,0 km/h (0 Bft)
10.07.2019 06:23 7,2 °C 90 % 1016,8 hPa 0,0 mm 0,0 km/h (0 Bft) S-SO 148 ° 0 min 0,000 mm 0,0 UV-I 67 W/m² 5,7 °C 7,2 °C 0,0 km/h (0 Bft)
10.07.2019 06:24 7,2 °C 90 % 1016,8 hPa 0,0 mm 0,0 km/h (0 Bft) S-SO 148 ° 0 min 0,000 mm 0,0 UV-I 65 W/m² 5,7 °C 7,2 °C 0,0 km/h (0 Bft)
10.07.2019 06:25 7,2 °C 90 % 1016,7 hPa 0,0 mm 0,0 km/h (0 Bft) S-SO 148 ° 0 min 0,000 mm 0,0 UV-I 67 W/m² 5,7 °C 7,2 °C 0,0 km/h (0 Bft)
10.07.2019 06:26 7,2 °C 90 % 1016,7 hPa 0,0 mm 0,0 km/h (0 Bft) S-SO 148 ° 0 min 0,000 mm 0,0 UV-I 67 W/m² 5,7 °C 7,2 °C 0,0 km/h (0 Bft)
10.07.2019 06:27 7,2 °C 90 % 1016,8 hPa 0,0 mm 0,0 km/h (0 Bft) S-SO 149 ° 0 min 0,000 mm 0,0 UV-I 69 W/m² 5,7 °C 7,2 °C 0,0 km/h (0 Bft)
10.07.2019 06:28 7,2 °C 90 % 1016,8 hPa 0,0 mm 0,0 km/h (0 Bft) S-SO 149 ° 0 min 0,000 mm 0,0 UV-I 67 W/m² 5,7 °C 7,2 °C 0,0 km/h (0 Bft)
10.07.2019 06:29 7,2 °C 90 % 1016,7 hPa 0,0 mm 0,0 km/h (0 Bft) S-SO 148 ° 0 min 0,000 mm 0,0 UV-I 67 W/m² 5,7 °C 7,2 °C 0,0 km/h (0 Bft)
10.07.2019 06:30 7,3 °C 90 % 1016,7 hPa 0,0 mm 0,0 km/h (0 Bft) S-SO 148 ° 0 min 0,000 mm 0,0 UV-I 69 W/m² 5,8 °C 7,3 °C 0,0 km/h (0 Bft)
10.07.2019 06:31 7,3 °C 90 % 1016,7 hPa 0,0 mm 0,0 km/h (0 Bft) S-SO 148 ° 0 min 0,000 mm 0,0 UV-I 70 W/m² 5,8 °C 7,3 °C 0,0 km/h (0 Bft)
10.07.2019 06:32 7,4 °C 90 % 1016,8 hPa 0,0 mm 0,0 km/h (0 Bft) S-SO 148 ° 0 min 0,000 mm 0,0 UV-I 72 W/m² 5,9 °C 7,4 °C 0,0 km/h (0 Bft)
10.07.2019 06:33 7,4 °C 90 % 1016,8 hPa 0,0 mm 0,0 km/h (0 Bft) S-SO 149 ° 0 min 0,000 mm 0,0 UV-I 74 W/m² 5,9 °C 7,4 °C 0,0 km/h (0 Bft)
10.07.2019 06:34 7,4 °C 90 % 1016,8 hPa 0,0 mm 0,0 km/h (0 Bft) S-SO 148 ° 0 min 0,000 mm 0,0 UV-I 76 W/m² 5,9 °C 7,4 °C 0,0 km/h (0 Bft)
10.07.2019 06:35 7,4 °C 90 % 1016,8 hPa 0,0 mm 0,0 km/h (0 Bft) S-SO 148 ° 0 min 0,000 mm 0,0 UV-I 77 W/m² 5,9 °C 7,4 °C 0,0 km/h (0 Bft)
10.07.2019 06:36 7,4 °C 90 % 1016,8 hPa 0,0 mm 0,0 km/h (0 Bft) S-SO 148 ° 0 min 0,000 mm 0,0 UV-I 81 W/m² 5,9 °C 7,4 °C 0,0 km/h (0 Bft)
10.07.2019 06:37 7,4 °C 90 % 1016,8 hPa 0,0 mm 0,0 km/h (0 Bft) S-SO 148 ° 0 min 0,000 mm 0,0 UV-I 83 W/m² 5,9 °C 7,4 °C 0,0 km/h (0 Bft)
10.07.2019 06:38 7,4 °C 90 % 1016,8 hPa 0,0 mm 0,0 km/h (0 Bft) S-SO 148 ° 0 min 0,000 mm 0,0 UV-I 86 W/m² 5,9 °C 7,4 °C 0,0 km/h (0 Bft)
10.07.2019 06:39 7,4 °C 90 % 1016,8 hPa 0,0 mm 0,0 km/h (0 Bft) S-SO 148 ° 0 min 0,000 mm 0,0 UV-I 90 W/m² 5,9 °C 7,4 °C 0,0 km/h (0 Bft)
10.07.2019 06:40 7,5 °C 90 % 1016,8 hPa 0,0 mm 0,0 km/h (0 Bft) S-SO 148 ° 0 min 0,000 mm 0,0 UV-I 91 W/m² 6,0 °C 7,5 °C 0,0 km/h (0 Bft)
10.07.2019 06:41 7,6 °C 90 % 1016,8 hPa 0,0 mm 0,0 km/h (0 Bft) S-SO 148 ° 0 min 0,000 mm 0,0 UV-I 95 W/m² 6,1 °C 7,6 °C 0,0 km/h (0 Bft)
10.07.2019 06:42 7,7 °C 90 % 1016,8 hPa 0,0 mm 0,0 km/h (0 Bft) S-SO 149 ° 0 min 0,000 mm 0,0 UV-I 95 W/m² 6,2 °C 7,7 °C 0,0 km/h (0 Bft)
10.07.2019 06:43 7,7 °C 91 % 1016,8 hPa 0,0 mm 0,0 km/h (0 Bft) S-SO 149 ° 0 min 0,000 mm 0,0 UV-I 95 W/m² 6,3 °C 7,7 °C 0,0 km/h (0 Bft)
10.07.2019 06:44 7,8 °C 90 % 1016,7 hPa 0,0 mm 0,0 km/h (0 Bft) S-SO 149 ° 0 min 0,000 mm 0,0 UV-I 93 W/m² 6,3 °C 7,8 °C 0,0 km/h (0 Bft)
10.07.2019 06:45 7,8 °C 90 % 1016,8 hPa 0,0 mm 0,0 km/h (0 Bft) S-SO 148 ° 0 min 0,000 mm 0,0 UV-I 93 W/m² 6,3 °C 7,8 °C 0,0 km/h (0 Bft)
10.07.2019 06:46 7,8 °C 90 % 1016,8 hPa 0,0 mm 0,0 km/h (0 Bft) S-SO 149 ° 0 min 0,000 mm 0,0 UV-I 102 W/m² 6,3 °C 7,8 °C 0,0 km/h (0 Bft)
10.07.2019 06:47 7,9 °C 90 % 1016,7 hPa 0,0 mm 0,0 km/h (0 Bft) S-SO 148 ° 0 min 0,000 mm 0,5 UV-I 105 W/m² 6,4 °C 7,9 °C 0,0 km/h (0 Bft)
10.07.2019 06:48 7,9 °C 90 % 1016,8 hPa 0,0 mm 0,0 km/h (0 Bft) S-SO 148 ° 0 min 0,000 mm 0,5 UV-I 109 W/m² 6,4 °C 7,9 °C 0,0 km/h (0 Bft)
10.07.2019 06:49 7,9 °C 89 % 1016,7 hPa 0,0 mm 0,0 km/h (0 Bft) S-SO 148 ° 0 min 0,000 mm 0,5 UV-I 111 W/m² 6,2 °C 7,9 °C 0,0 km/h (0 Bft)
10.07.2019 06:50 7,9 °C 89 % 1016,7 hPa 0,0 mm 0,0 km/h (0 Bft) S-SO 148 ° 0 min 0,000 mm 0,5 UV-I 113 W/m² 6,2 °C 7,9 °C 0,0 km/h (0 Bft)
10.07.2019 06:51 8,0 °C 89 % 1016,7 hPa 0,0 mm 0,0 km/h (0 Bft) S-SO 149 ° 0 min 0,000 mm 0,5 UV-I 116 W/m² 6,3 °C 8,0 °C 0,0 km/h (0 Bft)
10.07.2019 06:52 8,1 °C 89 % 1016,7 hPa 0,0 mm 0,0 km/h (0 Bft) S-SO 148 ° 0 min 0,000 mm 0,5 UV-I 118 W/m² 6,4 °C 8,1 °C 0,0 km/h (0 Bft)
10.07.2019 06:53 8,1 °C 89 % 1016,7 hPa 0,0 mm 0,0 km/h (0 Bft) S-SO 148 ° 0 min 0,000 mm 0,5 UV-I 120 W/m² 6,4 °C 8,1 °C 0,0 km/h (0 Bft)
10.07.2019 06:54 8,1 °C 89 % 1016,8 hPa 0,0 mm 0,0 km/h (0 Bft) S-SO 148 ° 0 min 0,000 mm 0,5 UV-I 120 W/m² 6,4 °C 8,1 °C 0,0 km/h (0 Bft)
10.07.2019 06:55 8,2 °C 89 % 1016,8 hPa 0,0 mm 0,0 km/h (0 Bft) S-SO 148 ° 0 min 0,000 mm 0,5 UV-I 123 W/m² 6,5 °C 8,2 °C 0,0 km/h (0 Bft)
10.07.2019 06:56 8,2 °C 89 % 1016,7 hPa 0,0 mm 0,0 km/h (0 Bft) S-SO 148 ° 0 min 0,000 mm 0,5 UV-I 123 W/m² 6,5 °C 8,2 °C 0,0 km/h (0 Bft)
10.07.2019 06:57 8,3 °C 88 % 1016,7 hPa 0,0 mm 0,0 km/h (0 Bft) S-SO 148 ° 0 min 0,000 mm 0,5 UV-I 132 W/m² 6,4 °C 8,3 °C 0,0 km/h (0 Bft)
10.07.2019 06:58 8,3 °C 89 % 1016,7 hPa 0,0 mm 0,0 km/h (0 Bft) S-SO 148 ° 0 min 0,000 mm 0,6 UV-I 134 W/m² 6,6 °C 8,3 °C 0,0 km/h (0 Bft)
10.07.2019 06:59 8,3 °C 89 % 1016,6 hPa 0,0 mm 0,0 km/h (0 Bft) S-SO 148 ° 0 min 0,000 mm 0,6 UV-I 137 W/m² 6,6 °C 8,3 °C 0,0 km/h (0 Bft)
10.07.2019 07:00 8,3 °C 88 % 1016,7 hPa 0,0 mm 0,0 km/h (0 Bft) S-SO 148 ° 0 min 0,025 mm 0,6 UV-I 137 W/m² 6,4 °C 8,3 °C 0,0 km/h (0 Bft)
10.07.2019 07:01 8,4 °C 88 % 1016,7 hPa 0,0 mm 0,0 km/h (0 Bft) S-SO 148 ° 0 min 0,000 mm 0,6 UV-I 139 W/m² 6,5 °C 8,4 °C 0,0 km/h (0 Bft)
10.07.2019 07:02 8,4 °C 88 % 1016,7 hPa 0,0 mm 0,0 km/h (0 Bft) S-SO 148 ° 0 min 0,000 mm 0,6 UV-I 141 W/m² 6,5 °C 8,4 °C 0,0 km/h (0 Bft)
10.07.2019 07:03 8,5 °C 88 % 1016,7 hPa 0,0 mm 0,0 km/h (0 Bft) S-SO 148 ° 0 min 0,000 mm 0,6 UV-I 148 W/m² 6,6 °C 8,5 °C 0,0 km/h (0 Bft)
10.07.2019 07:04 8,6 °C 88 % 1016,7 hPa 0,0 mm 0,0 km/h (0 Bft) S-SO 148 ° 0 min 0,000 mm 0,6 UV-I 146 W/m² 6,7 °C 8,6 °C 0,0 km/h (0 Bft)
10.07.2019 07:05 8,7 °C 88 % 1016,7 hPa 0,0 mm 0,0 km/h (0 Bft) S-SO 148 ° 0 min 0,000 mm 0,6 UV-I 144 W/m² 6,8 °C 8,7 °C 0,0 km/h (0 Bft)
10.07.2019 07:06 8,8 °C 88 % 1016,7 hPa 0,0 mm 0,0 km/h (0 Bft) S-SO 149 ° 0 min 0,000 mm 0,6 UV-I 146 W/m² 6,9 °C 8,8 °C 0,0 km/h (0 Bft)
10.07.2019 07:07 8,9 °C 88 % 1016,7 hPa 0,0 mm 0,0 km/h (0 Bft) S-SO 148 ° 0 min 0,000 mm 0,6 UV-I 156 W/m² 7,0 °C 8,9 °C 0,0 km/h (0 Bft)
10.07.2019 07:08 8,9 °C 88 % 1016,7 hPa 0,0 mm 0,0 km/h (0 Bft) S-SO 148 ° 0 min 0,000 mm 0,7 UV-I 163 W/m² 7,0 °C 8,9 °C 0,0 km/h (0 Bft)
10.07.2019 07:09 9,0 °C 87 % 1016,7 hPa 0,0 mm 0,0 km/h (0 Bft) S-SO 148 ° 0 min 0,000 mm 0,7 UV-I 174 W/m² 7,0 °C 9,0 °C 0,0 km/h (0 Bft)
10.07.2019 07:10 9,1 °C 87 % 1016,7 hPa 0,0 mm 0,0 km/h (0 Bft) S-SO 148 ° 0 min 0,000 mm 0,7 UV-I 178 W/m² 7,1 °C 9,1 °C 0,0 km/h (0 Bft)
10.07.2019 07:11 9,1 °C 87 % 1016,7 hPa 0,0 mm 0,0 km/h (0 Bft) S-SO 148 ° 0 min 0,000 mm 0,7 UV-I 179 W/m² 7,1 °C 9,1 °C 0,0 km/h (0 Bft)
10.07.2019 07:12 9,1 °C 87 % 1016,7 hPa 0,0 mm 0,0 km/h (0 Bft) S-SO 148 ° 0 min 0,000 mm 0,7 UV-I 178 W/m² 7,1 °C 9,1 °C 0,0 km/h (0 Bft)
10.07.2019 07:13 9,1 °C 88 % 1016,7 hPa 0,0 mm 0,0 km/h (0 Bft) S-SO 148 ° 0 min 0,000 mm 0,7 UV-I 137 W/m² 7,2 °C 9,1 °C 0,0 km/h (0 Bft)
10.07.2019 07:14 9,1 °C 87 % 1016,7 hPa 0,0 mm 0,0 km/h (0 Bft) S-SO 148 ° 0 min 0,000 mm 0,7 UV-I 125 W/m² 7,1 °C 9,1 °C 0,0 km/h (0 Bft)
10.07.2019 07:15 9,2 °C 87 % 1016,7 hPa 0,0 mm 0,0 km/h (0 Bft) S-SO 148 ° 0 min 0,000 mm 0,7 UV-I 125 W/m² 7,2 °C 9,2 °C 0,0 km/h (0 Bft)
10.07.2019 07:16 9,2 °C 87 % 1016,7 hPa 0,0 mm 0,0 km/h (0 Bft) S-SO 148 ° 0 min 0,000 mm 0,7 UV-I 142 W/m² 7,2 °C 9,2 °C 0,0 km/h (0 Bft)
10.07.2019 07:17 9,3 °C 88 % 1016,7 hPa 0,0 mm 0,0 km/h (0 Bft) S-SO 148 ° 0 min 0,000 mm 0,7 UV-I 135 W/m² 7,4 °C 9,3 °C 0,0 km/h (0 Bft)
10.07.2019 07:18 9,4 °C 88 % 1016,7 hPa 0,0 mm 0,0 km/h (0 Bft) S-SO 148 ° 0 min 0,000 mm 0,8 UV-I 135 W/m² 7,5 °C 9,4 °C 0,0 km/h (0 Bft)
10.07.2019 07:19 9,4 °C 87 % 1016,6 hPa 0,0 mm 0,0 km/h (0 Bft) S-SO 148 ° 0 min 0,000 mm 0,8 UV-I 158 W/m² 7,3 °C 9,4 °C 0,0 km/h (0 Bft)
10.07.2019 07:20 9,4 °C 86 % 1016,6 hPa 0,0 mm 0,0 km/h (0 Bft) S-SO 148 ° 0 min 0,000 mm 0,8 UV-I 163 W/m² 7,2 °C 9,4 °C 0,0 km/h (0 Bft)
10.07.2019 07:21 9,4 °C 87 % 1016,6 hPa 0,0 mm 0,0 km/h (0 Bft) S-SO 148 ° 0 min 0,000 mm 0,8 UV-I 185 W/m² 7,3 °C 9,4 °C 0,0 km/h (0 Bft)
10.07.2019 07:22 9,5 °C 87 % 1016,6 hPa 0,0 mm 0,0 km/h (0 Bft) S-SO 148 ° 0 min 0,000 mm 0,8 UV-I 174 W/m² 7,4 °C 9,5 °C 0,0 km/h (0 Bft)
10.07.2019 07:23 9,4 °C 86 % 1016,6 hPa 0,0 mm 0,0 km/h (0 Bft) S-SO 148 ° 0 min 0,000 mm 0,8 UV-I 192 W/m² 7,2 °C 9,4 °C 0,0 km/h (0 Bft)
10.07.2019 07:24 9,5 °C 85 % 1016,7 hPa 0,0 mm 0,0 km/h (0 Bft) SO 136 ° 0 min 0,000 mm 0,8 UV-I 200 W/m² 7,1 °C 9,5 °C 0,0 km/h (0 Bft)
10.07.2019 07:25 9,5 °C 85 % 1016,6 hPa 0,0 mm 0,0 km/h (0 Bft) SO 136 ° 0 min 0,000 mm 0,9 UV-I 207 W/m² 7,1 °C 9,5 °C 0,0 km/h (0 Bft)
10.07.2019 07:26 9,5 °C 85 % 1016,6 hPa 0,0 mm 0,0 km/h (0 Bft) SO 136 ° 0 min 0,000 mm 0,9 UV-I 220 W/m² 7,1 °C 9,5 °C 0,0 km/h (0 Bft)
10.07.2019 07:27 9,4 °C 85 % 1016,6 hPa 0,0 mm 0,0 km/h (0 Bft) SO 136 ° 0 min 0,000 mm 0,9 UV-I 202 W/m² 7,0 °C 9,4 °C 0,0 km/h (0 Bft)
10.07.2019 07:28 9,6 °C 85 % 1016,6 hPa 0,0 mm 0,0 km/h (0 Bft) NO 39 ° 0 min 0,000 mm 0,9 UV-I 213 W/m² 7,2 °C 9,6 °C 0,0 km/h (0 Bft)
10.07.2019 07:29 9,7 °C 82 % 1016,6 hPa 0,0 mm 0,0 km/h (0 Bft) NO 54 ° 0 min 0,000 mm 0,9 UV-I 218 W/m² 6,8 °C 9,7 °C 0,0 km/h (0 Bft)
10.07.2019 07:30 9,8 °C 81 % 1016,6 hPa 0,0 mm 0,0 km/h (0 Bft) NO 54 ° 0 min 0,000 mm 0,9 UV-I 227 W/m² 6,7 °C 9,8 °C 0,0 km/h (0 Bft)
10.07.2019 07:31 9,9 °C 81 % 1016,6 hPa 0,0 mm 0,0 km/h (0 Bft) NO 54 ° 0 min 0,000 mm 1,0 UV-I 234 W/m² 6,8 °C 9,9 °C 0,0 km/h (0 Bft)
10.07.2019 07:32 9,9 °C 82 % 1016,6 hPa 0,0 mm 0,9 km/h (0 Bft) NO 51 ° 0 min 0,000 mm 1,0 UV-I 243 W/m² 7,0 °C 9,9 °C 4,8 km/h (1 Bft)
10.07.2019 07:33 9,9 °C 81 % 1016,6 hPa 0,0 mm 3,3 km/h (1 Bft) NO 42 ° 0 min 0,000 mm 1,0 UV-I 244 W/m² 6,8 °C 9,9 °C 4,8 km/h (1 Bft)
10.07.2019 07:34 10,0 °C 82 % 1016,6 hPa 0,0 mm 4,1 km/h (1 Bft) NO 42 ° 0 min 0,000 mm 1,0 UV-I 243 W/m² 7,1 °C 10,0 °C 6,4 km/h (2 Bft)
10.07.2019 07:35 10,2 °C 78 % 1016,6 hPa 0,0 mm 5,0 km/h (1 Bft) N-NO 28 ° 0 min 0,000 mm 1,0 UV-I 248 W/m² 6,5 °C 10,2 °C 6,4 km/h (2 Bft)
10.07.2019 07:36 10,3 °C 79 % 1016,6 hPa 0,0 mm 1,1 km/h (1 Bft) N-NO 28 ° 0 min 0,000 mm 1,0 UV-I 244 W/m² 6,8 °C 10,3 °C 3,2 km/h (1 Bft)
10.07.2019 07:37 10,4 °C 78 % 1016,6 hPa 0,0 mm 3,6 km/h (1 Bft) N-NO 32 ° 0 min 0,000 mm 1,1 UV-I 251 W/m² 6,7 °C 10,4 °C 4,8 km/h (1 Bft)
10.07.2019 07:38 10,4 °C 77 % 1016,6 hPa 0,0 mm 1,9 km/h (1 Bft) N-NO 33 ° 0 min 0,000 mm 1,1 UV-I 248 W/m² 6,5 °C 10,4 °C 3,2 km/h (1 Bft)
10.07.2019 07:39 10,3 °C 79 % 1016,6 hPa 0,0 mm 2,3 km/h (1 Bft) N-NO 33 ° 0 min 0,000 mm 1,1 UV-I 258 W/m² 6,8 °C 10,3 °C 3,2 km/h (1 Bft)
10.07.2019 07:40 10,3 °C 77 % 1016,6 hPa 0,0 mm 2,7 km/h (1 Bft) O-NO 61 ° 0 min 0,000 mm 1,1 UV-I 257 W/m² 6,4 °C 10,3 °C 4,8 km/h (1 Bft)
10.07.2019 07:41 10,4 °C 76 % 1016,6 hPa 0,0 mm 0,2 km/h (0 Bft) O-NO 61 ° 0 min 0,000 mm 1,1 UV-I 260 W/m² 6,4 °C 10,4 °C 3,2 km/h (1 Bft)
10.07.2019 07:42 10,4 °C 75 % 1016,6 hPa 0,0 mm 3,2 km/h (1 Bft) O-NO 61 ° 0 min 0,000 mm 1,1 UV-I 262 W/m² 6,2 °C 10,4 °C 4,8 km/h (1 Bft)
10.07.2019 07:43 10,4 °C 74 % 1016,6 hPa 0,0 mm 1,6 km/h (1 Bft) O-NO 61 ° 0 min 0,000 mm 1,1 UV-I 260 W/m² 6,0 °C 10,4 °C 4,8 km/h (1 Bft)
10.07.2019 07:44 10,4 °C 75 % 1016,6 hPa 0,0 mm 3,2 km/h (1 Bft) NO 48 ° 0 min 0,000 mm 1,1 UV-I 269 W/m² 6,2 °C 10,4 °C 4,8 km/h (1 Bft)
10.07.2019 07:45 10,4 °C 74 % 1016,6 hPa 0,0 mm 0,1 km/h (0 Bft) NO 48 ° 0 min 0,000 mm 1,2 UV-I 274 W/m² 6,0 °C 10,4 °C 1,6 km/h (1 Bft)
10.07.2019 07:46 10,5 °C 75 % 1016,6 hPa 0,0 mm 0,3 km/h (0 Bft) NO 48 ° 0 min 0,000 mm 1,2 UV-I 278 W/m² 6,3 °C 10,5 °C 1,6 km/h (1 Bft)
10.07.2019 07:47 10,6 °C 75 % 1016,6 hPa 0,0 mm 3,5 km/h (1 Bft) NO 38 ° 0 min 0,000 mm 1,2 UV-I 279 W/m² 6,4 °C 10,6 °C 4,8 km/h (1 Bft)
10.07.2019 07:48 10,6 °C 75 % 1016,6 hPa 0,0 mm 3,6 km/h (1 Bft) NO 38 ° 0 min 0,000 mm 1,2 UV-I 278 W/m² 6,4 °C 10,6 °C 4,8 km/h (1 Bft)
10.07.2019 07:49 10,6 °C 74 % 1016,6 hPa 0,0 mm 3,2 km/h (1 Bft) NO 44 ° 0 min 0,000 mm 1,2 UV-I 272 W/m² 6,2 °C 10,6 °C 4,8 km/h (1 Bft)
10.07.2019 07:50 10,6 °C 75 % 1016,7 hPa 0,0 mm 2,9 km/h (1 Bft) NO 45 ° 0 min 0,000 mm 1,3 UV-I 288 W/m² 6,4 °C 10,6 °C 4,8 km/h (1 Bft)
10.07.2019 07:51 10,7 °C 75 % 1016,7 hPa 0,0 mm 1,9 km/h (1 Bft) NO 45 ° 0 min 0,000 mm 1,3 UV-I 290 W/m² 6,5 °C 10,7 °C 4,8 km/h (1 Bft)
10.07.2019 07:52 10,7 °C 75 % 1016,6 hPa 0,0 mm 0,6 km/h (0 Bft) NO 45 ° 0 min 0,000 mm 1,3 UV-I 292 W/m² 6,5 °C 10,7 °C 3,2 km/h (1 Bft)
10.07.2019 07:53 10,8 °C 75 % 1016,7 hPa 0,0 mm 0,1 km/h (0 Bft) NO 45 ° 0 min 0,000 mm 1,3 UV-I 297 W/m² 6,5 °C 10,8 °C 1,6 km/h (1 Bft)
10.07.2019 07:54 10,8 °C 77 % 1016,7 hPa 0,0 mm 0,0 km/h (0 Bft) NO 45 ° 0 min 0,000 mm 1,3 UV-I 295 W/m² 6,9 °C 10,8 °C 0,0 km/h (0 Bft)
10.07.2019 07:55 10,9 °C 79 % 1016,7 hPa 0,0 mm 1,3 km/h (1 Bft) N-NO 18 ° 0 min 0,000 mm 1,3 UV-I 299 W/m² 7,4 °C 10,9 °C 3,2 km/h (1 Bft)
10.07.2019 07:56 10,9 °C 77 % 1016,7 hPa 0,0 mm 2,1 km/h (1 Bft) N-NO 17 ° 0 min 0,000 mm 1,3 UV-I 302 W/m² 7,0 °C 10,9 °C 4,8 km/h (1 Bft)
10.07.2019 07:57 10,9 °C 76 % 1016,7 hPa 0,0 mm 4,9 km/h (1 Bft) NO 42 ° 0 min 0,000 mm 1,4 UV-I 295 W/m² 6,8 °C 10,9 °C 6,4 km/h (2 Bft)
10.07.2019 07:58 10,9 °C 76 % 1016,7 hPa 0,0 mm 4,3 km/h (1 Bft) N 355 ° 0 min 0,000 mm 1,4 UV-I 299 W/m² 6,8 °C 10,9 °C 6,4 km/h (2 Bft)
10.07.2019 07:59 10,9 °C 74 % 1016,7 hPa 0,0 mm 2,0 km/h (1 Bft) N-NO 28 ° 0 min 0,000 mm 1,4 UV-I 311 W/m² 6,5 °C 10,9 °C 4,8 km/h (1 Bft)
10.07.2019 08:00 10,9 °C 75 % 1016,7 hPa 0,0 mm 2,3 km/h (1 Bft) NO 38 ° 0 min 0,102 mm 1,4 UV-I 320 W/m² 6,6 °C 10,9 °C 4,8 km/h (1 Bft)
10.07.2019 08:01 10,9 °C 76 % 1016,7 hPa 0,0 mm 0,0 km/h (0 Bft) NO 38 ° 0 min 0,000 mm 1,4 UV-I 318 W/m² 6,8 °C 10,9 °C 0,0 km/h (0 Bft)
10.07.2019 08:02 10,9 °C 76 % 1016,7 hPa 0,0 mm 0,0 km/h (0 Bft) NO 38 ° 0 min 0,000 mm 1,5 UV-I 322 W/m² 6,8 °C 10,9 °C 0,0 km/h (0 Bft)
10.07.2019 08:03 11,0 °C 76 % 1016,7 hPa 0,0 mm 0,0 km/h (0 Bft) O 95 ° 0 min 0,000 mm 1,5 UV-I 329 W/m² 6,9 °C 11,0 °C 0,0 km/h (0 Bft)
10.07.2019 08:04 10,9 °C 75 % 1016,8 hPa 0,0 mm 0,0 km/h (0 Bft) O 101 ° 0 min 0,000 mm 1,5 UV-I 334 W/m² 6,6 °C 10,9 °C 0,0 km/h (0 Bft)
10.07.2019 08:05 10,9 °C 75 % 1016,8 hPa 0,0 mm 3,4 km/h (1 Bft) SO 126 ° 0 min 0,000 mm 1,5 UV-I 336 W/m² 6,6 °C 10,9 °C 6,4 km/h (2 Bft)
10.07.2019 08:06 10,9 °C 75 % 1016,8 hPa 0,0 mm 0,2 km/h (0 Bft) SO 126 ° 0 min 0,000 mm 1,5 UV-I 338 W/m² 6,6 °C 10,9 °C 1,6 km/h (1 Bft)
10.07.2019 08:07 10,9 °C 74 % 1016,8 hPa 0,0 mm 0,0 km/h (0 Bft) O-SO 111 ° 0 min 0,000 mm 1,5 UV-I 341 W/m² 6,5 °C 10,9 °C 0,0 km/h (0 Bft)
10.07.2019 08:08 10,9 °C 76 % 1016,8 hPa 0,0 mm 2,5 km/h (1 Bft) O-NO 76 ° 0 min 0,000 mm 1,6 UV-I 341 W/m² 6,8 °C 10,9 °C 3,2 km/h (1 Bft)
10.07.2019 08:09 10,9 °C 75 % 1016,8 hPa 0,0 mm 3,2 km/h (1 Bft) O-NO 77 ° 0 min 0,000 mm 1,6 UV-I 345 W/m² 6,6 °C 10,9 °C 4,8 km/h (1 Bft)
10.07.2019 08:10 10,9 °C 75 % 1016,8 hPa 0,0 mm 2,8 km/h (1 Bft) O-NO 78 ° 0 min 0,000 mm 1,6 UV-I 348 W/m² 6,6 °C 10,9 °C 3,2 km/h (1 Bft)
10.07.2019 08:11 10,9 °C 75 % 1016,8 hPa 0,0 mm 2,9 km/h (1 Bft) O 87 ° 0 min 0,000 mm 1,6 UV-I 353 W/m² 6,6 °C 10,9 °C 4,8 km/h (1 Bft)
10.07.2019 08:12 11,0 °C 76 % 1016,8 hPa 0,0 mm 0,0 km/h (0 Bft) O-NO 69 ° 0 min 0,000 mm 1,6 UV-I 357 W/m² 6,9 °C 11,0 °C 0,0 km/h (0 Bft)
10.07.2019 08:13 11,2 °C 78 % 1016,8 hPa 0,0 mm 0,0 km/h (0 Bft) N 9 ° 0 min 0,000 mm 1,7 UV-I 364 W/m² 7,5 °C 11,2 °C 0,0 km/h (0 Bft)
10.07.2019 08:14 11,3 °C 77 % 1016,8 hPa 0,0 mm 0,0 km/h (0 Bft) N 9 ° 0 min 0,000 mm 1,7 UV-I 366 W/m² 7,4 °C 11,3 °C 0,0 km/h (0 Bft)
10.07.2019 08:15 11,4 °C 77 % 1016,8 hPa 0,0 mm 0,0 km/h (0 Bft) N 9 ° 0 min 0,000 mm 1,7 UV-I 369 W/m² 7,5 °C 11,4 °C 0,0 km/h (0 Bft)
10.07.2019 08:16 11,3 °C 75 % 1016,8 hPa 0,0 mm 1,3 km/h (1 Bft) O-NO 67 ° 0 min 0,000 mm 1,7 UV-I 371 W/m² 7,0 °C 11,3 °C 4,8 km/h (1 Bft)
10.07.2019 08:17 11,3 °C 75 % 1016,8 hPa 0,0 mm 1,5 km/h (1 Bft) O-NO 67 ° 0 min 0,000 mm 1,8 UV-I 373 W/m² 7,0 °C 11,3 °C 3,2 km/h (1 Bft)
10.07.2019 08:18 11,3 °C 74 % 1016,8 hPa 0,0 mm 0,3 km/h (0 Bft) O-NO 67 ° 0 min 0,000 mm 1,8 UV-I 374 W/m² 6,8 °C 11,3 °C 1,6 km/h (1 Bft)
10.07.2019 08:19 11,4 °C 75 % 1016,8 hPa 0,0 mm 1,0 km/h (0 Bft) O 81 ° 0 min 0,000 mm 1,8 UV-I 380 W/m² 7,1 °C 11,4 °C 3,2 km/h (1 Bft)
10.07.2019 08:20 11,4 °C 76 % 1016,8 hPa 0,0 mm 1,7 km/h (1 Bft) O 81 ° 0 min 0,000 mm 1,8 UV-I 383 W/m² 7,3 °C 11,4 °C 3,2 km/h (1 Bft)
10.07.2019 08:21 11,4 °C 77 % 1016,8 hPa 0,0 mm 0,1 km/h (0 Bft) O 81 ° 0 min 0,000 mm 1,8 UV-I 385 W/m² 7,5 °C 11,4 °C 1,6 km/h (1 Bft)
10.07.2019 08:22 11,5 °C 77 % 1016,8 hPa 0,0 mm 0,4 km/h (0 Bft) O 81 ° 0 min 0,000 mm 1,9 UV-I 385 W/m² 7,6 °C 11,5 °C 1,6 km/h (1 Bft)
10.07.2019 08:23 11,6 °C 79 % 1016,8 hPa 0,0 mm 1,9 km/h (1 Bft) O-NO 67 ° 0 min 0,000 mm 1,9 UV-I 385 W/m² 8,1 °C 11,6 °C 3,2 km/h (1 Bft)
10.07.2019 08:24 11,7 °C 78 % 1016,8 hPa 0,0 mm 2,8 km/h (1 Bft) N-NO 28 ° 0 min 0,000 mm 1,9 UV-I 392 W/m² 8,0 °C 11,7 °C 6,4 km/h (2 Bft)
10.07.2019 08:25 11,7 °C 76 % 1016,8 hPa 0,0 mm 2,5 km/h (1 Bft) N-NO 25 ° 0 min 0,000 mm 1,9 UV-I 392 W/m² 7,6 °C 11,7 °C 3,2 km/h (1 Bft)
10.07.2019 08:26 11,8 °C 75 % 1016,8 hPa 0,0 mm 0,7 km/h (0 Bft) N-NO 25 ° 0 min 0,000 mm 2,0 UV-I 401 W/m² 7,5 °C 11,8 °C 3,2 km/h (1 Bft)
10.07.2019 08:27 11,8 °C 75 % 1016,8 hPa 0,0 mm 1,4 km/h (1 Bft) N-NO 26 ° 0 min 0,000 mm 2,0 UV-I 406 W/m² 7,5 °C 11,8 °C 3,2 km/h (1 Bft)
10.07.2019 08:28 11,8 °C 75 % 1016,8 hPa 0,0 mm 0,1 km/h (0 Bft) N-NO 26 ° 0 min 0,000 mm 2,0 UV-I 410 W/m² 7,5 °C 11,8 °C 1,6 km/h (1 Bft)
10.07.2019 08:29 11,9 °C 75 % 1016,8 hPa 0,0 mm 0,0 km/h (0 Bft) N-NW 343 ° 0 min 0,000 mm 2,0 UV-I 410 W/m² 7,6 °C 11,9 °C 0,0 km/h (0 Bft)
10.07.2019 08:30 12,0 °C 75 % 1016,8 hPa 0,0 mm 0,0 km/h (0 Bft) N-NW 344 ° 0 min 0,000 mm 2,0 UV-I 411 W/m² 7,7 °C 12,0 °C 0,0 km/h (0 Bft)
10.07.2019 08:31 12,1 °C 75 % 1016,8 hPa 0,0 mm 3,4 km/h (1 Bft) O-NO 57 ° 0 min 0,000 mm 2,1 UV-I 417 W/m² 7,8 °C 12,1 °C 4,8 km/h (1 Bft)
10.07.2019 08:32 12,0 °C 72 % 1016,7 hPa 0,0 mm 1,0 km/h (0 Bft) O-NO 57 ° 0 min 0,000 mm 2,1 UV-I 415 W/m² 7,1 °C 12,0 °C 4,8 km/h (1 Bft)
10.07.2019 08:33 11,9 °C 72 % 1016,8 hPa 0,0 mm 3,0 km/h (1 Bft) N 355 ° 0 min 0,000 mm 2,1 UV-I 420 W/m² 7,0 °C 11,9 °C 4,8 km/h (1 Bft)
10.07.2019 08:34 12,1 °C 73 % 1016,8 hPa 0,0 mm 3,9 km/h (1 Bft) NW 325 ° 0 min 0,000 mm 2,1 UV-I 415 W/m² 7,4 °C 12,1 °C 6,4 km/h (2 Bft)
10.07.2019 08:35 12,2 °C 74 % 1016,8 hPa 0,0 mm 5,9 km/h (2 Bft) N-NO 19 ° 0 min 0,000 mm 2,1 UV-I 413 W/m² 7,7 °C 12,2 °C 8,0 km/h (2 Bft)
10.07.2019 08:36 12,2 °C 74 % 1016,8 hPa 0,0 mm 4,8 km/h (1 Bft) N-NO 17 ° 0 min 0,000 mm 2,1 UV-I 413 W/m² 7,7 °C 12,2 °C 6,4 km/h (2 Bft)
10.07.2019 08:37 12,2 °C 73 % 1016,8 hPa 0,0 mm 3,1 km/h (1 Bft) N-NO 25 ° 0 min 0,000 mm 2,1 UV-I 418 W/m² 7,5 °C 12,2 °C 6,4 km/h (2 Bft)
10.07.2019 08:38 12,3 °C 73 % 1016,9 hPa 0,0 mm 1,9 km/h (1 Bft) NO 45 ° 0 min 0,000 mm 2,2 UV-I 415 W/m² 7,6 °C 12,3 °C 3,2 km/h (1 Bft)
10.07.2019 08:39 12,3 °C 73 % 1016,9 hPa 0,0 mm 3,8 km/h (1 Bft) O-NO 65 ° 0 min 0,000 mm 2,2 UV-I 427 W/m² 7,6 °C 12,3 °C 8,0 km/h (2 Bft)
10.07.2019 08:40 12,3 °C 70 % 1016,9 hPa 0,0 mm 1,7 km/h (1 Bft) O-NO 75 ° 0 min 0,000 mm 2,2 UV-I 427 W/m² 7,0 °C 12,3 °C 4,8 km/h (1 Bft)
10.07.2019 08:41 12,2 °C 71 % 1016,9 hPa 0,0 mm 2,2 km/h (1 Bft) S-SO 155 ° 0 min 0,000 mm 2,2 UV-I 431 W/m² 7,1 °C 12,2 °C 6,4 km/h (2 Bft)
10.07.2019 08:42 12,2 °C 70 % 1016,9 hPa 0,0 mm 3,6 km/h (1 Bft) O 80 ° 0 min 0,000 mm 2,3 UV-I 454 W/m² 6,9 °C 12,2 °C 6,4 km/h (2 Bft)
10.07.2019 08:43 12,2 °C 72 % 1016,9 hPa 0,0 mm 3,3 km/h (1 Bft) O 91 ° 0 min 0,000 mm 2,3 UV-I 454 W/m² 7,3 °C 12,2 °C 4,8 km/h (1 Bft)
10.07.2019 08:44 12,2 °C 74 % 1016,9 hPa 0,0 mm 1,9 km/h (1 Bft) O-NO 72 ° 0 min 0,000 mm 2,3 UV-I 457 W/m² 7,7 °C 12,2 °C 4,8 km/h (1 Bft)
10.07.2019 08:45 12,2 °C 73 % 1016,9 hPa 0,0 mm 1,9 km/h (1 Bft) O-NO 66 ° 0 min 0,000 mm 2,3 UV-I 468 W/m² 7,5 °C 12,2 °C 4,8 km/h (1 Bft)
10.07.2019 08:46 12,3 °C 74 % 1016,9 hPa 0,0 mm 1,7 km/h (1 Bft) O-NO 59 ° 0 min 0,000 mm 2,3 UV-I 454 W/m² 7,8 °C 12,3 °C 4,8 km/h (1 Bft)
10.07.2019 08:47 12,3 °C 74 % 1016,9 hPa 0,0 mm 3,8 km/h (1 Bft) O-NO 69 ° 0 min 0,000 mm 2,3 UV-I 408 W/m² 7,8 °C 12,3 °C 9,7 km/h (2 Bft)
10.07.2019 08:48 12,4 °C 73 % 1016,9 hPa 0,0 mm 7,6 km/h (2 Bft) O-NO 65 ° 0 min 0,000 mm 2,2 UV-I 403 W/m² 7,7 °C 12,4 °C 12,9 km/h (3 Bft)
10.07.2019 08:49 12,4 °C 71 % 1017,0 hPa 0,0 mm 7,0 km/h (2 Bft) NO 55 ° 0 min 0,000 mm 2,3 UV-I 434 W/m² 7,3 °C 12,4 °C 11,3 km/h (2 Bft)
10.07.2019 08:50 12,4 °C 71 % 1017,0 hPa 0,0 mm 4,4 km/h (1 Bft) NO 44 ° 0 min 0,000 mm 2,3 UV-I 415 W/m² 7,3 °C 12,4 °C 6,4 km/h (2 Bft)
10.07.2019 08:51 12,4 °C 71 % 1017,0 hPa 0,0 mm 5,1 km/h (1 Bft) O-NO 64 ° 0 min 0,000 mm 2,3 UV-I 388 W/m² 7,3 °C 12,4 °C 8,0 km/h (2 Bft)
10.07.2019 08:52 12,4 °C 71 % 1017,0 hPa 0,0 mm 3,4 km/h (1 Bft) NO 34 ° 0 min 0,000 mm 2,4 UV-I 439 W/m² 7,3 °C 12,4 °C 4,8 km/h (1 Bft)
10.07.2019 08:53 12,4 °C 72 % 1017,0 hPa 0,0 mm 3,7 km/h (1 Bft) O 80 ° 0 min 0,000 mm 2,5 UV-I 464 W/m² 7,5 °C 12,4 °C 6,4 km/h (2 Bft)
10.07.2019 08:54 12,4 °C 71 % 1017,0 hPa 0,0 mm 5,4 km/h (1 Bft) N-NO 28 ° 0 min 0,000 mm 2,4 UV-I 462 W/m² 7,3 °C 12,4 °C 8,0 km/h (2 Bft)
10.07.2019 08:55 12,4 °C 72 % 1017,0 hPa 0,0 mm 8,8 km/h (2 Bft) N-NW 346 ° 0 min 0,000 mm 2,3 UV-I 420 W/m² 7,5 °C 12,4 °C 12,9 km/h (3 Bft)
10.07.2019 08:56 12,4 °C 70 % 1017,0 hPa 0,0 mm 5,9 km/h (2 Bft) O 84 ° 0 min 0,000 mm 2,2 UV-I 339 W/m² 7,1 °C 12,4 °C 11,3 km/h (2 Bft)
10.07.2019 08:57 12,4 °C 72 % 1017,0 hPa 0,0 mm 4,4 km/h (1 Bft) NO 55 ° 0 min 0,000 mm 2,2 UV-I 322 W/m² 7,5 °C 12,4 °C 6,4 km/h (2 Bft)
10.07.2019 08:58 12,4 °C 71 % 1017,0 hPa 0,0 mm 6,0 km/h (2 Bft) O 84 ° 0 min 0,000 mm 2,1 UV-I 330 W/m² 7,3 °C 12,4 °C 8,0 km/h (2 Bft)
10.07.2019 08:59 12,3 °C 72 % 1017,0 hPa 0,0 mm 3,6 km/h (1 Bft) O-SO 122 ° 0 min 0,000 mm 2,1 UV-I 318 W/m² 7,4 °C 12,3 °C 6,4 km/h (2 Bft)
10.07.2019 09:00 12,2 °C 71 % 1017,0 hPa 0,0 mm 4,2 km/h (1 Bft) NO 55 ° 0 min 0,203 mm 2,2 UV-I 376 W/m² 7,1 °C 12,2 °C 6,4 km/h (2 Bft)
10.07.2019 09:01 12,2 °C 72 % 1017,0 hPa 0,0 mm 3,1 km/h (1 Bft) O 91 ° 0 min 0,000 mm 2,2 UV-I 376 W/m² 7,3 °C 12,2 °C 9,7 km/h (2 Bft)
10.07.2019 09:02 12,1 °C 72 % 1017,0 hPa 0,0 mm 5,3 km/h (1 Bft) O 91 ° 0 min 0,000 mm 2,2 UV-I 415 W/m² 7,2 °C 12,1 °C 11,3 km/h (2 Bft)
10.07.2019 09:03 12,0 °C 71 % 1017,1 hPa 0,0 mm 6,2 km/h (2 Bft) O-NO 68 ° 0 min 0,000 mm 2,4 UV-I 455 W/m² 6,9 °C 12,0 °C 12,9 km/h (3 Bft)
10.07.2019 09:04 12,0 °C 70 % 1017,0 hPa 0,0 mm 7,1 km/h (2 Bft) O-NO 61 ° 0 min 0,000 mm 2,5 UV-I 448 W/m² 6,7 °C 12,0 °C 11,3 km/h (2 Bft)
10.07.2019 09:05 12,1 °C 71 % 1017,1 hPa 0,0 mm 7,7 km/h (2 Bft) N-NO 32 ° 0 min 0,000 mm 2,5 UV-I 531 W/m² 7,0 °C 12,1 °C 12,9 km/h (3 Bft)
10.07.2019 09:06 12,1 °C 70 % 1017,1 hPa 0,0 mm 6,5 km/h (2 Bft) NO 38 ° 0 min 0,000 mm 2,6 UV-I 508 W/m² 6,8 °C 12,1 °C 8,0 km/h (2 Bft)
10.07.2019 09:07 12,1 °C 69 % 1017,1 hPa 0,0 mm 7,0 km/h (2 Bft) N-NO 32 ° 0 min 0,000 mm 2,4 UV-I 436 W/m² 6,6 °C 12,1 °C 9,7 km/h (2 Bft)
10.07.2019 09:08 12,1 °C 70 % 1017,1 hPa 0,0 mm 4,8 km/h (1 Bft) NO 54 ° 0 min 0,000 mm 2,3 UV-I 396 W/m² 6,8 °C 12,1 °C 6,4 km/h (2 Bft)
10.07.2019 09:09 12,2 °C 72 % 1017,1 hPa 0,0 mm 4,4 km/h (1 Bft) NO 38 ° 0 min 0,000 mm 2,3 UV-I 374 W/m² 7,3 °C 12,2 °C 8,0 km/h (2 Bft)
10.07.2019 09:10 12,2 °C 70 % 1017,1 hPa 0,0 mm 3,3 km/h (1 Bft) NO 49 ° 0 min 0,000 mm 2,3 UV-I 380 W/m² 6,9 °C 12,2 °C 6,4 km/h (2 Bft)
10.07.2019 09:11 12,2 °C 71 % 1017,1 hPa 0,0 mm 1,7 km/h (1 Bft) NO 53 ° 0 min 0,000 mm 2,4 UV-I 396 W/m² 7,1 °C 12,2 °C 4,8 km/h (1 Bft)
10.07.2019 09:12 12,2 °C 72 % 1017,1 hPa 0,0 mm 4,6 km/h (1 Bft) NO 47 ° 0 min 0,000 mm 2,3 UV-I 355 W/m² 7,3 °C 12,2 °C 8,0 km/h (2 Bft)
10.07.2019 09:13 12,3 °C 70 % 1017,1 hPa 0,0 mm 4,9 km/h (1 Bft) NO 51 ° 0 min 0,000 mm 2,6 UV-I 355 W/m² 7,0 °C 12,3 °C 6,4 km/h (2 Bft)
10.07.2019 09:14 12,3 °C 69 % 1017,1 hPa 0,0 mm 2,7 km/h (1 Bft) NO 37 ° 0 min 0,000 mm 2,6 UV-I 399 W/m² 6,8 °C 12,3 °C 4,8 km/h (1 Bft)
10.07.2019 09:15 12,3 °C 68 % 1017,2 hPa 0,0 mm 0,6 km/h (0 Bft) NO 55 ° 0 min 0,000 mm 2,9 UV-I 399 W/m² 6,6 °C 12,3 °C 3,2 km/h (1 Bft)
10.07.2019 09:16 12,3 °C 69 % 1017,2 hPa 0,0 mm 4,3 km/h (1 Bft) NO 36 ° 0 min 0,000 mm 2,8 UV-I 513 W/m² 6,8 °C 12,3 °C 6,4 km/h (2 Bft)
10.07.2019 09:17 12,3 °C 69 % 1017,1 hPa 0,0 mm 5,6 km/h (1 Bft) O-NO 71 ° 0 min 0,000 mm 2,7 UV-I 462 W/m² 6,8 °C 12,3 °C 9,7 km/h (2 Bft)
10.07.2019 09:18 12,4 °C 69 % 1017,1 hPa 0,0 mm 7,4 km/h (2 Bft) O 80 ° 0 min 0,000 mm 2,8 UV-I 545 W/m² 6,9 °C 12,4 °C 11,3 km/h (2 Bft)
10.07.2019 09:19 12,3 °C 69 % 1017,1 hPa 0,0 mm 1,5 km/h (1 Bft) O 84 ° 0 min 0,000 mm 2,8 UV-I 545 W/m² 6,8 °C 12,3 °C 6,4 km/h (2 Bft)
10.07.2019 09:20 12,3 °C 68 % 1017,1 hPa 0,0 mm 1,3 km/h (1 Bft) NO 56 ° 1 min 0,000 mm 3,0 UV-I 601 W/m² 6,6 °C 12,3 °C 4,8 km/h (1 Bft)
10.07.2019 09:21 12,4 °C 68 % 1017,2 hPa 0,0 mm 1,9 km/h (1 Bft) O-SO 105 ° 0 min 0,000 mm 3,0 UV-I 543 W/m² 6,7 °C 12,4 °C 4,8 km/h (1 Bft)
10.07.2019 09:22 12,5 °C 71 % 1017,2 hPa 0,0 mm 2,1 km/h (1 Bft) O 82 ° 0 min 0,000 mm 3,1 UV-I 568 W/m² 7,4 °C 12,5 °C 3,2 km/h (1 Bft)
10.07.2019 09:23 12,6 °C 69 % 1017,2 hPa 0,0 mm 2,0 km/h (1 Bft) O 84 ° 1 min 0,000 mm 3,1 UV-I 647 W/m² 7,1 °C 12,6 °C 3,2 km/h (1 Bft)
10.07.2019 09:24 12,7 °C 69 % 1017,1 hPa 0,0 mm 1,1 km/h (1 Bft) O 82 ° 1 min 0,000 mm 2,5 UV-I 647 W/m² 7,2 °C 12,7 °C 3,2 km/h (1 Bft)
10.07.2019 09:25 12,7 °C 67 % 1017,1 hPa 0,0 mm 2,9 km/h (1 Bft) O 80 ° 0 min 0,000 mm 2,4 UV-I 332 W/m² 6,7 °C 12,7 °C 8,0 km/h (2 Bft)
10.07.2019 09:26 12,6 °C 68 % 1017,1 hPa 0,0 mm 3,2 km/h (1 Bft) O-NO 67 ° 0 min 0,000 mm 2,4 UV-I 318 W/m² 6,9 °C 12,6 °C 6,4 km/h (2 Bft)
10.07.2019 09:27 12,6 °C 70 % 1017,1 hPa 0,0 mm 3,8 km/h (1 Bft) O-NO 78 ° 0 min 0,000 mm 2,4 UV-I 329 W/m² 7,3 °C 12,6 °C 6,4 km/h (2 Bft)
10.07.2019 09:28 12,6 °C 69 % 1017,1 hPa 0,0 mm 2,7 km/h (1 Bft) O 98 ° 0 min 0,000 mm 2,4 UV-I 313 W/m² 7,1 °C 12,6 °C 4,8 km/h (1 Bft)
10.07.2019 09:29 12,6 °C 70 % 1017,1 hPa 0,0 mm 3,6 km/h (1 Bft) NO 54 ° 0 min 0,000 mm 2,2 UV-I 292 W/m² 7,3 °C 12,6 °C 6,4 km/h (2 Bft)
10.07.2019 09:30 12,6 °C 70 % 1017,1 hPa 0,0 mm 2,7 km/h (1 Bft) O 91 ° 0 min 0,000 mm 2,2 UV-I 297 W/m² 7,3 °C 12,6 °C 6,4 km/h (2 Bft)
10.07.2019 09:31 12,6 °C 70 % 1017,1 hPa 0,0 mm 2,8 km/h (1 Bft) N 355 ° 0 min 0,000 mm 2,2 UV-I 294 W/m² 7,3 °C 12,6 °C 6,4 km/h (2 Bft)
10.07.2019 09:32 12,7 °C 69 % 1017,2 hPa 0,0 mm 3,5 km/h (1 Bft) N-NO 27 ° 0 min 0,000 mm 2,2 UV-I 297 W/m² 7,2 °C 12,7 °C 6,4 km/h (2 Bft)
10.07.2019 09:33 12,7 °C 68 % 1017,2 hPa 0,0 mm 4,3 km/h (1 Bft) N-NO 29 ° 0 min 0,000 mm 2,2 UV-I 313 W/m² 6,9 °C 12,7 °C 6,4 km/h (2 Bft)
10.07.2019 09:34 12,7 °C 67 % 1017,2 hPa 0,0 mm 5,0 km/h (1 Bft) N-NW 348 ° 0 min 0,000 mm 2,3 UV-I 325 W/m² 6,7 °C 12,7 °C 6,4 km/h (2 Bft)
10.07.2019 09:35 12,8 °C 67 % 1017,2 hPa 0,0 mm 6,2 km/h (2 Bft) N 355 ° 0 min 0,000 mm 2,3 UV-I 325 W/m² 6,8 °C 12,8 °C 11,3 km/h (2 Bft)
10.07.2019 09:36 12,8 °C 67 % 1017,1 hPa 0,0 mm 4,4 km/h (1 Bft) N-NW 333 ° 0 min 0,000 mm 2,4 UV-I 346 W/m² 6,8 °C 12,8 °C 6,4 km/h (2 Bft)
10.07.2019 09:37 12,8 °C 67 % 1017,1 hPa 0,0 mm 1,1 km/h (1 Bft) O-SO 117 ° 0 min 0,000 mm 2,5 UV-I 346 W/m² 6,8 °C 12,8 °C 1,6 km/h (1 Bft)
10.07.2019 09:38 12,7 °C 66 % 1017,1 hPa 0,0 mm 3,4 km/h (1 Bft) NO 50 ° 0 min 0,000 mm 2,5 UV-I 401 W/m² 6,5 °C 12,7 °C 8,0 km/h (2 Bft)
10.07.2019 09:39 12,8 °C 67 % 1017,1 hPa 0,0 mm 2,6 km/h (1 Bft) NO 50 ° 0 min 0,000 mm 2,4 UV-I 364 W/m² 6,8 °C 12,8 °C 4,8 km/h (1 Bft)
10.07.2019 09:40 12,8 °C 67 % 1017,1 hPa 0,0 mm 0,8 km/h (0 Bft) NO 50 ° 0 min 0,000 mm 2,5 UV-I 366 W/m² 6,8 °C 12,8 °C 3,2 km/h (1 Bft)
10.07.2019 09:41 12,8 °C 67 % 1017,1 hPa 0,0 mm 1,9 km/h (1 Bft) O-NO 61 ° 0 min 0,000 mm 2,5 UV-I 345 W/m² 6,8 °C 12,8 °C 4,8 km/h (1 Bft)
10.07.2019 09:42 12,8 °C 67 % 1017,1 hPa 0,0 mm 3,7 km/h (1 Bft) O-NO 61 ° 0 min 0,000 mm 2,4 UV-I 355 W/m² 6,8 °C 12,8 °C 6,4 km/h (2 Bft)
10.07.2019 09:43 12,7 °C 67 % 1017,2 hPa 0,0 mm 0,9 km/h (0 Bft) O-NO 61 ° 0 min 0,000 mm 2,5 UV-I 366 W/m² 6,7 °C 12,7 °C 3,2 km/h (1 Bft)
10.07.2019 09:44 12,7 °C 66 % 1017,1 hPa 0,0 mm 0,0 km/h (0 Bft) O-NO 61 ° 0 min 0,000 mm 2,5 UV-I 367 W/m² 6,5 °C 12,7 °C 0,0 km/h (0 Bft)
10.07.2019 09:45 12,7 °C 67 % 1017,2 hPa 0,0 mm 0,3 km/h (0 Bft) O-NO 61 ° 0 min 0,000 mm 2,5 UV-I 373 W/m² 6,7 °C 12,7 °C 1,6 km/h (1 Bft)
10.07.2019 09:46 12,7 °C 67 % 1017,2 hPa 0,0 mm 1,9 km/h (1 Bft) N-NW 338 ° 0 min 0,000 mm 2,5 UV-I 381 W/m² 6,7 °C 12,7 °C 4,8 km/h (1 Bft)
10.07.2019 09:47 12,8 °C 68 % 1017,2 hPa 0,0 mm 2,3 km/h (1 Bft) N 355 ° 0 min 0,000 mm 2,5 UV-I 371 W/m² 7,0 °C 12,8 °C 4,8 km/h (1 Bft)
10.07.2019 09:48 12,9 °C 69 % 1017,1 hPa 0,0 mm 4,5 km/h (1 Bft) N 355 ° 0 min 0,000 mm 2,5 UV-I 371 W/m² 7,4 °C 12,9 °C 6,4 km/h (2 Bft)
10.07.2019 09:49 13,0 °C 70 % 1017,2 hPa 0,0 mm 2,9 km/h (1 Bft) N-NW 348 ° 0 min 0,000 mm 2,4 UV-I 355 W/m² 7,7 °C 13,0 °C 6,4 km/h (2 Bft)
10.07.2019 09:50 13,1 °C 66 % 1017,1 hPa 0,0 mm 2,7 km/h (1 Bft) O 81 ° 0 min 0,000 mm 2,4 UV-I 353 W/m² 6,9 °C 13,1 °C 6,4 km/h (2 Bft)
10.07.2019 09:51 13,1 °C 66 % 1017,1 hPa 0,0 mm 5,8 km/h (2 Bft) N 350 ° 0 min 0,000 mm 2,4 UV-I 353 W/m² 6,9 °C 13,1 °C 6,4 km/h (2 Bft)
10.07.2019 09:52 13,0 °C 66 % 1017,1 hPa 0,0 mm 6,5 km/h (2 Bft) N 5 ° 0 min 0,000 mm 2,4 UV-I 359 W/m² 6,8 °C 13,0 °C 8,0 km/h (2 Bft)
10.07.2019 09:53 13,1 °C 66 % 1017,1 hPa 0,0 mm 3,0 km/h (1 Bft) O-NO 74 ° 0 min 0,000 mm 2,4 UV-I 362 W/m² 6,9 °C 13,1 °C 11,3 km/h (2 Bft)
10.07.2019 09:54 13,1 °C 69 % 1017,1 hPa 0,0 mm 5,2 km/h (1 Bft) O-NO 69 ° 0 min 0,000 mm 2,5 UV-I 366 W/m² 7,5 °C 13,1 °C 8,0 km/h (2 Bft)
10.07.2019 09:55 13,1 °C 67 % 1017,1 hPa 0,0 mm 5,7 km/h (1 Bft) O-NO 61 ° 0 min 0,000 mm 2,5 UV-I 369 W/m² 7,1 °C 13,1 °C 8,0 km/h (2 Bft)
10.07.2019 09:56 13,1 °C 67 % 1017,1 hPa 0,0 mm 3,5 km/h (1 Bft) O-NO 66 ° 0 min 0,000 mm 2,5 UV-I 371 W/m² 7,1 °C 13,1 °C 6,4 km/h (2 Bft)
10.07.2019 09:57 13,1 °C 68 % 1017,1 hPa 0,0 mm 4,5 km/h (1 Bft) O-SO 105 ° 0 min 0,000 mm 2,6 UV-I 378 W/m² 7,3 °C 13,1 °C 6,4 km/h (2 Bft)
10.07.2019 09:58 13,1 °C 67 % 1017,0 hPa 0,0 mm 5,0 km/h (1 Bft) O 86 ° 0 min 0,000 mm 2,6 UV-I 387 W/m² 7,1 °C 13,1 °C 8,0 km/h (2 Bft)
10.07.2019 09:59 13,1 °C 67 % 1017,1 hPa 0,0 mm 6,4 km/h (2 Bft) O 88 ° 0 min 0,000 mm 2,6 UV-I 387 W/m² 7,1 °C 13,1 °C 11,3 km/h (2 Bft)
10.07.2019 10:00 13,1 °C 66 % 1017,1 hPa 0,0 mm 1,1 km/h (1 Bft) O-NO 61 ° 0 min 0,000 mm 2,6 UV-I 390 W/m² 6,9 °C 13,1 °C 4,8 km/h (1 Bft)
10.07.2019 10:01 13,1 °C 68 % 1017,0 hPa 0,0 mm 6,9 km/h (2 Bft) O 94 ° 0 min 0,203 mm 2,7 UV-I 396 W/m² 7,3 °C 13,1 °C 12,9 km/h (3 Bft)
10.07.2019 10:02 13,2 °C 67 % 1017,1 hPa 0,0 mm 9,2 km/h (2 Bft) O-NO 69 ° 0 min 0,000 mm 2,7 UV-I 397 W/m² 7,2 °C 13,2 °C 12,9 km/h (3 Bft)
10.07.2019 10:03 13,2 °C 67 % 1017,1 hPa 0,0 mm 4,6 km/h (1 Bft) O 88 ° 0 min 0,000 mm 2,7 UV-I 406 W/m² 7,2 °C 13,2 °C 8,0 km/h (2 Bft)
10.07.2019 10:04 13,2 °C 67 % 1017,1 hPa 0,0 mm 4,4 km/h (1 Bft) NO 49 ° 0 min 0,000 mm 2,6 UV-I 396 W/m² 7,2 °C 13,2 °C 6,4 km/h (2 Bft)
10.07.2019 10:05 13,2 °C 68 % 1017,1 hPa 0,0 mm 4,1 km/h (1 Bft) NO 44 ° 0 min 0,000 mm 2,7 UV-I 401 W/m² 7,4 °C 13,2 °C 6,4 km/h (2 Bft)
10.07.2019 10:06 13,3 °C 67 % 1017,0 hPa 0,0 mm 2,6 km/h (1 Bft) NO 42 ° 0 min 0,000 mm 2,7 UV-I 411 W/m² 7,3 °C 13,3 °C 8,0 km/h (2 Bft)
10.07.2019 10:07 13,3 °C 67 % 1017,0 hPa 0,0 mm 6,5 km/h (2 Bft) N-NO 14 ° 0 min 0,000 mm 3,0 UV-I 475 W/m² 7,3 °C 13,3 °C 11,3 km/h (2 Bft)
10.07.2019 10:08 13,4 °C 66 % 1017,0 hPa 0,0 mm 3,1 km/h (1 Bft) O-NO 76 ° 0 min 0,000 mm 3,0 UV-I 487 W/m² 7,2 °C 13,4 °C 4,8 km/h (1 Bft)
10.07.2019 10:09 13,4 °C 66 % 1017,0 hPa 0,0 mm 2,7 km/h (1 Bft) O-NO 68 ° 0 min 0,000 mm 2,8 UV-I 429 W/m² 7,2 °C 13,4 °C 6,4 km/h (2 Bft)
10.07.2019 10:10 13,4 °C 67 % 1017,0 hPa 0,0 mm 3,8 km/h (1 Bft) O-NO 59 ° 0 min 0,000 mm 2,9 UV-I 422 W/m² 7,4 °C 13,4 °C 6,4 km/h (2 Bft)
10.07.2019 10:11 13,5 °C 67 % 1017,0 hPa 0,0 mm 6,1 km/h (2 Bft) O-NO 57 ° 0 min 0,000 mm 2,9 UV-I 424 W/m² 7,5 °C 13,5 °C 9,7 km/h (2 Bft)
10.07.2019 10:12 13,4 °C 66 % 1017,0 hPa 0,0 mm 6,7 km/h (2 Bft) NO 41 ° 0 min 0,000 mm 3,0 UV-I 429 W/m² 7,2 °C 13,4 °C 11,3 km/h (2 Bft)
10.07.2019 10:13 13,4 °C 67 % 1017,0 hPa 0,0 mm 8,5 km/h (2 Bft) O-SO 109 ° 0 min 0,000 mm 3,3 UV-I 429 W/m² 7,4 °C 13,4 °C 14,5 km/h (3 Bft)
10.07.2019 10:14 13,4 °C 67 % 1017,0 hPa 0,0 mm 3,4 km/h (1 Bft) O 90 ° 0 min 0,000 mm 3,0 UV-I 429 W/m² 7,4 °C 13,4 °C 11,3 km/h (2 Bft)
10.07.2019 10:15 13,3 °C 67 % 1017,0 hPa 0,0 mm 4,2 km/h (1 Bft) O 86 ° 0 min 0,000 mm 2,9 UV-I 432 W/m² 7,3 °C 13,3 °C 9,7 km/h (2 Bft)
10.07.2019 10:16 13,3 °C 66 % 1017,0 hPa 0,0 mm 5,9 km/h (2 Bft) O-NO 63 ° 0 min 0,000 mm 2,9 UV-I 403 W/m² 7,1 °C 13,3 °C 8,0 km/h (2 Bft)
10.07.2019 10:17 13,3 °C 67 % 1017,0 hPa 0,0 mm 5,7 km/h (1 Bft) O-NO 76 ° 0 min 0,000 mm 3,0 UV-I 439 W/m² 7,3 °C 13,3 °C 6,4 km/h (2 Bft)
10.07.2019 10:18 13,3 °C 67 % 1017,1 hPa 0,0 mm 4,6 km/h (1 Bft) O-NO 64 ° 0 min 0,000 mm 2,9 UV-I 411 W/m² 7,3 °C 13,3 °C 8,0 km/h (2 Bft)
10.07.2019 10:19 13,3 °C 68 % 1017,1 hPa 0,0 mm 5,1 km/h (1 Bft) O-NO 77 ° 0 min 0,000 mm 3,0 UV-I 425 W/m² 7,5 °C 13,3 °C 6,4 km/h (2 Bft)
10.07.2019 10:20 13,3 °C 67 % 1017,1 hPa 0,0 mm 5,5 km/h (1 Bft) O 84 ° 0 min 0,000 mm 3,0 UV-I 432 W/m² 7,3 °C 13,3 °C 9,7 km/h (2 Bft)
10.07.2019 10:21 13,3 °C 68 % 1017,1 hPa 0,0 mm 5,3 km/h (1 Bft) O-NO 69 ° 0 min 0,000 mm 2,9 UV-I 441 W/m² 7,5 °C 13,3 °C 8,0 km/h (2 Bft)
10.07.2019 10:22 13,3 °C 68 % 1017,1 hPa 0,0 mm 6,4 km/h (2 Bft) O 83 ° 0 min 0,000 mm 3,0 UV-I 461 W/m² 7,5 °C 13,3 °C 9,7 km/h (2 Bft)
10.07.2019 10:23 13,4 °C 68 % 1017,1 hPa 0,0 mm 5,6 km/h (1 Bft) N-NO 29 ° 0 min 0,000 mm 3,0 UV-I 432 W/m² 7,6 °C 13,4 °C 9,7 km/h (2 Bft)
10.07.2019 10:24 13,3 °C 67 % 1017,1 hPa 0,0 mm 7,0 km/h (2 Bft) NO 34 ° 0 min 0,000 mm 3,0 UV-I 438 W/m² 7,3 °C 13,3 °C 14,5 km/h (3 Bft)
10.07.2019 10:25 13,4 °C 67 % 1017,1 hPa 0,0 mm 4,0 km/h (1 Bft) O-NO 71 ° 0 min 0,000 mm 3,0 UV-I 452 W/m² 7,4 °C 13,4 °C 6,4 km/h (2 Bft)
10.07.2019 10:26 13,4 °C 67 % 1017,1 hPa 0,0 mm 5,8 km/h (2 Bft) NO 37 ° 0 min 0,000 mm 3,0 UV-I 441 W/m² 7,4 °C 13,4 °C 9,7 km/h (2 Bft)
10.07.2019 10:27 13,3 °C 67 % 1017,1 hPa 0,0 mm 3,7 km/h (1 Bft) O-NO 58 ° 0 min 0,000 mm 2,9 UV-I 406 W/m² 7,3 °C 13,3 °C 6,4 km/h (2 Bft)
10.07.2019 10:28 13,3 °C 67 % 1017,1 hPa 0,0 mm 2,3 km/h (1 Bft) NO 51 ° 0 min 0,000 mm 2,9 UV-I 394 W/m² 7,3 °C 13,3 °C 4,8 km/h (1 Bft)
10.07.2019 10:29 13,3 °C 67 % 1017,1 hPa 0,0 mm 7,2 km/h (2 Bft) N 355 ° 0 min 0,000 mm 2,8 UV-I 390 W/m² 7,3 °C 13,3 °C 9,7 km/h (2 Bft)
10.07.2019 10:30 13,3 °C 67 % 1017,1 hPa 0,0 mm 6,9 km/h (2 Bft) N-NW 347 ° 0 min 0,000 mm 2,8 UV-I 381 W/m² 7,3 °C 13,3 °C 9,7 km/h (2 Bft)
10.07.2019 10:31 13,3 °C 68 % 1017,1 hPa 0,0 mm 5,9 km/h (2 Bft) N 5 ° 0 min 0,000 mm 2,8 UV-I 380 W/m² 7,5 °C 13,3 °C 8,0 km/h (2 Bft)
10.07.2019 10:32 13,3 °C 69 % 1017,1 hPa 0,0 mm 4,9 km/h (1 Bft) N-NO 22 ° 0 min 0,000 mm 2,9 UV-I 388 W/m² 7,7 °C 13,3 °C 8,0 km/h (2 Bft)
10.07.2019 10:33 13,4 °C 69 % 1017,1 hPa 0,0 mm 5,3 km/h (1 Bft) O-NO 59 ° 0 min 0,000 mm 3,0 UV-I 420 W/m² 7,8 °C 13,4 °C 9,7 km/h (2 Bft)
10.07.2019 10:34 13,4 °C 68 % 1017,1 hPa 0,0 mm 8,8 km/h (2 Bft) NO 49 ° 0 min 0,000 mm 3,3 UV-I 431 W/m² 7,6 °C 13,4 °C 16,1 km/h (3 Bft)
10.07.2019 10:35 13,4 °C 68 % 1017,1 hPa 0,0 mm 6,1 km/h (2 Bft) NO 55 ° 0 min 0,000 mm 2,9 UV-I 431 W/m² 7,6 °C 13,4 °C 8,0 km/h (2 Bft)
10.07.2019 10:36 13,4 °C 67 % 1017,1 hPa 0,0 mm 2,1 km/h (1 Bft) O-NO 59 ° 0 min 0,000 mm 3,5 UV-I 466 W/m² 7,4 °C 13,4 °C 3,2 km/h (1 Bft)
10.07.2019 10:37 13,4 °C 68 % 1017,1 hPa 0,0 mm 1,6 km/h (1 Bft) O-NO 59 ° 0 min 0,000 mm 3,0 UV-I 408 W/m² 7,6 °C 13,4 °C 4,8 km/h (1 Bft)
10.07.2019 10:38 13,3 °C 68 % 1017,1 hPa 0,0 mm 5,5 km/h (1 Bft) O-NO 67 ° 0 min 0,000 mm 2,8 UV-I 332 W/m² 7,5 °C 13,3 °C 8,0 km/h (2 Bft)
10.07.2019 10:39 13,3 °C 68 % 1017,1 hPa 0,0 mm 4,2 km/h (1 Bft) O-NO 63 ° 0 min 0,000 mm 2,9 UV-I 388 W/m² 7,5 °C 13,3 °C 6,4 km/h (2 Bft)
10.07.2019 10:40 13,3 °C 68 % 1017,1 hPa 0,0 mm 4,3 km/h (1 Bft) NO 42 ° 0 min 0,000 mm 3,1 UV-I 425 W/m² 7,5 °C 13,3 °C 6,4 km/h (2 Bft)
10.07.2019 10:41 13,3 °C 67 % 1017,1 hPa 0,0 mm 5,3 km/h (1 Bft) N-NW 343 ° 0 min 0,000 mm 3,0 UV-I 350 W/m² 7,3 °C 13,3 °C 8,0 km/h (2 Bft)
10.07.2019 10:42 13,4 °C 69 % 1017,1 hPa 0,0 mm 4,2 km/h (1 Bft) N 350 ° 0 min 0,000 mm 3,1 UV-I 362 W/m² 7,8 °C 13,4 °C 8,0 km/h (2 Bft)
10.07.2019 10:43 13,4 °C 68 % 1017,1 hPa 0,0 mm 2,7 km/h (1 Bft) N 355 ° 0 min 0,000 mm 4,3 UV-I 429 W/m² 7,6 °C 13,4 °C 4,8 km/h (1 Bft)
10.07.2019 10:44 13,6 °C 68 % 1017,2 hPa 0,0 mm 3,5 km/h (1 Bft) N-NW 342 ° 0 min 0,000 mm 3,4 UV-I 380 W/m² 7,8 °C 13,6 °C 4,8 km/h (1 Bft)
10.07.2019 10:45 13,7 °C 67 % 1017,2 hPa 0,0 mm 2,1 km/h (1 Bft) N 360 ° 0 min 0,000 mm 3,1 UV-I 348 W/m² 7,7 °C 13,7 °C 4,8 km/h (1 Bft)
10.07.2019 10:46 13,7 °C 69 % 1017,2 hPa 0,0 mm 4,6 km/h (1 Bft) NO 34 ° 0 min 0,000 mm 4,4 UV-I 323 W/m² 8,1 °C 13,7 °C 8,0 km/h (2 Bft)
10.07.2019 10:47 13,7 °C 69 % 1017,2 hPa 0,0 mm 6,1 km/h (2 Bft) O-NO 63 ° 0 min 0,000 mm 5,2 UV-I 323 W/m² 8,1 °C 13,7 °C 8,0 km/h (2 Bft)
10.07.2019 10:48 13,8 °C 67 % 1017,2 hPa 0,0 mm 2,4 km/h (1 Bft) O-NO 64 ° 0 min 0,000 mm 5,1 UV-I 323 W/m² 7,8 °C 13,8 °C 4,8 km/h (1 Bft)
10.07.2019 10:49 14,0 °C 72 % 1017,1 hPa 0,0 mm 1,4 km/h (1 Bft) NO 44 ° 1 min 0,000 mm 4,8 UV-I 752 W/m² 9,0 °C 14,0 °C 8,0 km/h (2 Bft)
10.07.2019 10:50 14,2 °C 70 % 1017,1 hPa 0,0 mm 4,3 km/h (1 Bft) N-NO 27 ° 1 min 0,000 mm 5,0 UV-I 823 W/m² 8,8 °C 14,2 °C 6,4 km/h (2 Bft)
10.07.2019 10:51 14,3 °C 70 % 1017,2 hPa 0,0 mm 5,1 km/h (1 Bft) N-NW 347 ° 1 min 0,000 mm 5,1 UV-I 833 W/m² 8,9 °C 14,3 °C 9,7 km/h (2 Bft)
10.07.2019 10:52 14,4 °C 69 % 1017,1 hPa 0,0 mm 5,3 km/h (1 Bft) NW 304 ° 1 min 0,000 mm 5,2 UV-I 807 W/m² 8,8 °C 14,4 °C 6,4 km/h (2 Bft)
10.07.2019 10:53 14,4 °C 68 % 1017,1 hPa 0,0 mm 3,5 km/h (1 Bft) NW 325 ° 1 min 0,000 mm 5,3 UV-I 853 W/m² 8,6 °C 14,4 °C 6,4 km/h (2 Bft)
10.07.2019 10:54 14,4 °C 68 % 1017,1 hPa 0,0 mm 2,2 km/h (1 Bft) O 98 ° 1 min 0,000 mm 5,4 UV-I 847 W/m² 8,6 °C 14,4 °C 6,4 km/h (2 Bft)
10.07.2019 10:55 14,2 °C 66 % 1017,1 hPa 0,0 mm 1,9 km/h (1 Bft) O 98 ° 1 min 0,000 mm 5,4 UV-I 860 W/m² 7,9 °C 14,2 °C 6,4 km/h (2 Bft)
10.07.2019 10:56 14,1 °C 66 % 1017,1 hPa 0,0 mm 0,0 km/h (0 Bft) O 98 ° 1 min 0,000 mm 5,3 UV-I 838 W/m² 7,8 °C 14,1 °C 0,0 km/h (0 Bft)
10.07.2019 10:57 14,0 °C 68 % 1017,1 hPa 0,0 mm 1,5 km/h (1 Bft) NO 48 ° 1 min 0,000 mm 5,3 UV-I 828 W/m² 8,2 °C 14,0 °C 4,8 km/h (1 Bft)
10.07.2019 10:58 14,1 °C 68 % 1017,1 hPa 0,0 mm 6,2 km/h (2 Bft) O 81 ° 1 min 0,000 mm 5,3 UV-I 814 W/m² 8,3 °C 14,1 °C 14,5 km/h (3 Bft)
10.07.2019 10:59 14,2 °C 69 % 1017,1 hPa 0,0 mm 8,0 km/h (2 Bft) O-NO 76 ° 1 min 0,000 mm 5,3 UV-I 810 W/m² 8,6 °C 14,2 °C 14,5 km/h (3 Bft)
10.07.2019 11:00 14,3 °C 69 % 1017,2 hPa 0,0 mm 5,2 km/h (1 Bft) O 93 ° 1 min 0,000 mm 5,4 UV-I 814 W/m² 8,7 °C 14,3 °C 11,3 km/h (2 Bft)
10.07.2019 11:01 14,2 °C 66 % 1017,1 hPa 0,0 mm 1,4 km/h (1 Bft) O-NO 76 ° 1 min 0,280 mm 5,4 UV-I 840 W/m² 7,9 °C 14,2 °C 3,2 km/h (1 Bft)
10.07.2019 11:02 14,2 °C 69 % 1017,1 hPa 0,0 mm 3,1 km/h (1 Bft) O-SO 107 ° 1 min 0,000 mm 5,4 UV-I 840 W/m² 8,6 °C 14,2 °C 4,8 km/h (1 Bft)
10.07.2019 11:03 14,3 °C 73 % 1017,1 hPa 0,0 mm 6,8 km/h (2 Bft) NO 46 ° 1 min 0,000 mm 5,4 UV-I 831 W/m² 9,5 °C 14,3 °C 11,3 km/h (2 Bft)
10.07.2019 11:04 14,4 °C 70 % 1017,1 hPa 0,0 mm 7,4 km/h (2 Bft) O 92 ° 1 min 0,000 mm 5,5 UV-I 838 W/m² 9,0 °C 14,4 °C 11,3 km/h (2 Bft)
10.07.2019 11:05 14,4 °C 68 % 1017,1 hPa 0,0 mm 5,2 km/h (1 Bft) N-NW 337 ° 1 min 0,000 mm 5,5 UV-I 856 W/m² 8,6 °C 14,4 °C 9,7 km/h (2 Bft)
10.07.2019 11:06 14,5 °C 70 % 1017,2 hPa 0,0 mm 3,5 km/h (1 Bft) O 80 ° 1 min 0,000 mm 5,5 UV-I 849 W/m² 9,1 °C 14,5 °C 11,3 km/h (2 Bft)
10.07.2019 11:07 14,5 °C 68 % 1017,1 hPa 0,0 mm 2,1 km/h (1 Bft) O-NO 76 ° 1 min 0,000 mm 5,6 UV-I 858 W/m² 8,7 °C 14,5 °C 6,4 km/h (2 Bft)
10.07.2019 11:08 14,4 °C 67 % 1017,1 hPa 0,0 mm 7,6 km/h (2 Bft) O-NO 63 ° 1 min 0,000 mm 5,5 UV-I 846 W/m² 8,4 °C 14,4 °C 16,1 km/h (3 Bft)
10.07.2019 11:09 14,4 °C 70 % 1017,1 hPa 0,0 mm 10,7 km/h (2 Bft) N 360 ° 1 min 0,000 mm 5,5 UV-I 840 W/m² 9,0 °C 14,4 °C 14,5 km/h (3 Bft)
10.07.2019 11:10 14,4 °C 67 % 1017,1 hPa 0,0 mm 3,5 km/h (1 Bft) O 89 ° 1 min 0,000 mm 5,5 UV-I 842 W/m² 8,4 °C 14,4 °C 6,4 km/h (2 Bft)
10.07.2019 11:11 14,4 °C 67 % 1017,1 hPa 0,0 mm 1,9 km/h (1 Bft) O-NO 59 ° 1 min 0,000 mm 5,6 UV-I 833 W/m² 8,4 °C 14,4 °C 3,2 km/h (1 Bft)
10.07.2019 11:12 14,5 °C 68 % 1017,1 hPa 0,0 mm 2,9 km/h (1 Bft) N 360 ° 1 min 0,000 mm 5,6 UV-I 849 W/m² 8,7 °C 14,5 °C 6,4 km/h (2 Bft)
10.07.2019 11:13 14,6 °C 68 % 1017,1 hPa 0,0 mm 7,1 km/h (2 Bft) O-NO 63 ° 1 min 0,000 mm 5,6 UV-I 847 W/m² 8,8 °C 14,6 °C 14,5 km/h (3 Bft)
10.07.2019 11:14 14,6 °C 65 % 1017,2 hPa 0,0 mm 9,8 km/h (2 Bft) N-NO 30 ° 1 min 0,000 mm 5,7 UV-I 849 W/m² 8,1 °C 14,6 °C 14,5 km/h (3 Bft)
10.07.2019 11:15 14,7 °C 69 % 1017,1 hPa 0,0 mm 9,4 km/h (2 Bft) O-SO 107 ° 1 min 0,000 mm 5,7 UV-I 835 W/m² 9,1 °C 14,7 °C 14,5 km/h (3 Bft)
10.07.2019 11:16 14,7 °C 65 % 1017,2 hPa 0,0 mm 6,6 km/h (2 Bft) O-NO 63 ° 1 min 0,000 mm 5,6 UV-I 835 W/m² 8,2 °C 14,7 °C 9,7 km/h (2 Bft)
10.07.2019 11:17 14,7 °C 67 % 1017,1 hPa 0,0 mm 8,0 km/h (2 Bft) O 79 ° 1 min 0,000 mm 5,7 UV-I 838 W/m² 8,6 °C 14,7 °C 12,9 km/h (3 Bft)
10.07.2019 11:18 14,7 °C 65 % 1017,1 hPa 0,0 mm 8,4 km/h (2 Bft) O-NO 78 ° 1 min 0,000 mm 5,7 UV-I 842 W/m² 8,2 °C 14,7 °C 16,1 km/h (3 Bft)
10.07.2019 11:19 14,7 °C 68 % 1017,2 hPa 0,0 mm 4,6 km/h (1 Bft) S-SO 163 ° 1 min 0,000 mm 5,7 UV-I 838 W/m² 8,9 °C 14,7 °C 8,0 km/h (2 Bft)
10.07.2019 11:20 14,6 °C 64 % 1017,2 hPa 0,0 mm 3,8 km/h (1 Bft) O-SO 119 ° 1 min 0,000 mm 5,7 UV-I 846 W/m² 7,9 °C 14,6 °C 6,4 km/h (2 Bft)
10.07.2019 11:21 14,6 °C 67 % 1017,2 hPa 0,0 mm 1,2 km/h (1 Bft) O-NO 71 ° 1 min 0,000 mm 5,8 UV-I 840 W/m² 8,5 °C 14,6 °C 4,8 km/h (1 Bft)
10.07.2019 11:22 14,7 °C 71 % 1017,2 hPa 0,0 mm 5,8 km/h (2 Bft) N-NO 33 ° 1 min 0,000 mm 5,8 UV-I 846 W/m² 9,5 °C 14,7 °C 9,7 km/h (2 Bft)
10.07.2019 11:23 14,8 °C 65 % 1017,2 hPa 0,0 mm 6,2 km/h (2 Bft) N-NO 33 ° 1 min 0,000 mm 5,8 UV-I 856 W/m² 8,3 °C 14,8 °C 8,0 km/h (2 Bft)
10.07.2019 11:24 14,9 °C 62 % 1017,2 hPa 0,0 mm 6,7 km/h (2 Bft) NO 34 ° 1 min 0,000 mm 5,9 UV-I 860 W/m² 7,7 °C 14,9 °C 14,5 km/h (3 Bft)
10.07.2019 11:25 15,0 °C 63 % 1017,2 hPa 0,0 mm 7,1 km/h (2 Bft) O-NO 66 ° 1 min 0,000 mm 5,9 UV-I 861 W/m² 8,0 °C 15,0 °C 9,7 km/h (2 Bft)
10.07.2019 11:26 14,9 °C 64 % 1017,2 hPa 0,0 mm 2,1 km/h (1 Bft) O-NO 66 ° 1 min 0,000 mm 6,0 UV-I 868 W/m² 8,2 °C 14,9 °C 4,8 km/h (1 Bft)
10.07.2019 11:27 14,8 °C 64 % 1017,2 hPa 0,0 mm 2,5 km/h (1 Bft) NO 44 ° 1 min 0,000 mm 5,9 UV-I 868 W/m² 8,1 °C 14,8 °C 9,7 km/h (2 Bft)
10.07.2019 11:28 14,8 °C 66 % 1017,2 hPa 0,0 mm 3,8 km/h (1 Bft) O-NO 57 ° 1 min 0,000 mm 6,0 UV-I 874 W/m² 8,5 °C 14,8 °C 9,7 km/h (2 Bft)
10.07.2019 11:29 14,7 °C 64 % 1017,2 hPa 0,0 mm 4,6 km/h (1 Bft) NO 36 ° 1 min 0,000 mm 6,0 UV-I 875 W/m² 8,0 °C 14,7 °C 8,0 km/h (2 Bft)
10.07.2019 11:30 14,8 °C 64 % 1017,2 hPa 0,0 mm 3,0 km/h (1 Bft) NO 38 ° 1 min 0,000 mm 6,0 UV-I 872 W/m² 8,1 °C 14,8 °C 6,4 km/h (2 Bft)
10.07.2019 11:31 14,8 °C 63 % 1017,2 hPa 0,0 mm 0,6 km/h (0 Bft) O-NO 74 ° 1 min 0,000 mm 5,9 UV-I 870 W/m² 7,8 °C 14,8 °C 1,6 km/h (1 Bft)
10.07.2019 11:32 14,8 °C 67 % 1017,2 hPa 0,0 mm 0,1 km/h (0 Bft) O-NO 73 ° 1 min 0,000 mm 6,0 UV-I 882 W/m² 8,7 °C 14,8 °C 1,6 km/h (1 Bft)
10.07.2019 11:33 14,9 °C 66 % 1017,2 hPa 0,0 mm 6,6 km/h (2 Bft) O 87 ° 1 min 0,000 mm 6,1 UV-I 895 W/m² 8,6 °C 14,9 °C 9,7 km/h (2 Bft)
10.07.2019 11:34 14,9 °C 66 % 1017,2 hPa 0,0 mm 3,8 km/h (1 Bft) O 90 ° 1 min 0,000 mm 6,2 UV-I 902 W/m² 8,6 °C 14,9 °C 6,4 km/h (2 Bft)
10.07.2019 11:35 14,9 °C 65 % 1017,2 hPa 0,0 mm 2,2 km/h (1 Bft) O-NO 72 ° 1 min 0,000 mm 6,2 UV-I 904 W/m² 8,4 °C 14,9 °C 4,8 km/h (1 Bft)
10.07.2019 11:36 14,9 °C 65 % 1017,2 hPa 0,0 mm 6,2 km/h (2 Bft) N-NO 12 ° 1 min 0,000 mm 6,1 UV-I 902 W/m² 8,4 °C 14,9 °C 11,3 km/h (2 Bft)
10.07.2019 11:37 15,0 °C 65 % 1017,1 hPa 0,0 mm 2,9 km/h (1 Bft) N-NO 26 ° 1 min 0,000 mm 6,3 UV-I 904 W/m² 8,5 °C 15,0 °C 6,4 km/h (2 Bft)
10.07.2019 11:38 15,0 °C 64 % 1017,1 hPa 0,0 mm 0,5 km/h (0 Bft) N-NO 21 ° 1 min 0,000 mm 6,2 UV-I 900 W/m² 8,2 °C 15,0 °C 3,2 km/h (1 Bft)
10.07.2019 11:39 15,0 °C 64 % 1017,2 hPa 0,0 mm 3,9 km/h (1 Bft) N 360 ° 1 min 0,000 mm 6,3 UV-I 904 W/m² 8,2 °C 15,0 °C 6,4 km/h (2 Bft)
10.07.2019 11:40 15,1 °C 68 % 1017,2 hPa 0,0 mm 4,8 km/h (1 Bft) N-NO 28 ° 1 min 0,000 mm 6,3 UV-I 904 W/m² 9,2 °C 15,1 °C 6,4 km/h (2 Bft)
10.07.2019 11:41 15,2 °C 65 % 1017,2 hPa 0,0 mm 3,4 km/h (1 Bft) NO 42 ° 1 min 0,000 mm 6,2 UV-I 898 W/m² 8,7 °C 15,2 °C 6,4 km/h (2 Bft)
10.07.2019 11:42 15,1 °C 62 % 1017,2 hPa 0,0 mm 1,9 km/h (1 Bft) NO 44 ° 1 min 0,000 mm 6,2 UV-I 896 W/m² 7,9 °C 15,1 °C 4,8 km/h (1 Bft)
10.07.2019 11:43 15,0 °C 65 % 1017,2 hPa 0,0 mm 5,3 km/h (1 Bft) N-NO 15 ° 1 min 0,000 mm 6,2 UV-I 888 W/m² 8,5 °C 15,0 °C 9,7 km/h (2 Bft)
10.07.2019 11:44 14,9 °C 63 % 1017,2 hPa 0,0 mm 1,8 km/h (1 Bft) N-NO 15 ° 1 min 0,000 mm 6,2 UV-I 867 W/m² 7,9 °C 14,9 °C 4,8 km/h (1 Bft)
10.07.2019 11:45 14,9 °C 66 % 1017,2 hPa 0,0 mm 1,5 km/h (1 Bft) N 11 ° 1 min 0,000 mm 6,3 UV-I 889 W/m² 8,6 °C 14,9 °C 3,2 km/h (1 Bft)
10.07.2019 11:46 15,1 °C 66 % 1017,1 hPa 0,0 mm 3,1 km/h (1 Bft) NW 313 ° 1 min 0,000 mm 6,3 UV-I 900 W/m² 8,8 °C 15,1 °C 6,4 km/h (2 Bft)
10.07.2019 11:47 15,3 °C 70 % 1017,1 hPa 0,0 mm 0,0 km/h (0 Bft) NW 313 ° 1 min 0,000 mm 6,3 UV-I 893 W/m² 9,9 °C 15,3 °C 0,0 km/h (0 Bft)
10.07.2019 11:48 15,3 °C 66 % 1017,1 hPa 0,0 mm 0,1 km/h (0 Bft) W 281 ° 1 min 0,000 mm 6,3 UV-I 877 W/m² 9,0 °C 15,3 °C 1,6 km/h (1 Bft)
10.07.2019 11:49 15,2 °C 66 % 1017,1 hPa 0,0 mm 2,0 km/h (1 Bft) N-NO 22 ° 1 min 0,000 mm 6,3 UV-I 918 W/m² 8,9 °C 15,2 °C 6,4 km/h (2 Bft)
10.07.2019 11:50 15,3 °C 65 % 1017,1 hPa 0,0 mm 9,4 km/h (2 Bft) NO 55 ° 1 min 0,000 mm 6,3 UV-I 814 W/m² 8,8 °C 15,3 °C 16,1 km/h (3 Bft)
10.07.2019 11:51 15,3 °C 64 % 1017,0 hPa 0,0 mm 4,4 km/h (1 Bft) NO 56 ° 1 min 0,000 mm 5,6 UV-I 817 W/m² 8,5 °C 15,3 °C 9,7 km/h (2 Bft)
10.07.2019 11:52 15,4 °C 65 % 1017,1 hPa 0,0 mm 7,4 km/h (2 Bft) O-NO 70 ° 1 min 0,000 mm 5,5 UV-I 817 W/m² 8,9 °C 15,4 °C 12,9 km/h (3 Bft)
10.07.2019 11:53 15,3 °C 63 % 1017,0 hPa 0,0 mm 6,7 km/h (2 Bft) NO 44 ° 1 min 0,000 mm 6,1 UV-I 817 W/m² 8,3 °C 15,3 °C 9,7 km/h (2 Bft)
10.07.2019 11:54 15,3 °C 62 % 1017,0 hPa 0,0 mm 5,3 km/h (1 Bft) N-NO 23 ° 1 min 0,000 mm 6,3 UV-I 905 W/m² 8,1 °C 15,3 °C 8,0 km/h (2 Bft)
10.07.2019 11:55 15,3 °C 63 % 1017,0 hPa 0,0 mm 3,0 km/h (1 Bft) NO 44 ° 1 min 0,000 mm 6,3 UV-I 904 W/m² 8,3 °C 15,3 °C 6,4 km/h (2 Bft)
10.07.2019 11:56 15,4 °C 64 % 1017,0 hPa 0,0 mm 1,7 km/h (1 Bft) O 98 ° 1 min 0,000 mm 6,4 UV-I 895 W/m² 8,6 °C 15,4 °C 3,2 km/h (1 Bft)
10.07.2019 11:57 15,5 °C 64 % 1017,0 hPa 0,0 mm 1,9 km/h (1 Bft) O 94 ° 1 min 0,000 mm 6,4 UV-I 907 W/m² 8,7 °C 15,5 °C 3,2 km/h (1 Bft)
10.07.2019 11:58 15,4 °C 66 % 1017,0 hPa 0,0 mm 2,0 km/h (1 Bft) NO 36 ° 1 min 0,000 mm 6,3 UV-I 872 W/m² 9,1 °C 15,4 °C 4,8 km/h (1 Bft)
10.07.2019 11:59 15,6 °C 67 % 1017,0 hPa 0,0 mm 2,1 km/h (1 Bft) NO 34 ° 1 min 0,000 mm 6,2 UV-I 886 W/m² 9,5 °C 15,6 °C 3,2 km/h (1 Bft)
10.07.2019 12:00 15,6 °C 63 % 1017,0 hPa 0,0 mm 4,6 km/h (1 Bft) O-NO 62 ° 1 min 0,457 mm 6,2 UV-I 849 W/m² 8,6 °C 15,6 °C 6,4 km/h (2 Bft)
10.07.2019 12:01 15,6 °C 62 % 1017,0 hPa 0,0 mm 3,0 km/h (1 Bft) N-NO 31 ° 1 min 0,000 mm 6,5 UV-I 921 W/m² 8,3 °C 15,6 °C 4,8 km/h (1 Bft)
10.07.2019 12:02 15,7 °C 66 % 1017,0 hPa 0,0 mm 7,8 km/h (2 Bft) NO 36 ° 1 min 0,000 mm 6,5 UV-I 923 W/m² 9,4 °C 15,7 °C 9,7 km/h (2 Bft)
10.07.2019 12:03 15,7 °C 64 % 1017,1 hPa 0,0 mm 6,6 km/h (2 Bft) NO 37 ° 1 min 0,000 mm 6,6 UV-I 923 W/m² 8,9 °C 15,7 °C 9,7 km/h (2 Bft)
10.07.2019 12:04 15,7 °C 62 % 1017,1 hPa 0,0 mm 6,9 km/h (2 Bft) N-NO 24 ° 1 min 0,000 mm 6,6 UV-I 921 W/m² 8,4 °C 15,7 °C 11,3 km/h (2 Bft)
10.07.2019 12:05 15,8 °C 63 % 1017,1 hPa 0,0 mm 3,7 km/h (1 Bft) N 360 ° 1 min 0,000 mm 6,5 UV-I 919 W/m² 8,8 °C 15,8 °C 4,8 km/h (1 Bft)
10.07.2019 12:06 15,7 °C 65 % 1017,2 hPa 0,0 mm 2,2 km/h (1 Bft) N-NO 26 ° 1 min 0,000 mm 6,6 UV-I 918 W/m² 9,1 °C 15,7 °C 6,4 km/h (2 Bft)
10.07.2019 12:07 15,7 °C 63 % 1017,2 hPa 0,0 mm 3,8 km/h (1 Bft) N-NW 333 ° 1 min 0,000 mm 6,6 UV-I 921 W/m² 8,7 °C 15,7 °C 8,0 km/h (2 Bft)
10.07.2019 12:08 15,7 °C 62 % 1017,2 hPa 0,0 mm 1,2 km/h (1 Bft) N-NW 344 ° 1 min 0,000 mm 6,6 UV-I 911 W/m² 8,4 °C 15,7 °C 4,8 km/h (1 Bft)
10.07.2019 12:09 15,6 °C 65 % 1017,1 hPa 0,0 mm 2,8 km/h (1 Bft) O 86 ° 1 min 0,000 mm 6,7 UV-I 940 W/m² 9,0 °C 15,6 °C 6,4 km/h (2 Bft)
10.07.2019 12:10 15,5 °C 64 % 1017,1 hPa 0,0 mm 0,1 km/h (0 Bft) NO 55 ° 1 min 0,000 mm 6,4 UV-I 921 W/m² 8,7 °C 15,5 °C 1,6 km/h (1 Bft)
10.07.2019 12:11 15,4 °C 63 % 1017,1 hPa 0,0 mm 5,4 km/h (1 Bft) N-NW 328 ° 1 min 0,000 mm 6,8 UV-I 947 W/m² 8,4 °C 15,4 °C 8,0 km/h (2 Bft)
10.07.2019 12:12 15,5 °C 61 % 1017,0 hPa 0,0 mm 5,5 km/h (1 Bft) W 273 ° 1 min 0,000 mm 6,3 UV-I 947 W/m² 8,0 °C 15,5 °C 6,4 km/h (2 Bft)
10.07.2019 12:13 15,4 °C 61 % 1017,0 hPa 0,0 mm 4,2 km/h (1 Bft) NW 315 ° 1 min 0,000 mm 5,9 UV-I 861 W/m² 7,9 °C 15,4 °C 6,4 km/h (2 Bft)
10.07.2019 12:14 15,4 °C 66 % 1017,0 hPa 0,0 mm 5,3 km/h (1 Bft) W-NW 297 ° 1 min 0,000 mm 6,6 UV-I 886 W/m² 9,1 °C 15,4 °C 11,3 km/h (2 Bft)
10.07.2019 12:15 15,5 °C 63 % 1017,0 hPa 0,0 mm 4,8 km/h (1 Bft) O-SO 121 ° 1 min 0,000 mm 6,6 UV-I 921 W/m² 8,5 °C 15,5 °C 6,4 km/h (2 Bft)
10.07.2019 12:16 15,6 °C 63 % 1017,0 hPa 0,0 mm 1,9 km/h (1 Bft) O 93 ° 1 min 0,000 mm 6,4 UV-I 905 W/m² 8,6 °C 15,6 °C 4,8 km/h (1 Bft)
10.07.2019 12:17 15,6 °C 64 % 1017,0 hPa 0,0 mm 5,9 km/h (2 Bft) O-SO 103 ° 1 min 0,000 mm 6,7 UV-I 935 W/m² 8,8 °C 15,6 °C 8,0 km/h (2 Bft)
10.07.2019 12:18 15,6 °C 65 % 1017,0 hPa 0,0 mm 6,1 km/h (2 Bft) S-SO 150 ° 1 min 0,000 mm 6,6 UV-I 911 W/m² 9,0 °C 15,6 °C 9,7 km/h (2 Bft)
10.07.2019 12:19 15,5 °C 63 % 1017,0 hPa 0,0 mm 3,8 km/h (1 Bft) NO 56 ° 1 min 0,000 mm 6,7 UV-I 988 W/m² 8,5 °C 15,5 °C 6,4 km/h (2 Bft)
10.07.2019 12:20 15,6 °C 67 % 1017,0 hPa 0,0 mm 4,1 km/h (1 Bft) O-SO 111 ° 1 min 0,000 mm 7,0 UV-I 997 W/m² 9,5 °C 15,6 °C 9,7 km/h (2 Bft)
10.07.2019 12:21 15,6 °C 62 % 1017,0 hPa 0,0 mm 3,0 km/h (1 Bft) S 182 ° 1 min 0,000 mm 7,1 UV-I 1021 W/m² 8,3 °C 15,6 °C 4,8 km/h (1 Bft)
10.07.2019 12:22 15,6 °C 65 % 1017,0 hPa 0,0 mm 3,6 km/h (1 Bft) S 171 ° 1 min 0,000 mm 6,6 UV-I 935 W/m² 9,0 °C 15,6 °C 6,4 km/h (2 Bft)
10.07.2019 12:23 15,7 °C 65 % 1017,0 hPa 0,0 mm 4,0 km/h (1 Bft) N-NO 29 ° 1 min 0,000 mm 6,9 UV-I 969 W/m² 9,1 °C 15,7 °C 6,4 km/h (2 Bft)
10.07.2019 12:24 15,8 °C 66 % 1017,0 hPa 0,0 mm 11,7 km/h (2 Bft) N-NW 346 ° 1 min 0,000 mm 7,0 UV-I 1011 W/m² 9,5 °C 15,8 °C 16,1 km/h (3 Bft)
10.07.2019 12:25 15,9 °C 62 % 1017,0 hPa 0,0 mm 10,6 km/h (2 Bft) N-NO 22 ° 1 min 0,000 mm 6,9 UV-I 946 W/m² 8,6 °C 15,9 °C 14,5 km/h (3 Bft)
10.07.2019 12:26 15,9 °C 61 % 1017,0 hPa 0,0 mm 3,3 km/h (1 Bft) N-NO 30 ° 1 min 0,000 mm 6,2 UV-I 858 W/m² 8,4 °C 15,9 °C 6,4 km/h (2 Bft)
10.07.2019 12:27 15,9 °C 63 % 1017,0 hPa 0,0 mm 4,9 km/h (1 Bft) W-NW 300 ° 1 min 0,000 mm 6,4 UV-I 918 W/m² 8,9 °C 15,9 °C 8,0 km/h (2 Bft)
10.07.2019 12:28 16,1 °C 66 % 1017,0 hPa 0,0 mm 6,8 km/h (2 Bft) O-NO 63 ° 1 min 0,000 mm 6,6 UV-I 946 W/m² 9,7 °C 16,1 °C 11,3 km/h (2 Bft)
10.07.2019 12:29 16,3 °C 64 % 1017,0 hPa 0,0 mm 6,5 km/h (2 Bft) N-NO 23 ° 1 min 0,000 mm 6,7 UV-I 970 W/m² 9,5 °C 16,3 °C 11,3 km/h (2 Bft)
10.07.2019 12:30 16,1 °C 60 % 1017,0 hPa 0,0 mm 4,8 km/h (1 Bft) N 355 ° 1 min 0,000 mm 6,7 UV-I 976 W/m² 8,3 °C 16,1 °C 6,4 km/h (2 Bft)
10.07.2019 12:31 16,0 °C 62 % 1016,9 hPa 0,0 mm 3,0 km/h (1 Bft) NO 53 ° 1 min 0,000 mm 6,5 UV-I 976 W/m² 8,7 °C 16,0 °C 4,8 km/h (1 Bft)
10.07.2019 12:32 15,9 °C 65 % 1017,0 hPa 0,0 mm 6,3 km/h (2 Bft) NO 47 ° 1 min 0,000 mm 3,5 UV-I 976 W/m² 9,3 °C 15,9 °C 9,7 km/h (2 Bft)
10.07.2019 12:33 15,7 °C 63 % 1017,0 hPa 0,0 mm 3,0 km/h (1 Bft) N 360 ° 0 min 0,000 mm 3,5 UV-I 241 W/m² 8,7 °C 15,7 °C 4,8 km/h (1 Bft)
10.07.2019 12:34 15,6 °C 63 % 1017,0 hPa 0,0 mm 1,1 km/h (1 Bft) O-NO 59 ° 0 min 0,000 mm 3,5 UV-I 248 W/m² 8,6 °C 15,6 °C 4,8 km/h (1 Bft)
10.07.2019 12:35 15,4 °C 64 % 1017,0 hPa 0,0 mm 6,4 km/h (2 Bft) O 88 ° 0 min 0,000 mm 3,6 UV-I 262 W/m² 8,6 °C 15,4 °C 8,0 km/h (2 Bft)
10.07.2019 12:36 15,3 °C 63 % 1017,0 hPa 0,0 mm 6,7 km/h (2 Bft) O 86 ° 0 min 0,000 mm 3,7 UV-I 297 W/m² 8,3 °C 15,3 °C 9,7 km/h (2 Bft)
10.07.2019 12:37 15,3 °C 62 % 1017,0 hPa 0,0 mm 5,4 km/h (1 Bft) NO 35 ° 0 min 0,000 mm 4,0 UV-I 343 W/m² 8,1 °C 15,3 °C 8,0 km/h (2 Bft)
10.07.2019 12:38 15,2 °C 64 % 1017,0 hPa 0,0 mm 6,2 km/h (2 Bft) N-NO 26 ° 0 min 0,000 mm 6,2 UV-I 343 W/m² 8,4 °C 15,2 °C 9,7 km/h (2 Bft)
10.07.2019 12:39 15,3 °C 64 % 1017,0 hPa 0,0 mm 5,8 km/h (2 Bft) NO 55 ° 0 min 0,000 mm 4,6 UV-I 343 W/m² 8,5 °C 15,3 °C 8,0 km/h (2 Bft)
10.07.2019 12:40 15,4 °C 64 % 1017,0 hPa 0,0 mm 4,7 km/h (1 Bft) N-NO 17 ° 0 min 0,000 mm 6,0 UV-I 343 W/m² 8,6 °C 15,4 °C 8,0 km/h (2 Bft)
10.07.2019 12:41 15,4 °C 65 % 1017,0 hPa 0,0 mm 6,7 km/h (2 Bft) N 5 ° 0 min 0,000 mm 5,2 UV-I 343 W/m² 8,9 °C 15,4 °C 8,0 km/h (2 Bft)
10.07.2019 12:42 15,6 °C 63 % 1016,9 hPa 0,0 mm 5,3 km/h (1 Bft) N-NO 21 ° 0 min 0,000 mm 6,4 UV-I 343 W/m² 8,6 °C 15,6 °C 8,0 km/h (2 Bft)
10.07.2019 12:43 15,7 °C 65 % 1017,0 hPa 0,0 mm 5,0 km/h (1 Bft) NO 53 ° 1 min 0,000 mm 7,0 UV-I 1025 W/m² 9,1 °C 15,7 °C 6,4 km/h (2 Bft)
10.07.2019 12:44 15,8 °C 64 % 1016,9 hPa 0,0 mm 5,4 km/h (1 Bft) O-NO 57 ° 1 min 0,000 mm 6,8 UV-I 972 W/m² 9,0 °C 15,8 °C 8,0 km/h (2 Bft)
10.07.2019 12:45 15,9 °C 64 % 1016,9 hPa 0,0 mm 4,1 km/h (1 Bft) O 81 ° 1 min 0,000 mm 6,8 UV-I 993 W/m² 9,1 °C 15,9 °C 8,0 km/h (2 Bft)
10.07.2019 12:46 15,9 °C 62 % 1016,9 hPa 0,0 mm 6,0 km/h (2 Bft) O-NO 64 ° 1 min 0,000 mm 6,7 UV-I 993 W/m² 8,6 °C 15,9 °C 9,7 km/h (2 Bft)
10.07.2019 12:47 15,9 °C 62 % 1016,9 hPa 0,0 mm 5,6 km/h (1 Bft) N-NO 21 ° 1 min 0,000 mm 6,8 UV-I 970 W/m² 8,6 °C 15,9 °C 8,0 km/h (2 Bft)
10.07.2019 12:48 15,9 °C 64 % 1016,9 hPa 0,0 mm 5,6 km/h (1 Bft) O-NO 63 ° 1 min 0,000 mm 6,7 UV-I 988 W/m² 9,1 °C 15,9 °C 11,3 km/h (2 Bft)
10.07.2019 12:49 15,9 °C 66 % 1016,8 hPa 0,0 mm 3,1 km/h (1 Bft) NO 55 ° 1 min 0,000 mm 6,9 UV-I 1005 W/m² 9,6 °C 15,9 °C 6,4 km/h (2 Bft)
10.07.2019 12:50 15,9 °C 62 % 1016,8 hPa 0,0 mm 4,4 km/h (1 Bft) SO 142 ° 1 min 0,000 mm 6,9 UV-I 986 W/m² 8,6 °C 15,9 °C 6,4 km/h (2 Bft)
10.07.2019 12:51 15,9 °C 66 % 1016,9 hPa 0,0 mm 5,0 km/h (1 Bft) O-NO 71 ° 1 min 0,000 mm 7,1 UV-I 1020 W/m² 9,6 °C 15,9 °C 9,7 km/h (2 Bft)
10.07.2019 12:52 15,9 °C 62 % 1016,9 hPa 0,0 mm 4,8 km/h (1 Bft) O-NO 61 ° 1 min 0,000 mm 7,1 UV-I 995 W/m² 8,6 °C 15,9 °C 6,4 km/h (2 Bft)
10.07.2019 12:53 15,9 °C 64 % 1016,9 hPa 0,0 mm 4,1 km/h (1 Bft) NO 43 ° 1 min 0,000 mm 7,0 UV-I 993 W/m² 9,1 °C 15,9 °C 6,4 km/h (2 Bft)
10.07.2019 12:54 16,1 °C 65 % 1016,9 hPa 0,0 mm 0,3 km/h (0 Bft) NO 43 ° 1 min 0,000 mm 6,9 UV-I 967 W/m² 9,5 °C 16,1 °C 1,6 km/h (1 Bft)
10.07.2019 12:55 16,3 °C 69 % 1016,9 hPa 0,0 mm 4,1 km/h (1 Bft) O 88 ° 1 min 0,000 mm 6,9 UV-I 969 W/m² 10,6 °C 16,3 °C 8,0 km/h (2 Bft)
10.07.2019 12:56 16,4 °C 68 % 1016,9 hPa 0,0 mm 6,6 km/h (2 Bft) O-NO 74 ° 1 min 0,000 mm 6,8 UV-I 981 W/m² 10,5 °C 16,4 °C 11,3 km/h (2 Bft)
10.07.2019 12:57 16,3 °C 61 % 1016,9 hPa 0,0 mm 2,4 km/h (1 Bft) O 82 ° 1 min 0,000 mm 6,9 UV-I 970 W/m² 8,8 °C 16,3 °C 4,8 km/h (1 Bft)
10.07.2019 12:58 16,2 °C 64 % 1016,8 hPa 0,0 mm 3,4 km/h (1 Bft) N-NO 21 ° 1 min 0,000 mm 6,9 UV-I 967 W/m² 9,4 °C 16,2 °C 8,0 km/h (2 Bft)
10.07.2019 12:59 16,2 °C 64 % 1016,8 hPa 0,0 mm 4,3 km/h (1 Bft) O-NO 63 ° 1 min 0,000 mm 6,9 UV-I 965 W/m² 9,4 °C 16,2 °C 8,0 km/h (2 Bft)
10.07.2019 13:00 16,2 °C 62 % 1016,8 hPa 0,0 mm 7,1 km/h (2 Bft) N 360 ° 1 min 0,000 mm 6,9 UV-I 956 W/m² 8,9 °C 16,2 °C 11,3 km/h (2 Bft)
10.07.2019 13:01 16,3 °C 60 % 1016,9 hPa 0,0 mm 1,8 km/h (1 Bft) N 360 ° 1 min 0,482 mm 6,9 UV-I 958 W/m² 8,5 °C 16,3 °C 4,8 km/h (1 Bft)
10.07.2019 13:02 16,4 °C 65 % 1016,8 hPa 0,0 mm 4,9 km/h (1 Bft) NW 321 ° 1 min 0,000 mm 6,9 UV-I 958 W/m² 9,8 °C 16,4 °C 6,4 km/h (2 Bft)
10.07.2019 13:03 16,5 °C 64 % 1016,8 hPa 0,0 mm 1,4 km/h (1 Bft) NW 321 ° 1 min 0,000 mm 7,0 UV-I 958 W/m² 9,7 °C 16,5 °C 4,8 km/h (1 Bft)
10.07.2019 13:04 16,5 °C 60 % 1016,9 hPa 0,0 mm 2,1 km/h (1 Bft) NW 321 ° 1 min 0,000 mm 7,0 UV-I 962 W/m² 8,7 °C 16,5 °C 4,8 km/h (1 Bft)
10.07.2019 13:05 16,5 °C 62 % 1016,9 hPa 0,0 mm 3,9 km/h (1 Bft) NW 308 ° 1 min 0,000 mm 7,0 UV-I 965 W/m² 9,2 °C 16,5 °C 8,0 km/h (2 Bft)
10.07.2019 13:06 16,6 °C 61 % 1016,9 hPa 0,0 mm 4,7 km/h (1 Bft) W-NW 302 ° 1 min 0,000 mm 7,0 UV-I 967 W/m² 9,0 °C 16,6 °C 8,0 km/h (2 Bft)
10.07.2019 13:07 16,7 °C 63 % 1016,9 hPa 0,0 mm 5,7 km/h (1 Bft) N-NO 24 ° 1 min 0,000 mm 7,0 UV-I 963 W/m² 9,6 °C 16,7 °C 8,0 km/h (2 Bft)
10.07.2019 13:08 16,7 °C 60 % 1016,9 hPa 0,0 mm 2,7 km/h (1 Bft) N-NO 25 ° 1 min 0,000 mm 6,9 UV-I 944 W/m² 8,9 °C 16,7 °C 4,8 km/h (1 Bft)
10.07.2019 13:09 16,4 °C 58 % 1016,8 hPa 0,0 mm 2,7 km/h (1 Bft) N-NO 24 ° 1 min 0,000 mm 6,9 UV-I 919 W/m² 8,1 °C 16,4 °C 6,4 km/h (2 Bft)
10.07.2019 13:10 16,3 °C 62 % 1016,8 hPa 0,0 mm 1,5 km/h (1 Bft) N-NO 24 ° 1 min 0,000 mm 6,9 UV-I 925 W/m² 9,0 °C 16,3 °C 3,2 km/h (1 Bft)
10.07.2019 13:11 16,3 °C 62 % 1016,8 hPa 0,0 mm 0,5 km/h (0 Bft) N-NO 24 ° 1 min 0,000 mm 6,9 UV-I 962 W/m² 9,0 °C 16,3 °C 1,6 km/h (1 Bft)
10.07.2019 13:12 16,3 °C 61 % 1016,8 hPa 0,0 mm 2,3 km/h (1 Bft) N-NW 330 ° 1 min 0,000 mm 7,0 UV-I 963 W/m² 8,8 °C 16,3 °C 4,8 km/h (1 Bft)
10.07.2019 13:13 16,4 °C 61 % 1016,8 hPa 0,0 mm 0,9 km/h (0 Bft) W-NW 295 ° 1 min 0,000 mm 7,1 UV-I 963 W/m² 8,9 °C 16,4 °C 3,2 km/h (1 Bft)
10.07.2019 13:14 16,6 °C 63 % 1016,8 hPa 0,0 mm 2,9 km/h (1 Bft) N-NW 341 ° 1 min 0,000 mm 7,0 UV-I 930 W/m² 9,5 °C 16,6 °C 6,4 km/h (2 Bft)
10.07.2019 13:15 16,7 °C 64 % 1016,8 hPa 0,0 mm 5,0 km/h (1 Bft) NW 316 ° 1 min 0,000 mm 7,1 UV-I 963 W/m² 9,9 °C 16,7 °C 6,4 km/h (2 Bft)
10.07.2019 13:16 16,8 °C 60 % 1016,8 hPa 0,0 mm 2,8 km/h (1 Bft) W 273 ° 1 min 0,000 mm 7,2 UV-I 988 W/m² 9,0 °C 16,8 °C 4,8 km/h (1 Bft)
10.07.2019 13:17 16,7 °C 59 % 1016,7 hPa 0,0 mm 1,4 km/h (1 Bft) W 274 ° 1 min 0,000 mm 7,2 UV-I 1011 W/m² 8,6 °C 16,7 °C 3,2 km/h (1 Bft)
10.07.2019 13:18 16,8 °C 64 % 1016,8 hPa 0,0 mm 4,3 km/h (1 Bft) O 99 ° 1 min 0,000 mm 6,8 UV-I 984 W/m² 10,0 °C 16,8 °C 8,0 km/h (2 Bft)
10.07.2019 13:19 16,9 °C 64 % 1016,8 hPa 0,0 mm 6,3 km/h (2 Bft) NO 52 ° 1 min 0,000 mm 7,2 UV-I 984 W/m² 10,0 °C 16,9 °C 9,7 km/h (2 Bft)
10.07.2019 13:20 16,9 °C 62 % 1016,8 hPa 0,0 mm 5,5 km/h (1 Bft) NO 49 ° 1 min 0,000 mm 7,2 UV-I 1016 W/m² 9,6 °C 16,9 °C 8,0 km/h (2 Bft)
10.07.2019 13:21 16,8 °C 60 % 1016,7 hPa 0,0 mm 6,5 km/h (2 Bft) N-NW 342 ° 1 min 0,000 mm 7,2 UV-I 1016 W/m² 9,0 °C 16,8 °C 9,7 km/h (2 Bft)
10.07.2019 13:22 16,8 °C 61 % 1016,7 hPa 0,0 mm 4,9 km/h (1 Bft) N-NW 346 ° 1 min 0,000 mm 4,3 UV-I 1016 W/m² 9,2 °C 16,8 °C 6,4 km/h (2 Bft)
10.07.2019 13:23 16,8 °C 66 % 1016,7 hPa 0,0 mm 0,7 km/h (0 Bft) N-NW 347 ° 0 min 0,000 mm 6,6 UV-I 445 W/m² 10,4 °C 16,8 °C 3,2 km/h (1 Bft)
10.07.2019 13:24 16,8 °C 63 % 1016,7 hPa 0,0 mm 1,5 km/h (1 Bft) N 351 ° 1 min 0,000 mm 7,1 UV-I 1013 W/m² 9,7 °C 16,8 °C 3,2 km/h (1 Bft)
10.07.2019 13:25 17,0 °C 63 % 1016,7 hPa 0,0 mm 8,6 km/h (2 Bft) N 360 ° 1 min 0,000 mm 7,2 UV-I 997 W/m² 9,9 °C 17,0 °C 14,5 km/h (3 Bft)
10.07.2019 13:26 17,0 °C 61 % 1016,7 hPa 0,0 mm 6,8 km/h (2 Bft) N-NW 341 ° 1 min 0,000 mm 7,0 UV-I 967 W/m² 9,4 °C 17,0 °C 12,9 km/h (3 Bft)
10.07.2019 13:27 17,0 °C 59 % 1016,6 hPa 0,0 mm 6,2 km/h (2 Bft) NW 304 ° 1 min 0,000 mm 6,7 UV-I 923 W/m² 8,9 °C 17,0 °C 8,0 km/h (2 Bft)
10.07.2019 13:28 16,9 °C 59 % 1016,7 hPa 0,0 mm 5,2 km/h (1 Bft) NW 324 ° 1 min 0,000 mm 6,8 UV-I 898 W/m² 8,8 °C 16,9 °C 6,4 km/h (2 Bft)
10.07.2019 13:29 16,7 °C 59 % 1016,7 hPa 0,0 mm 4,5 km/h (1 Bft) NW 309 ° 1 min 0,000 mm 6,3 UV-I 814 W/m² 8,6 °C 16,7 °C 6,4 km/h (2 Bft)
10.07.2019 13:30 16,6 °C 59 % 1016,7 hPa 0,0 mm 0,4 km/h (0 Bft) NW 310 ° 1 min 0,000 mm 7,0 UV-I 872 W/m² 8,6 °C 16,6 °C 1,6 km/h (1 Bft)
10.07.2019 13:31 16,6 °C 63 % 1016,6 hPa 0,0 mm 0,3 km/h (0 Bft) NW 310 ° 1 min 0,000 mm 7,0 UV-I 960 W/m² 9,5 °C 16,6 °C 1,6 km/h (1 Bft)
10.07.2019 13:32 16,6 °C 60 % 1016,6 hPa 0,0 mm 2,9 km/h (1 Bft) W 273 ° 1 min 0,000 mm 6,9 UV-I 928 W/m² 8,8 °C 16,6 °C 6,4 km/h (2 Bft)
10.07.2019 13:33 16,6 °C 58 % 1016,6 hPa 0,0 mm 5,4 km/h (1 Bft) W-NW 285 ° 1 min 0,000 mm 6,8 UV-I 912 W/m² 8,3 °C 16,6 °C 6,4 km/h (2 Bft)
10.07.2019 13:34 16,7 °C 59 % 1016,6 hPa 0,0 mm 9,0 km/h (2 Bft) NW 308 ° 1 min 0,000 mm 6,8 UV-I 926 W/m² 8,6 °C 16,7 °C 16,1 km/h (3 Bft)
10.07.2019 13:35 16,8 °C 61 % 1016,6 hPa 0,0 mm 9,6 km/h (2 Bft) N 5 ° 1 min 0,000 mm 6,9 UV-I 923 W/m² 9,2 °C 16,8 °C 14,5 km/h (3 Bft)
10.07.2019 13:36 16,8 °C 61 % 1016,6 hPa 0,0 mm 7,3 km/h (2 Bft) N 360 ° 1 min 0,000 mm 7,0 UV-I 953 W/m² 9,2 °C 16,8 °C 11,3 km/h (2 Bft)
10.07.2019 13:37 16,9 °C 57 % 1016,6 hPa 0,0 mm 6,8 km/h (2 Bft) N-NW 333 ° 1 min 0,000 mm 7,0 UV-I 974 W/m² 8,3 °C 16,9 °C 12,9 km/h (3 Bft)
10.07.2019 13:38 16,9 °C 57 % 1016,6 hPa 0,0 mm 1,8 km/h (1 Bft) N 355 ° 1 min 0,000 mm 7,0 UV-I 962 W/m² 8,3 °C 16,9 °C 4,8 km/h (1 Bft)
10.07.2019 13:39 17,1 °C 57 % 1016,6 hPa 0,0 mm 5,2 km/h (1 Bft) NO 53 ° 1 min 0,000 mm 6,9 UV-I 947 W/m² 8,5 °C 17,1 °C 8,0 km/h (2 Bft)
10.07.2019 13:40 17,1 °C 62 % 1016,6 hPa 0,0 mm 3,0 km/h (1 Bft) NW 318 ° 1 min 0,000 mm 6,9 UV-I 956 W/m² 9,8 °C 17,1 °C 9,7 km/h (2 Bft)
10.07.2019 13:41 17,2 °C 58 % 1016,6 hPa 0,0 mm 6,3 km/h (2 Bft) NW 307 ° 1 min 0,000 mm 6,9 UV-I 976 W/m² 8,9 °C 17,2 °C 12,9 km/h (3 Bft)
10.07.2019 13:42 17,2 °C 58 % 1016,6 hPa 0,0 mm 8,8 km/h (2 Bft) NW 319 ° 1 min 0,000 mm 6,9 UV-I 969 W/m² 8,9 °C 17,2 °C 12,9 km/h (3 Bft)
10.07.2019 13:43 17,1 °C 55 % 1016,6 hPa 0,0 mm 3,5 km/h (1 Bft) NW 320 ° 1 min 0,000 mm 6,8 UV-I 956 W/m² 8,0 °C 17,1 °C 6,4 km/h (2 Bft)
10.07.2019 13:44 17,0 °C 57 % 1016,6 hPa 0,0 mm 3,2 km/h (1 Bft) NW 308 ° 1 min 0,000 mm 6,8 UV-I 944 W/m² 8,4 °C 17,0 °C 6,4 km/h (2 Bft)
10.07.2019 13:45 17,1 °C 57 % 1016,5 hPa 0,0 mm 5,3 km/h (1 Bft) W-NW 287 ° 1 min 0,000 mm 6,9 UV-I 919 W/m² 8,5 °C 17,1 °C 8,0 km/h (2 Bft)
10.07.2019 13:46 16,9 °C 57 % 1016,5 hPa 0,0 mm 3,7 km/h (1 Bft) NW 309 ° 1 min 0,000 mm 7,0 UV-I 949 W/m² 8,3 °C 16,9 °C 6,4 km/h (2 Bft)
10.07.2019 13:47 16,8 °C 57 % 1016,6 hPa 0,0 mm 5,8 km/h (2 Bft) W-NW 284 ° 1 min 0,000 mm 7,0 UV-I 884 W/m² 8,2 °C 16,8 °C 11,3 km/h (2 Bft)
10.07.2019 13:48 16,8 °C 57 % 1016,6 hPa 0,0 mm 5,2 km/h (1 Bft) W-SW 255 ° 1 min 0,000 mm 6,9 UV-I 926 W/m² 8,2 °C 16,8 °C 9,7 km/h (2 Bft)
10.07.2019 13:49 16,9 °C 63 % 1016,6 hPa 0,0 mm 4,6 km/h (1 Bft) W-SW 256 ° 1 min 0,000 mm 6,9 UV-I 958 W/m² 9,8 °C 16,9 °C 8,0 km/h (2 Bft)
10.07.2019 13:50 16,9 °C 57 % 1016,6 hPa 0,0 mm 4,8 km/h (1 Bft) SW 227 ° 1 min 0,000 mm 6,9 UV-I 962 W/m² 8,3 °C 16,9 °C 6,4 km/h (2 Bft)
10.07.2019 13:51 16,9 °C 56 % 1016,5 hPa 0,0 mm 3,6 km/h (1 Bft) S 185 ° 1 min 0,000 mm 7,0 UV-I 963 W/m² 8,1 °C 16,9 °C 8,0 km/h (2 Bft)
10.07.2019 13:52 16,9 °C 55 % 1016,6 hPa 0,0 mm 3,5 km/h (1 Bft) S 185 ° 1 min 0,000 mm 7,0 UV-I 956 W/m² 7,8 °C 16,9 °C 6,4 km/h (2 Bft)
10.07.2019 13:53 16,9 °C 58 % 1016,6 hPa 0,0 mm 0,3 km/h (0 Bft) S-SO 167 ° 1 min 0,000 mm 7,0 UV-I 954 W/m² 8,6 °C 16,9 °C 1,6 km/h (1 Bft)
10.07.2019 13:54 16,9 °C 60 % 1016,5 hPa 0,0 mm 0,0 km/h (0 Bft) S-SO 158 ° 1 min 0,000 mm 7,0 UV-I 947 W/m² 9,1 °C 16,9 °C 0,0 km/h (0 Bft)
10.07.2019 13:55 16,8 °C 56 % 1016,5 hPa 0,0 mm 0,0 km/h (0 Bft) SO 136 ° 1 min 0,000 mm 7,0 UV-I 946 W/m² 8,0 °C 16,8 °C 0,0 km/h (0 Bft)
10.07.2019 13:56 16,9 °C 58 % 1016,5 hPa 0,0 mm 0,0 km/h (0 Bft) SO 136 ° 1 min 0,000 mm 7,0 UV-I 939 W/m² 8,6 °C 16,9 °C 0,0 km/h (0 Bft)
10.07.2019 13:57 17,1 °C 62 % 1016,5 hPa 0,0 mm 4,8 km/h (1 Bft) W-NW 303 ° 1 min 0,000 mm 6,9 UV-I 939 W/m² 9,8 °C 17,1 °C 9,7 km/h (2 Bft)
10.07.2019 13:58 17,4 °C 60 % 1016,6 hPa 0,0 mm 7,4 km/h (2 Bft) N-NW 329 ° 1 min 0,000 mm 6,9 UV-I 935 W/m² 9,6 °C 17,4 °C 9,7 km/h (2 Bft)
10.07.2019 13:59 17,4 °C 57 % 1016,6 hPa 0,0 mm 3,8 km/h (1 Bft) W-NW 296 ° 1 min 0,000 mm 6,8 UV-I 933 W/m² 8,8 °C 17,4 °C 6,4 km/h (2 Bft)
10.07.2019 14:00 17,5 °C 57 % 1016,6 hPa 0,0 mm 3,6 km/h (1 Bft) W-NW 297 ° 1 min 0,000 mm 6,7 UV-I 893 W/m² 8,9 °C 17,5 °C 6,4 km/h (2 Bft)
10.07.2019 14:01 17,4 °C 57 % 1016,6 hPa 0,0 mm 5,5 km/h (1 Bft) NW 323 ° 1 min 0,534 mm 6,7 UV-I 874 W/m² 8,8 °C 17,4 °C 9,7 km/h (2 Bft)
10.07.2019 14:02 17,4 °C 56 % 1016,6 hPa 0,0 mm 4,1 km/h (1 Bft) W-NW 303 ° 1 min 0,000 mm 6,9 UV-I 939 W/m² 8,5 °C 17,4 °C 6,4 km/h (2 Bft)
10.07.2019 14:03 17,3 °C 55 % 1016,6 hPa 0,0 mm 3,4 km/h (1 Bft) N 355 ° 1 min 0,000 mm 7,0 UV-I 947 W/m² 8,2 °C 17,3 °C 4,8 km/h (1 Bft)
10.07.2019 14:04 17,3 °C 57 % 1016,5 hPa 0,0 mm 5,2 km/h (1 Bft) N 355 ° 1 min 0,000 mm 7,0 UV-I 965 W/m² 8,7 °C 17,3 °C 8,0 km/h (2 Bft)
10.07.2019 14:05 17,4 °C 59 % 1016,6 hPa 0,0 mm 3,9 km/h (1 Bft) NW 325 ° 1 min 0,000 mm 7,0 UV-I 969 W/m² 9,3 °C 17,4 °C 8,0 km/h (2 Bft)
10.07.2019 14:06 17,4 °C 55 % 1016,6 hPa 0,0 mm 5,4 km/h (1 Bft) N-NW 347 ° 1 min 0,000 mm 6,8 UV-I 942 W/m² 8,3 °C 17,4 °C 8,0 km/h (2 Bft)
10.07.2019 14:07 17,5 °C 57 % 1016,6 hPa 0,0 mm 8,6 km/h (2 Bft) NW 312 ° 1 min 0,000 mm 6,9 UV-I 958 W/m² 8,9 °C 17,5 °C 11,3 km/h (2 Bft)
10.07.2019 14:08 17,6 °C 59 % 1016,6 hPa 0,0 mm 9,0 km/h (2 Bft) W-NW 302 ° 1 min 0,000 mm 6,9 UV-I 923 W/m² 9,5 °C 17,6 °C 12,9 km/h (3 Bft)
10.07.2019 14:09 17,6 °C 55 % 1016,5 hPa 0,0 mm 6,0 km/h (2 Bft) W-NW 303 ° 1 min 0,000 mm 7,0 UV-I 970 W/m² 8,5 °C 17,6 °C 12,9 km/h (3 Bft)
10.07.2019 14:10 17,5 °C 57 % 1016,6 hPa 0,0 mm 0,6 km/h (0 Bft) W-NW 302 ° 1 min 0,000 mm 7,0 UV-I 990 W/m² 8,9 °C 17,5 °C 3,2 km/h (1 Bft)
10.07.2019 14:11 17,3 °C 54 % 1016,6 hPa 0,0 mm 2,3 km/h (1 Bft) NW 318 ° 1 min 0,000 mm 6,9 UV-I 984 W/m² 7,9 °C 17,3 °C 4,8 km/h (1 Bft)
10.07.2019 14:12 17,4 °C 55 % 1016,6 hPa 0,0 mm 3,1 km/h (1 Bft) O 89 ° 1 min 0,000 mm 6,9 UV-I 977 W/m² 8,3 °C 17,4 °C 6,4 km/h (2 Bft)
10.07.2019 14:13 17,4 °C 54 % 1016,5 hPa 0,0 mm 3,9 km/h (1 Bft) N-NO 30 ° 1 min 0,000 mm 6,9 UV-I 974 W/m² 8,0 °C 17,4 °C 6,4 km/h (2 Bft)
10.07.2019 14:14 17,4 °C 55 % 1016,6 hPa 0,0 mm 3,6 km/h (1 Bft) NO 49 ° 1 min 0,000 mm 6,9 UV-I 972 W/m² 8,3 °C 17,4 °C 8,0 km/h (2 Bft)
10.07.2019 14:15 17,4 °C 56 % 1016,5 hPa 0,0 mm 2,7 km/h (1 Bft) O 83 ° 1 min 0,000 mm 7,0 UV-I 977 W/m² 8,5 °C 17,4 °C 4,8 km/h (1 Bft)
10.07.2019 14:16 17,4 °C 60 % 1016,5 hPa 0,0 mm 5,2 km/h (1 Bft) O-NO 69 ° 1 min 0,000 mm 6,9 UV-I 965 W/m² 9,6 °C 17,4 °C 8,0 km/h (2 Bft)
10.07.2019 14:17 17,4 °C 56 % 1016,5 hPa 0,0 mm 3,5 km/h (1 Bft) O-NO 69 ° 1 min 0,000 mm 6,8 UV-I 928 W/m² 8,5 °C 17,4 °C 6,4 km/h (2 Bft)
10.07.2019 14:18 17,3 °C 55 % 1016,5 hPa 0,0 mm 4,1 km/h (1 Bft) O-SO 119 ° 1 min 0,000 mm 6,9 UV-I 953 W/m² 8,2 °C 17,3 °C 6,4 km/h (2 Bft)
10.07.2019 14:19 17,2 °C 58 % 1016,6 hPa 0,0 mm 1,8 km/h (1 Bft) S-SO 157 ° 1 min 0,000 mm 6,8 UV-I 947 W/m² 8,9 °C 17,2 °C 4,8 km/h (1 Bft)
10.07.2019 14:20 17,2 °C 57 % 1016,5 hPa 0,0 mm 2,4 km/h (1 Bft) O-NO 57 ° 1 min 0,000 mm 6,8 UV-I 954 W/m² 8,6 °C 17,2 °C 4,8 km/h (1 Bft)
10.07.2019 14:21 17,3 °C 55 % 1016,5 hPa 0,0 mm 3,8 km/h (1 Bft) NO 51 ° 1 min 0,000 mm 6,8 UV-I 956 W/m² 8,2 °C 17,3 °C 4,8 km/h (1 Bft)
10.07.2019 14:22 17,4 °C 56 % 1016,5 hPa 0,0 mm 2,7 km/h (1 Bft) NO 51 ° 1 min 0,000 mm 6,8 UV-I 928 W/m² 8,5 °C 17,4 °C 4,8 km/h (1 Bft)
10.07.2019 14:23 17,6 °C 56 % 1016,5 hPa 0,0 mm 5,2 km/h (1 Bft) NO 42 ° 1 min 0,000 mm 6,7 UV-I 925 W/m² 8,7 °C 17,6 °C 6,4 km/h (2 Bft)
10.07.2019 14:24 17,5 °C 57 % 1016,6 hPa 0,0 mm 0,8 km/h (0 Bft) NO 42 ° 1 min 0,000 mm 6,6 UV-I 912 W/m² 8,9 °C 17,5 °C 3,2 km/h (1 Bft)
10.07.2019 14:25 17,5 °C 55 % 1016,5 hPa 0,0 mm 3,4 km/h (1 Bft) W 269 ° 1 min 0,000 mm 6,6 UV-I 911 W/m² 8,4 °C 17,5 °C 6,4 km/h (2 Bft)
10.07.2019 14:26 17,5 °C 56 % 1016,5 hPa 0,0 mm 3,0 km/h (1 Bft) W 278 ° 1 min 0,000 mm 6,4 UV-I 904 W/m² 8,6 °C 17,5 °C 6,4 km/h (2 Bft)
10.07.2019 14:27 17,5 °C 57 % 1016,5 hPa 0,0 mm 7,0 km/h (2 Bft) N-NW 333 ° 1 min 0,000 mm 6,5 UV-I 912 W/m² 8,9 °C 17,5 °C 12,9 km/h (3 Bft)
10.07.2019 14:28 17,8 °C 60 % 1016,5 hPa 0,0 mm 4,8 km/h (1 Bft) N 355 ° 1 min 0,000 mm 6,5 UV-I 904 W/m² 9,9 °C 17,8 °C 8,0 km/h (2 Bft)
10.07.2019 14:29 17,9 °C 59 % 1016,4 hPa 0,0 mm 7,3 km/h (2 Bft) N-NW 328 ° 1 min 0,000 mm 6,4 UV-I 898 W/m² 9,8 °C 17,9 °C 12,9 km/h (3 Bft)
10.07.2019 14:30 17,9 °C 54 % 1016,4 hPa 0,0 mm 7,8 km/h (2 Bft) W-NW 286 ° 1 min 0,000 mm 6,4 UV-I 902 W/m² 8,5 °C 17,9 °C 12,9 km/h (3 Bft)
10.07.2019 14:31 17,8 °C 53 % 1016,5 hPa 0,0 mm 2,7 km/h (1 Bft) NW 306 ° 1 min 0,000 mm 6,4 UV-I 886 W/m² 8,1 °C 17,8 °C 6,4 km/h (2 Bft)
10.07.2019 14:32 17,7 °C 54 % 1016,5 hPa 0,0 mm 2,1 km/h (1 Bft) N 350 ° 1 min 0,000 mm 6,5 UV-I 907 W/m² 8,3 °C 17,7 °C 6,4 km/h (2 Bft)
10.07.2019 14:33 17,7 °C 54 % 1016,5 hPa 0,0 mm 1,2 km/h (1 Bft) N 355 ° 1 min 0,000 mm 6,5 UV-I 914 W/m² 8,3 °C 17,7 °C 3,2 km/h (1 Bft)
10.07.2019 14:34 17,7 °C 55 % 1016,5 hPa 0,0 mm 0,1 km/h (0 Bft) SW 227 ° 1 min 0,000 mm 6,5 UV-I 912 W/m² 8,5 °C 17,7 °C 1,6 km/h (1 Bft)
10.07.2019 14:35 17,6 °C 51 % 1016,4 hPa 0,0 mm 4,8 km/h (1 Bft) W-SW 244 ° 1 min 0,000 mm 6,5 UV-I 912 W/m² 7,3 °C 17,6 °C 6,4 km/h (2 Bft)
10.07.2019 14:36 17,5 °C 55 % 1016,4 hPa 0,0 mm 2,8 km/h (1 Bft) S 186 ° 1 min 0,000 mm 6,5 UV-I 916 W/m² 8,4 °C 17,5 °C 6,4 km/h (2 Bft)
10.07.2019 14:37 17,6 °C 57 % 1016,4 hPa 0,0 mm 3,9 km/h (1 Bft) S 188 ° 1 min 0,000 mm 6,6 UV-I 918 W/m² 9,0 °C 17,6 °C 6,4 km/h (2 Bft)
10.07.2019 14:38 17,5 °C 54 % 1016,4 hPa 0,0 mm 2,4 km/h (1 Bft) S 188 ° 1 min 0,000 mm 6,5 UV-I 916 W/m² 8,1 °C 17,5 °C 4,8 km/h (1 Bft)
10.07.2019 14:39 17,4 °C 60 % 1016,4 hPa 0,0 mm 2,0 km/h (1 Bft) S 182 ° 1 min 0,000 mm 6,5 UV-I 918 W/m² 9,6 °C 17,4 °C 3,2 km/h (1 Bft)
10.07.2019 14:40 17,4 °C 55 % 1016,4 hPa 0,0 mm 1,8 km/h (1 Bft) O-NO 77 ° 1 min 0,000 mm 6,5 UV-I 918 W/m² 8,3 °C 17,4 °C 3,2 km/h (1 Bft)
10.07.2019 14:41 17,4 °C 57 % 1016,4 hPa 0,0 mm 0,3 km/h (0 Bft) O-NO 61 ° 1 min 0,000 mm 6,4 UV-I 942 W/m² 8,8 °C 17,4 °C 3,2 km/h (1 Bft)
10.07.2019 14:42 17,5 °C 55 % 1016,5 hPa 0,0 mm 4,2 km/h (1 Bft) NO 38 ° 1 min 0,000 mm 6,6 UV-I 963 W/m² 8,4 °C 17,5 °C 6,4 km/h (2 Bft)
10.07.2019 14:43 17,6 °C 54 % 1016,5 hPa 0,0 mm 4,1 km/h (1 Bft) O-SO 105 ° 1 min 0,000 mm 6,6 UV-I 970 W/m² 8,2 °C 17,6 °C 6,4 km/h (2 Bft)
10.07.2019 14:44 17,5 °C 54 % 1016,5 hPa 0,0 mm 2,7 km/h (1 Bft) N-NO 12 ° 1 min 0,000 mm 6,4 UV-I 956 W/m² 8,1 °C 17,5 °C 12,9 km/h (3 Bft)
10.07.2019 14:45 17,5 °C 54 % 1016,5 hPa 0,0 mm 11,9 km/h (2 Bft) N 355 ° 1 min 0,000 mm 6,5 UV-I 956 W/m² 8,1 °C 17,5 °C 16,1 km/h (3 Bft)
10.07.2019 14:46 17,5 °C 56 % 1016,5 hPa 0,0 mm 10,2 km/h (2 Bft) N-NO 18 ° 1 min 0,000 mm 6,5 UV-I 970 W/m² 8,6 °C 17,5 °C 16,1 km/h (3 Bft)
10.07.2019 14:47 17,6 °C 54 % 1016,5 hPa 0,0 mm 8,5 km/h (2 Bft) N 355 ° 1 min 0,000 mm 6,4 UV-I 976 W/m² 8,2 °C 17,6 °C 14,5 km/h (3 Bft)
10.07.2019 14:48 17,7 °C 56 % 1016,5 hPa 0,0 mm 8,4 km/h (2 Bft) N-NW 346 ° 1 min 0,000 mm 3,2 UV-I 976 W/m² 8,8 °C 17,7 °C 12,9 km/h (3 Bft)
10.07.2019 14:49 17,6 °C 54 % 1016,5 hPa 0,0 mm 6,0 km/h (2 Bft) NO 50 ° 0 min 0,000 mm 3,6 UV-I 223 W/m² 8,2 °C 17,6 °C 9,7 km/h (2 Bft)
10.07.2019 14:50 17,5 °C 54 % 1016,4 hPa 0,0 mm 3,0 km/h (1 Bft) NO 44 ° 0 min 0,000 mm 3,2 UV-I 162 W/m² 8,1 °C 17,5 °C 6,4 km/h (2 Bft)
10.07.2019 14:51 17,3 °C 54 % 1016,5 hPa 0,0 mm 4,2 km/h (1 Bft) O-NO 76 ° 1 min 0,000 mm 4,8 UV-I 752 W/m² 7,9 °C 17,3 °C 6,4 km/h (2 Bft)
10.07.2019 14:52 17,2 °C 55 % 1016,5 hPa 0,0 mm 4,2 km/h (1 Bft) O-NO 67 ° 1 min 0,000 mm 6,1 UV-I 752 W/m² 8,1 °C 17,2 °C 4,8 km/h (1 Bft)
10.07.2019 14:53 17,1 °C 54 % 1016,4 hPa 0,0 mm 2,7 km/h (1 Bft) O-NO 68 ° 1 min 0,000 mm 6,1 UV-I 905 W/m² 7,7 °C 17,1 °C 4,8 km/h (1 Bft)
10.07.2019 14:54 17,1 °C 57 % 1016,4 hPa 0,0 mm 2,4 km/h (1 Bft) O-NO 74 ° 1 min 0,000 mm 6,2 UV-I 886 W/m² 8,5 °C 17,1 °C 4,8 km/h (1 Bft)
10.07.2019 14:55 17,2 °C 57 % 1016,4 hPa 0,0 mm 4,0 km/h (1 Bft) NO 53 ° 1 min 0,000 mm 6,1 UV-I 888 W/m² 8,6 °C 17,2 °C 6,4 km/h (2 Bft)
10.07.2019 14:56 17,3 °C 57 % 1016,4 hPa 0,0 mm 4,1 km/h (1 Bft) N-NO 30 ° 1 min 0,000 mm 6,2 UV-I 884 W/m² 8,7 °C 17,3 °C 6,4 km/h (2 Bft)
10.07.2019 14:57 17,4 °C 56 % 1016,4 hPa 0,0 mm 1,9 km/h (1 Bft) O-NO 61 ° 1 min 0,000 mm 6,1 UV-I 870 W/m² 8,5 °C 17,4 °C 3,2 km/h (1 Bft)
10.07.2019 14:58 17,6 °C 55 % 1016,3 hPa 0,0 mm 0,3 km/h (0 Bft) O-NO 62 ° 1 min 0,000 mm 6,0 UV-I 861 W/m² 8,5 °C 17,6 °C 3,2 km/h (1 Bft)
10.07.2019 14:59 17,7 °C 57 % 1016,3 hPa 0,0 mm 1,3 km/h (1 Bft) W 275 ° 1 min 0,000 mm 6,0 UV-I 860 W/m² 9,1 °C 17,7 °C 3,2 km/h (1 Bft)
10.07.2019 15:00 17,8 °C 54 % 1016,3 hPa 0,0 mm 3,1 km/h (1 Bft) NW 315 ° 1 min 0,000 mm 6,0 UV-I 868 W/m² 8,4 °C 17,8 °C 6,4 km/h (2 Bft)
10.07.2019 15:01 17,9 °C 59 % 1016,3 hPa 0,0 mm 4,0 km/h (1 Bft) N-NO 17 ° 1 min 0,508 mm 5,9 UV-I 860 W/m² 9,8 °C 17,9 °C 6,4 km/h (2 Bft)
10.07.2019 15:02 18,1 °C 56 % 1016,3 hPa 0,0 mm 3,8 km/h (1 Bft) N-NO 17 ° 1 min 0,000 mm 6,0 UV-I 858 W/m² 9,2 °C 18,1 °C 8,0 km/h (2 Bft)
10.07.2019 15:03 18,1 °C 57 % 1016,3 hPa 0,0 mm 3,8 km/h (1 Bft) N 5 ° 1 min 0,000 mm 6,0 UV-I 858 W/m² 9,4 °C 18,1 °C 6,4 km/h (2 Bft)
10.07.2019 15:04 18,1 °C 56 % 1016,4 hPa 0,0 mm 1,7 km/h (1 Bft) N-NO 25 ° 1 min 0,000 mm 6,0 UV-I 856 W/m² 9,2 °C 18,1 °C 3,2 km/h (1 Bft)
10.07.2019 15:05 18,2 °C 56 % 1016,3 hPa 0,0 mm 7,8 km/h (2 Bft) N-NO 19 ° 1 min 0,000 mm 6,0 UV-I 861 W/m² 9,3 °C 18,2 °C 14,5 km/h (3 Bft)
10.07.2019 15:06 18,3 °C 60 % 1016,3 hPa 0,0 mm 7,0 km/h (2 Bft) W-NW 292 ° 1 min 0,000 mm 6,0 UV-I 860 W/m² 10,4 °C 18,3 °C 16,1 km/h (3 Bft)
10.07.2019 15:07 18,4 °C 57 % 1016,3 hPa 0,0 mm 8,4 km/h (2 Bft) N-NO 13 ° 1 min 0,000 mm 6,0 UV-I 854 W/m² 9,7 °C 18,4 °C 14,5 km/h (3 Bft)
10.07.2019 15:08 18,5 °C 57 % 1016,4 hPa 0,0 mm 8,7 km/h (2 Bft) N-NO 26 ° 1 min 0,000 mm 5,9 UV-I 854 W/m² 9,8 °C 18,5 °C 14,5 km/h (3 Bft)
10.07.2019 15:09 18,4 °C 56 % 1016,3 hPa 0,0 mm 5,0 km/h (1 Bft) N-NO 15 ° 1 min 0,000 mm 5,9 UV-I 844 W/m² 9,5 °C 18,4 °C 8,0 km/h (2 Bft)
10.07.2019 15:10 18,3 °C 53 % 1016,4 hPa 0,0 mm 3,4 km/h (1 Bft) O-SO 109 ° 1 min 0,000 mm 5,9 UV-I 844 W/m² 8,6 °C 18,3 °C 6,4 km/h (2 Bft)
10.07.2019 15:11 18,1 °C 51 % 1016,3 hPa 0,0 mm 2,1 km/h (1 Bft) O-NO 64 ° 1 min 0,000 mm 5,9 UV-I 844 W/m² 7,8 °C 18,1 °C 4,8 km/h (1 Bft)
10.07.2019 15:12 18,1 °C 59 % 1016,3 hPa 0,0 mm 6,2 km/h (2 Bft) W 271 ° 1 min 0,000 mm 5,8 UV-I 837 W/m² 10,0 °C 18,1 °C 11,3 km/h (2 Bft)
10.07.2019 15:13 17,9 °C 52 % 1016,3 hPa 0,0 mm 8,8 km/h (2 Bft) NW 304 ° 1 min 0,000 mm 5,9 UV-I 842 W/m² 7,9 °C 17,9 °C 11,3 km/h (2 Bft)
10.07.2019 15:14 17,9 °C 52 % 1016,3 hPa 0,0 mm 7,2 km/h (2 Bft) W-NW 288 ° 1 min 0,000 mm 5,9 UV-I 846 W/m² 7,9 °C 17,9 °C 9,7 km/h (2 Bft)
10.07.2019 15:15 17,8 °C 51 % 1016,3 hPa 0,0 mm 4,5 km/h (1 Bft) W-SW 240 ° 1 min 0,000 mm 5,9 UV-I 847 W/m² 7,5 °C 17,8 °C 6,4 km/h (2 Bft)
10.07.2019 15:16 17,7 °C 56 % 1016,3 hPa 0,0 mm 2,9 km/h (1 Bft) W-SW 240 ° 1 min 0,000 mm 5,8 UV-I 842 W/m² 8,8 °C 17,7 °C 4,8 km/h (1 Bft)
10.07.2019 15:17 17,7 °C 53 % 1016,2 hPa 0,0 mm 4,4 km/h (1 Bft) W 271 ° 1 min 0,000 mm 5,8 UV-I 793 W/m² 8,0 °C 17,7 °C 9,7 km/h (2 Bft)
10.07.2019 15:18 17,6 °C 51 % 1016,2 hPa 0,0 mm 1,7 km/h (1 Bft) W 271 ° 1 min 0,000 mm 5,8 UV-I 838 W/m² 7,3 °C 17,6 °C 4,8 km/h (1 Bft)
10.07.2019 15:19 17,6 °C 53 % 1016,3 hPa 0,0 mm 3,4 km/h (1 Bft) S-SO 159 ° 1 min 0,000 mm 5,8 UV-I 833 W/m² 7,9 °C 17,6 °C 8,0 km/h (2 Bft)
10.07.2019 15:20 17,4 °C 52 % 1016,2 hPa 0,0 mm 3,3 km/h (1 Bft) S-SO 158 ° 1 min 0,000 mm 5,8 UV-I 844 W/m² 7,4 °C 17,4 °C 6,4 km/h (2 Bft)
10.07.2019 15:21 17,3 °C 52 % 1016,2 hPa 0,0 mm 0,5 km/h (0 Bft) S-SO 158 ° 1 min 0,000 mm 5,8 UV-I 844 W/m² 7,3 °C 17,3 °C 1,6 km/h (1 Bft)
10.07.2019 15:22 17,3 °C 53 % 1016,2 hPa 0,0 mm 1,3 km/h (1 Bft) N-NW 327 ° 1 min 0,000 mm 5,8 UV-I 837 W/m² 7,6 °C 17,3 °C 4,8 km/h (1 Bft)
10.07.2019 15:23 17,5 °C 54 % 1016,2 hPa 0,0 mm 4,5 km/h (1 Bft) W-NW 290 ° 1 min 0,000 mm 5,7 UV-I 831 W/m² 8,1 °C 17,5 °C 9,7 km/h (2 Bft)
10.07.2019 15:24 17,6 °C 54 % 1016,2 hPa 0,0 mm 3,2 km/h (1 Bft) N 355 ° 1 min 0,000 mm 5,7 UV-I 831 W/m² 8,2 °C 17,6 °C 4,8 km/h (1 Bft)
10.07.2019 15:25 17,7 °C 57 % 1016,2 hPa 0,0 mm 4,3 km/h (1 Bft) N-NW 339 ° 1 min 0,000 mm 5,7 UV-I 828 W/m² 9,1 °C 17,7 °C 8,0 km/h (2 Bft)
10.07.2019 15:26 17,8 °C 56 % 1016,2 hPa 0,0 mm 4,1 km/h (1 Bft) N-NW 348 ° 1 min 0,000 mm 5,6 UV-I 796 W/m² 8,9 °C 17,8 °C 6,4 km/h (2 Bft)
10.07.2019 15:27 17,9 °C 54 % 1016,2 hPa 0,0 mm 1,4 km/h (1 Bft) N 9 ° 1 min 0,000 mm 5,5 UV-I 807 W/m² 8,5 °C 17,9 °C 4,8 km/h (1 Bft)
10.07.2019 15:28 17,8 °C 53 % 1016,2 hPa 0,0 mm 0,0 km/h (0 Bft) N 9 ° 1 min 0,000 mm 5,6 UV-I 824 W/m² 8,1 °C 17,8 °C 0,0 km/h (0 Bft)
10.07.2019 15:29 17,7 °C 53 % 1016,1 hPa 0,0 mm 2,2 km/h (1 Bft) W 272 ° 1 min 0,000 mm 5,6 UV-I 826 W/m² 8,0 °C 17,7 °C 6,4 km/h (2 Bft)
10.07.2019 15:30 17,6 °C 56 % 1016,1 hPa 0,0 mm 2,8 km/h (1 Bft) W 273 ° 1 min 0,000 mm 5,6 UV-I 828 W/m² 8,7 °C 17,6 °C 3,2 km/h (1 Bft)
10.07.2019 15:31 17,7 °C 55 % 1016,1 hPa 0,0 mm 4,0 km/h (1 Bft) W-SW 251 ° 1 min 0,000 mm 5,5 UV-I 819 W/m² 8,5 °C 17,7 °C 6,4 km/h (2 Bft)
10.07.2019 15:32 17,7 °C 54 % 1016,1 hPa 0,0 mm 3,4 km/h (1 Bft) W 262 ° 1 min 0,000 mm 5,6 UV-I 842 W/m² 8,3 °C 17,7 °C 4,8 km/h (1 Bft)
10.07.2019 15:33 17,7 °C 52 % 1016,1 hPa 0,0 mm 1,4 km/h (1 Bft) W 267 ° 1 min 0,000 mm 5,6 UV-I 833 W/m² 7,7 °C 17,7 °C 4,8 km/h (1 Bft)
10.07.2019 15:34 17,7 °C 53 % 1016,1 hPa 0,0 mm 0,1 km/h (0 Bft) W 267 ° 1 min 0,000 mm 5,7 UV-I 846 W/m² 8,0 °C 17,7 °C 1,6 km/h (1 Bft)
10.07.2019 15:35 17,7 °C 53 % 1016,1 hPa 0,0 mm 0,0 km/h (0 Bft) W 267 ° 1 min 0,000 mm 5,6 UV-I 842 W/m² 8,0 °C 17,7 °C 0,0 km/h (0 Bft)
10.07.2019 15:36 17,8 °C 54 % 1016,1 hPa 0,0 mm 2,4 km/h (1 Bft) W 271 ° 1 min 0,000 mm 5,5 UV-I 837 W/m² 8,4 °C 17,8 °C 3,2 km/h (1 Bft)
10.07.2019 15:37 17,8 °C 54 % 1016,1 hPa 0,0 mm 2,9 km/h (1 Bft) NW 313 ° 1 min 0,000 mm 5,5 UV-I 849 W/m² 8,4 °C 17,8 °C 4,8 km/h (1 Bft)
10.07.2019 15:38 18,0 °C 54 % 1016,1 hPa 0,0 mm 3,9 km/h (1 Bft) NO 38 ° 1 min 0,000 mm 5,4 UV-I 817 W/m² 8,6 °C 18,0 °C 8,0 km/h (2 Bft)
10.07.2019 15:39 18,2 °C 55 % 1016,0 hPa 0,0 mm 6,6 km/h (2 Bft) NO 34 ° 1 min 0,000 mm 5,4 UV-I 812 W/m² 9,0 °C 18,2 °C 8,0 km/h (2 Bft)
10.07.2019 15:40 18,2 °C 53 % 1016,1 hPa 0,0 mm 5,3 km/h (1 Bft) N 355 ° 1 min 0,000 mm 5,3 UV-I 810 W/m² 8,5 °C 18,2 °C 8,0 km/h (2 Bft)
10.07.2019 15:41 18,2 °C 55 % 1016,0 hPa 0,0 mm 7,0 km/h (2 Bft) N-NO 25 ° 1 min 0,000 mm 5,2 UV-I 803 W/m² 9,0 °C 18,2 °C 12,9 km/h (3 Bft)
10.07.2019 15:42 18,2 °C 55 % 1016,0 hPa 0,0 mm 6,6 km/h (2 Bft) N 9 ° 1 min 0,000 mm 5,1 UV-I 800 W/m² 9,0 °C 18,2 °C 11,3 km/h (2 Bft)
10.07.2019 15:43 18,3 °C 52 % 1016,0 hPa 0,0 mm 3,6 km/h (1 Bft) N-NW 347 ° 1 min 0,000 mm 5,1 UV-I 800 W/m² 8,3 °C 18,3 °C 8,0 km/h (2 Bft)
10.07.2019 15:44 18,2 °C 53 % 1015,9 hPa 0,0 mm 6,4 km/h (2 Bft) N 360 ° 1 min 0,000 mm 5,0 UV-I 807 W/m² 8,5 °C 18,2 °C 11,3 km/h (2 Bft)
10.07.2019 15:45 18,2 °C 52 % 1016,0 hPa 0,0 mm 4,7 km/h (1 Bft) N-NO 16 ° 1 min 0,000 mm 4,9 UV-I 795 W/m² 8,2 °C 18,2 °C 8,0 km/h (2 Bft)
10.07.2019 15:46 18,2 °C 57 % 1015,9 hPa 0,0 mm 5,5 km/h (1 Bft) N-NW 338 ° 1 min 0,000 mm 4,8 UV-I 786 W/m² 9,5 °C 18,2 °C 8,0 km/h (2 Bft)
10.07.2019 15:47 18,2 °C 56 % 1015,9 hPa 0,0 mm 5,1 km/h (1 Bft) N 11 ° 1 min 0,000 mm 4,8 UV-I 779 W/m² 9,3 °C 18,2 °C 6,4 km/h (2 Bft)
10.07.2019 15:48 18,3 °C 56 % 1015,9 hPa 0,0 mm 6,7 km/h (2 Bft) NW 313 ° 1 min 0,000 mm 4,7 UV-I 773 W/m² 9,4 °C 18,3 °C 12,9 km/h (3 Bft)
10.07.2019 15:49 18,4 °C 53 % 1015,9 hPa 0,0 mm 10,8 km/h (2 Bft) NW 316 ° 1 min 0,000 mm 4,7 UV-I 742 W/m² 8,6 °C 18,4 °C 14,5 km/h (3 Bft)
10.07.2019 15:50 18,3 °C 54 % 1015,9 hPa 0,0 mm 5,8 km/h (2 Bft) W 273 ° 1 min 0,000 mm 4,7 UV-I 763 W/m² 8,8 °C 18,3 °C 9,7 km/h (2 Bft)
10.07.2019 15:51 18,3 °C 53 % 1015,9 hPa 0,0 mm 6,5 km/h (2 Bft) NW 319 ° 1 min 0,000 mm 4,6 UV-I 768 W/m² 8,6 °C 18,3 °C 9,7 km/h (2 Bft)
10.07.2019 15:52 18,2 °C 55 % 1015,9 hPa 0,0 mm 2,6 km/h (1 Bft) NW 316 ° 1 min 0,000 mm 4,6 UV-I 777 W/m² 9,0 °C 18,2 °C 6,4 km/h (2 Bft)
10.07.2019 15:53 18,1 °C 51 % 1015,9 hPa 0,0 mm 0,0 km/h (0 Bft) NW 315 ° 1 min 0,000 mm 4,6 UV-I 780 W/m² 7,8 °C 18,1 °C 0,0 km/h (0 Bft)
10.07.2019 15:54 18,1 °C 50 % 1015,9 hPa 0,0 mm 1,2 km/h (1 Bft) W-NW 286 ° 1 min 0,000 mm 4,6 UV-I 777 W/m² 7,5 °C 18,1 °C 3,2 km/h (1 Bft)
10.07.2019 15:55 17,9 °C 52 % 1015,8 hPa 0,0 mm 3,6 km/h (1 Bft) W-NW 286 ° 1 min 0,000 mm 4,6 UV-I 763 W/m² 7,9 °C 17,9 °C 4,8 km/h (1 Bft)
10.07.2019 15:56 17,9 °C 51 % 1015,8 hPa 0,0 mm 3,9 km/h (1 Bft) SW 219 ° 1 min 0,000 mm 4,5 UV-I 768 W/m² 7,6 °C 17,9 °C 4,8 km/h (1 Bft)
10.07.2019 15:57 17,8 °C 52 % 1015,8 hPa 0,0 mm 3,9 km/h (1 Bft) S 173 ° 1 min 0,000 mm 4,6 UV-I 779 W/m² 7,8 °C 17,8 °C 4,8 km/h (1 Bft)
10.07.2019 15:58 17,7 °C 51 % 1015,8 hPa 0,0 mm 1,1 km/h (1 Bft) S 173 ° 1 min 0,000 mm 4,6 UV-I 773 W/m² 7,4 °C 17,7 °C 4,8 km/h (1 Bft)
10.07.2019 15:59 17,8 °C 53 % 1015,8 hPa 0,0 mm 1,7 km/h (1 Bft) S 173 ° 1 min 0,000 mm 4,5 UV-I 768 W/m² 8,1 °C 17,8 °C 3,2 km/h (1 Bft)
10.07.2019 16:00 17,8 °C 55 % 1015,8 hPa 0,0 mm 2,6 km/h (1 Bft) S 173 ° 1 min 0,000 mm 4,4 UV-I 747 W/m² 8,6 °C 17,8 °C 4,8 km/h (1 Bft)
10.07.2019 16:01 17,8 °C 54 % 1015,8 hPa 0,0 mm 1,9 km/h (1 Bft) N-NO 24 ° 1 min 0,482 mm 4,4 UV-I 763 W/m² 8,4 °C 17,8 °C 8,0 km/h (2 Bft)
10.07.2019 16:02 17,8 °C 58 % 1015,7 hPa 0,0 mm 4,5 km/h (1 Bft) N-NO 30 ° 1 min 0,000 mm 4,4 UV-I 758 W/m² 9,4 °C 17,8 °C 8,0 km/h (2 Bft)
10.07.2019 16:03 18,1 °C 55 % 1015,8 hPa 0,0 mm 4,2 km/h (1 Bft) O-NO 71 ° 1 min 0,000 mm 4,4 UV-I 752 W/m² 8,9 °C 18,1 °C 8,0 km/h (2 Bft)
10.07.2019 16:04 18,2 °C 54 % 1015,8 hPa 0,0 mm 13,9 km/h (3 Bft) NO 46 ° 1 min 0,000 mm 4,3 UV-I 759 W/m² 8,7 °C 18,2 °C 20,9 km/h (4 Bft)
10.07.2019 16:05 18,2 °C 53 % 1015,8 hPa 0,0 mm 4,5 km/h (1 Bft) O-NO 76 ° 1 min 0,000 mm 4,3 UV-I 715 W/m² 8,5 °C 18,2 °C 9,7 km/h (2 Bft)
10.07.2019 16:06 18,1 °C 52 % 1015,8 hPa 0,0 mm 5,4 km/h (1 Bft) SO 125 ° 1 min 0,000 mm 4,1 UV-I 689 W/m² 8,1 °C 18,1 °C 6,4 km/h (2 Bft)
10.07.2019 16:07 18,0 °C 55 % 1015,9 hPa 0,0 mm 6,3 km/h (2 Bft) SO 138 ° 1 min 0,000 mm 4,2 UV-I 722 W/m² 8,8 °C 18,0 °C 8,0 km/h (2 Bft)
10.07.2019 16:08 17,9 °C 52 % 1015,8 hPa 0,0 mm 4,3 km/h (1 Bft) O-SO 103 ° 1 min 0,000 mm 4,3 UV-I 756 W/m² 7,9 °C 17,9 °C 6,4 km/h (2 Bft)
10.07.2019 16:09 17,9 °C 55 % 1015,8 hPa 0,0 mm 3,0 km/h (1 Bft) O 95 ° 1 min 0,000 mm 4,2 UV-I 742 W/m² 8,7 °C 17,9 °C 4,8 km/h (1 Bft)
10.07.2019 16:10 17,9 °C 54 % 1015,7 hPa 0,0 mm 0,9 km/h (0 Bft) O 96 ° 1 min 0,000 mm 4,2 UV-I 691 W/m² 8,5 °C 17,9 °C 3,2 km/h (1 Bft)
10.07.2019 16:11 17,8 °C 51 % 1015,8 hPa 0,0 mm 0,0 km/h (0 Bft) O 96 ° 1 min 0,000 mm 4,2 UV-I 733 W/m² 7,5 °C 17,8 °C 0,0 km/h (0 Bft)
10.07.2019 16:12 17,8 °C 50 % 1015,7 hPa 0,0 mm 0,0 km/h (0 Bft) O 96 ° 1 min 0,000 mm 4,3 UV-I 742 W/m² 7,2 °C 17,8 °C 0,0 km/h (0 Bft)
10.07.2019 16:13 17,8 °C 51 % 1015,7 hPa 0,0 mm 0,4 km/h (0 Bft) N 360 ° 1 min 0,000 mm 4,2 UV-I 687 W/m² 7,5 °C 17,8 °C 3,2 km/h (1 Bft)
10.07.2019 16:14 17,8 °C 53 % 1015,8 hPa 0,0 mm 2,1 km/h (1 Bft) N 355 ° 1 min 0,000 mm 2,8 UV-I 687 W/m² 8,1 °C 17,8 °C 4,8 km/h (1 Bft)
10.07.2019 16:15 17,8 °C 53 % 1015,8 hPa 0,0 mm 2,0 km/h (1 Bft) N 351 ° 0 min 0,000 mm 2,3 UV-I 155 W/m² 8,1 °C 17,8 °C 4,8 km/h (1 Bft)
10.07.2019 16:16 18,0 °C 52 % 1015,7 hPa 0,0 mm 4,5 km/h (1 Bft) N-NW 343 ° 0 min 0,000 mm 2,3 UV-I 104 W/m² 8,0 °C 18,0 °C 8,0 km/h (2 Bft)
10.07.2019 16:17 18,1 °C 50 % 1015,7 hPa 0,0 mm 4,8 km/h (1 Bft) N-NW 348 ° 0 min 0,000 mm 2,3 UV-I 98 W/m² 7,5 °C 18,1 °C 6,4 km/h (2 Bft)
10.07.2019 16:18 18,0 °C 50 % 1015,7 hPa 0,0 mm 1,4 km/h (1 Bft) O 100 ° 0 min 0,000 mm 2,3 UV-I 97 W/m² 7,4 °C 18,0 °C 6,4 km/h (2 Bft)
10.07.2019 16:19 18,0 °C 51 % 1015,7 hPa 0,0 mm 6,0 km/h (2 Bft) N 11 ° 0 min 0,000 mm 2,3 UV-I 90 W/m² 7,7 °C 18,0 °C 11,3 km/h (2 Bft)
10.07.2019 16:20 17,9 °C 49 % 1015,7 hPa 0,0 mm 2,8 km/h (1 Bft) O 101 ° 0 min 0,000 mm 2,2 UV-I 88 W/m² 7,0 °C 17,9 °C 4,8 km/h (1 Bft)
10.07.2019 16:21 17,9 °C 50 % 1015,6 hPa 0,0 mm 5,4 km/h (1 Bft) O-SO 115 ° 0 min 0,000 mm 2,2 UV-I 88 W/m² 7,3 °C 17,9 °C 11,3 km/h (2 Bft)
10.07.2019 16:22 17,8 °C 54 % 1015,6 hPa 0,0 mm 5,7 km/h (1 Bft) N-NO 22 ° 0 min 0,000 mm 2,2 UV-I 88 W/m² 8,4 °C 17,8 °C 9,7 km/h (2 Bft)
10.07.2019 16:23 17,9 °C 53 % 1015,7 hPa 0,0 mm 6,8 km/h (2 Bft) N 355 ° 0 min 0,000 mm 2,2 UV-I 88 W/m² 8,2 °C 17,9 °C 9,7 km/h (2 Bft)
10.07.2019 16:24 18,0 °C 52 % 1015,6 hPa 0,0 mm 6,5 km/h (2 Bft) N-NW 348 ° 0 min 0,000 mm 2,2 UV-I 90 W/m² 8,0 °C 18,0 °C 9,7 km/h (2 Bft)
10.07.2019 16:25 18,1 °C 54 % 1015,7 hPa 0,0 mm 1,9 km/h (1 Bft) N-NW 348 ° 0 min 0,000 mm 2,2 UV-I 84 W/m² 8,6 °C 18,1 °C 4,8 km/h (1 Bft)
10.07.2019 16:26 18,3 °C 54 % 1015,7 hPa 0,0 mm 3,6 km/h (1 Bft) NW 321 ° 0 min 0,000 mm 2,2 UV-I 81 W/m² 8,8 °C 18,3 °C 6,4 km/h (2 Bft)
10.07.2019 16:27 18,3 °C 52 % 1015,6 hPa 0,0 mm 5,6 km/h (1 Bft) N 360 ° 0 min 0,000 mm 2,2 UV-I 77 W/m² 8,3 °C 18,3 °C 8,0 km/h (2 Bft)
10.07.2019 16:28 18,3 °C 49 % 1015,6 hPa 0,0 mm 5,2 km/h (1 Bft) N-NO 21 ° 0 min 0,000 mm 2,2 UV-I 77 W/m² 7,4 °C 18,3 °C 6,4 km/h (2 Bft)
10.07.2019 16:29 18,3 °C 50 % 1015,7 hPa 0,0 mm 6,9 km/h (2 Bft) N-NW 329 ° 0 min 0,000 mm 2,2 UV-I 77 W/m² 7,7 °C 18,3 °C 12,9 km/h (3 Bft)
10.07.2019 16:30 18,3 °C 50 % 1015,7 hPa 0,0 mm 9,9 km/h (2 Bft) NW 321 ° 0 min 0,000 mm 2,2 UV-I 77 W/m² 7,7 °C 18,3 °C 14,5 km/h (3 Bft)
10.07.2019 16:31 18,3 °C 50 % 1015,7 hPa 0,0 mm 5,8 km/h (2 Bft) NW 318 ° 0 min 0,000 mm 2,1 UV-I 79 W/m² 7,7 °C 18,3 °C 11,3 km/h (2 Bft)
10.07.2019 16:32 18,3 °C 49 % 1015,7 hPa 0,0 mm 5,0 km/h (1 Bft) N-NO 12 ° 0 min 0,000 mm 2,1 UV-I 81 W/m² 7,4 °C 18,3 °C 8,0 km/h (2 Bft)
10.07.2019 16:33 18,3 °C 52 % 1015,7 hPa 0,0 mm 5,2 km/h (1 Bft) N 349 ° 0 min 0,000 mm 2,1 UV-I 81 W/m² 8,3 °C 18,3 °C 12,9 km/h (3 Bft)
10.07.2019 16:34 18,3 °C 52 % 1015,7 hPa 0,0 mm 9,6 km/h (2 Bft) NW 316 ° 0 min 0,000 mm 2,1 UV-I 81 W/m² 8,3 °C 18,3 °C 14,5 km/h (3 Bft)
10.07.2019 16:35 18,3 °C 48 % 1015,7 hPa 0,0 mm 3,4 km/h (1 Bft) NW 320 ° 0 min 0,000 mm 2,1 UV-I 79 W/m² 7,1 °C 18,3 °C 6,4 km/h (2 Bft)
10.07.2019 16:36 18,2 °C 48 % 1015,7 hPa 0,0 mm 1,3 km/h (1 Bft) N-NO 30 ° 0 min 0,000 mm 2,1 UV-I 83 W/m² 7,0 °C 18,2 °C 3,2 km/h (1 Bft)
10.07.2019 16:37 18,2 °C 50 % 1015,7 hPa 0,0 mm 3,2 km/h (1 Bft) N-NO 29 ° 0 min 0,000 mm 2,1 UV-I 105 W/m² 7,6 °C 18,2 °C 4,8 km/h (1 Bft)
10.07.2019 16:38 18,1 °C 48 % 1015,7 hPa 0,0 mm 3,4 km/h (1 Bft) N-NO 17 ° 0 min 0,000 mm 2,2 UV-I 167 W/m² 6,9 °C 18,1 °C 6,4 km/h (2 Bft)
10.07.2019 16:39 18,0 °C 48 % 1015,7 hPa 0,0 mm 1,6 km/h (1 Bft) NO 35 ° 0 min 0,000 mm 2,3 UV-I 178 W/m² 6,8 °C 18,0 °C 3,2 km/h (1 Bft)
10.07.2019 16:40 18,0 °C 52 % 1015,7 hPa 0,0 mm 4,1 km/h (1 Bft) N-NO 27 ° 0 min 0,000 mm 2,1 UV-I 91 W/m² 8,0 °C 18,0 °C 9,7 km/h (2 Bft)
10.07.2019 16:41 18,1 °C 47 % 1015,7 hPa 0,0 mm 6,3 km/h (2 Bft) N-NO 28 ° 0 min 0,000 mm 2,1 UV-I 84 W/m² 6,6 °C 18,1 °C 9,7 km/h (2 Bft)
10.07.2019 16:42 18,2 °C 51 % 1015,7 hPa 0,0 mm 4,6 km/h (1 Bft) O-NO 68 ° 0 min 0,000 mm 2,0 UV-I 84 W/m² 7,9 °C 18,2 °C 6,4 km/h (2 Bft)
10.07.2019 16:43 18,2 °C 50 % 1015,7 hPa 0,0 mm 2,3 km/h (1 Bft) O 88 ° 0 min 0,000 mm 2,0 UV-I 83 W/m² 7,6 °C 18,2 °C 6,4 km/h (2 Bft)
10.07.2019 16:44 18,1 °C 52 % 1015,7 hPa 0,0 mm 0,6 km/h (0 Bft) NO 34 ° 0 min 0,000 mm 2,0 UV-I 83 W/m² 8,1 °C 18,1 °C 4,8 km/h (1 Bft)
10.07.2019 16:45 18,1 °C 51 % 1015,8 hPa 0,0 mm 2,3 km/h (1 Bft) NO 51 ° 0 min 0,000 mm 2,0 UV-I 84 W/m² 7,8 °C 18,1 °C 6,4 km/h (2 Bft)
10.07.2019 16:46 18,1 °C 51 % 1015,8 hPa 0,0 mm 3,8 km/h (1 Bft) O-NO 76 ° 0 min 0,000 mm 2,0 UV-I 84 W/m² 7,8 °C 18,1 °C 8,0 km/h (2 Bft)
10.07.2019 16:47 18,1 °C 50 % 1015,8 hPa 0,0 mm 5,9 km/h (2 Bft) O-NO 61 ° 0 min 0,000 mm 2,0 UV-I 84 W/m² 7,5 °C 18,1 °C 8,0 km/h (2 Bft)
10.07.2019 16:48 17,9 °C 49 % 1015,8 hPa 0,0 mm 1,6 km/h (1 Bft) N-NO 26 ° 0 min 0,000 mm 2,0 UV-I 83 W/m² 7,0 °C 17,9 °C 6,4 km/h (2 Bft)
10.07.2019 16:49 18,0 °C 50 % 1015,8 hPa 0,0 mm 7,3 km/h (2 Bft) O-NO 59 ° 0 min 0,000 mm 2,0 UV-I 83 W/m² 7,4 °C 18,0 °C 9,7 km/h (2 Bft)
10.07.2019 16:50 18,1 °C 51 % 1015,8 hPa 0,0 mm 5,4 km/h (1 Bft) NO 44 ° 0 min 0,000 mm 1,9 UV-I 83 W/m² 7,8 °C 18,1 °C 8,0 km/h (2 Bft)
10.07.2019 16:51 18,2 °C 52 % 1015,8 hPa 0,0 mm 4,4 km/h (1 Bft) N-NO 17 ° 0 min 0,000 mm 1,9 UV-I 81 W/m² 8,2 °C 18,2 °C 12,9 km/h (3 Bft)
10.07.2019 16:52 18,2 °C 46 % 1015,8 hPa 0,0 mm 8,0 km/h (2 Bft) N 5 ° 0 min 0,000 mm 1,9 UV-I 81 W/m² 6,4 °C 18,2 °C 14,5 km/h (3 Bft)
10.07.2019 16:53 18,1 °C 48 % 1015,8 hPa 0,0 mm 1,1 km/h (1 Bft) NO 45 ° 0 min 0,000 mm 1,9 UV-I 77 W/m² 6,9 °C 18,1 °C 3,2 km/h (1 Bft)
10.07.2019 16:54 18,1 °C 49 % 1015,8 hPa 0,0 mm 2,0 km/h (1 Bft) NW 315 ° 0 min 0,000 mm 1,9 UV-I 76 W/m² 7,2 °C 18,1 °C 4,8 km/h (1 Bft)
10.07.2019 16:55 18,1 °C 50 % 1015,8 hPa 0,0 mm 6,5 km/h (2 Bft) N-NO 15 ° 0 min 0,000 mm 1,9 UV-I 76 W/m² 7,5 °C 18,1 °C 8,0 km/h (2 Bft)
10.07.2019 16:56 18,2 °C 52 % 1015,8 hPa 0,0 mm 7,3 km/h (2 Bft) N-NW 346 ° 0 min 0,000 mm 1,9 UV-I 72 W/m² 8,2 °C 18,2 °C 12,9 km/h (3 Bft)
10.07.2019 16:57 18,3 °C 51 % 1015,8 hPa 0,0 mm 6,2 km/h (2 Bft) N-NO 27 ° 0 min 0,000 mm 1,9 UV-I 72 W/m² 8,0 °C 18,3 °C 8,0 km/h (2 Bft)
10.07.2019 16:58 18,4 °C 49 % 1015,8 hPa 0,0 mm 5,9 km/h (2 Bft) N-NW 340 ° 0 min 0,000 mm 1,9 UV-I 70 W/m² 7,5 °C 18,4 °C 9,7 km/h (2 Bft)
10.07.2019 16:59 18,4 °C 48 % 1015,8 hPa 0,0 mm 1,7 km/h (1 Bft) N-NW 340 ° 0 min 0,000 mm 1,9 UV-I 70 W/m² 7,2 °C 18,4 °C 4,8 km/h (1 Bft)
10.07.2019 17:00 18,4 °C 47 % 1015,8 hPa 0,0 mm 2,7 km/h (1 Bft) N-NO 21 ° 0 min 0,000 mm 1,8 UV-I 69 W/m² 6,9 °C 18,4 °C 4,8 km/h (1 Bft)
10.07.2019 17:01 18,3 °C 48 % 1015,8 hPa 0,0 mm 3,4 km/h (1 Bft) N-NW 340 ° 0 min 0,153 mm 1,8 UV-I 69 W/m² 7,1 °C 18,3 °C 4,8 km/h (1 Bft)
10.07.2019 17:02 18,3 °C 49 % 1015,8 hPa 0,0 mm 5,0 km/h (1 Bft) N 355 ° 0 min 0,000 mm 1,8 UV-I 77 W/m² 7,4 °C 18,3 °C 8,0 km/h (2 Bft)
10.07.2019 17:03 18,2 °C 51 % 1015,8 hPa 0,0 mm 3,8 km/h (1 Bft) NO 36 ° 0 min 0,000 mm 1,8 UV-I 74 W/m² 7,9 °C 18,2 °C 6,4 km/h (2 Bft)
10.07.2019 17:04 18,2 °C 49 % 1015,7 hPa 0,0 mm 2,7 km/h (1 Bft) NO 49 ° 0 min 0,000 mm 1,8 UV-I 67 W/m² 7,3 °C 18,2 °C 4,8 km/h (1 Bft)
10.07.2019 17:05 18,2 °C 51 % 1015,8 hPa 0,0 mm 3,8 km/h (1 Bft) SW 231 ° 0 min 0,000 mm 1,8 UV-I 69 W/m² 7,9 °C 18,2 °C 6,4 km/h (2 Bft)
10.07.2019 17:06 18,3 °C 50 % 1015,7 hPa 0,0 mm 4,0 km/h (1 Bft) NW 320 ° 0 min 0,000 mm 1,8 UV-I 83 W/m² 7,7 °C 18,3 °C 6,4 km/h (2 Bft)
10.07.2019 17:07 18,4 °C 52 % 1015,8 hPa 0,0 mm 6,2 km/h (2 Bft) N-NW 342 ° 0 min 0,000 mm 1,8 UV-I 111 W/m² 8,4 °C 18,4 °C 8,0 km/h (2 Bft)
10.07.2019 17:08 18,4 °C 52 % 1015,7 hPa 0,0 mm 0,5 km/h (0 Bft) N-NW 342 ° 0 min 0,000 mm 1,8 UV-I 146 W/m² 8,4 °C 18,4 °C 4,8 km/h (1 Bft)
10.07.2019 17:09 18,4 °C 52 % 1015,7 hPa 0,0 mm 1,9 km/h (1 Bft) NW 307 ° 0 min 0,000 mm 1,8 UV-I 81 W/m² 8,4 °C 18,4 °C 6,4 km/h (2 Bft)
10.07.2019 17:10 18,4 °C 51 % 1015,7 hPa 0,0 mm 8,3 km/h (2 Bft) N-NO 32 ° 0 min 0,000 mm 1,8 UV-I 63 W/m² 8,1 °C 18,4 °C 16,1 km/h (3 Bft)
10.07.2019 17:11 18,5 °C 53 % 1015,8 hPa 0,0 mm 7,1 km/h (2 Bft) N-NW 336 ° 0 min 0,000 mm 1,7 UV-I 63 W/m² 8,7 °C 18,5 °C 9,7 km/h (2 Bft)
10.07.2019 17:12 18,5 °C 52 % 1015,8 hPa 0,0 mm 6,8 km/h (2 Bft) N 360 ° 0 min 0,000 mm 1,7 UV-I 63 W/m² 8,5 °C 18,5 °C 11,3 km/h (2 Bft)
10.07.2019 17:13 18,4 °C 50 % 1015,8 hPa 0,0 mm 6,8 km/h (2 Bft) N-NW 342 ° 0 min 0,000 mm 1,7 UV-I 65 W/m² 7,8 °C 18,4 °C 11,3 km/h (2 Bft)
10.07.2019 17:14 18,4 °C 48 % 1015,8 hPa 0,0 mm 5,4 km/h (1 Bft) NW 308 ° 0 min 0,000 mm 1,7 UV-I 65 W/m² 7,2 °C 18,4 °C 8,0 km/h (2 Bft)
10.07.2019 17:15 18,4 °C 50 % 1015,8 hPa 0,0 mm 5,3 km/h (1 Bft) N-NW 338 ° 0 min 0,000 mm 1,7 UV-I 69 W/m² 7,8 °C 18,4 °C 12,9 km/h (3 Bft)
10.07.2019 17:16 18,3 °C 49 % 1015,8 hPa 0,0 mm 1,3 km/h (1 Bft) NO 50 ° 0 min 0,000 mm 1,8 UV-I 83 W/m² 7,4 °C 18,3 °C 4,8 km/h (1 Bft)
10.07.2019 17:17 18,2 °C 49 % 1015,8 hPa 0,0 mm 5,6 km/h (1 Bft) N 351 ° 0 min 0,000 mm 1,8 UV-I 67 W/m² 7,3 °C 18,2 °C 9,7 km/h (2 Bft)
10.07.2019 17:18 18,2 °C 50 % 1015,8 hPa 0,0 mm 6,8 km/h (2 Bft) NW 321 ° 0 min 0,000 mm 1,7 UV-I 70 W/m² 7,6 °C 18,2 °C 12,9 km/h (3 Bft)
10.07.2019 17:19 18,2 °C 52 % 1015,9 hPa 0,0 mm 8,1 km/h (2 Bft) NW 317 ° 0 min 0,000 mm 1,7 UV-I 95 W/m² 8,2 °C 18,2 °C 12,9 km/h (3 Bft)
10.07.2019 17:20 18,3 °C 51 % 1015,8 hPa 0,0 mm 8,4 km/h (2 Bft) NW 321 ° 0 min 0,000 mm 1,7 UV-I 70 W/m² 8,0 °C 18,3 °C 12,9 km/h (3 Bft)
10.07.2019 17:21 18,3 °C 51 % 1015,8 hPa 0,0 mm 5,4 km/h (1 Bft) W 277 ° 0 min 0,000 mm 1,7 UV-I 86 W/m² 8,0 °C 18,3 °C 8,0 km/h (2 Bft)
10.07.2019 17:22 18,3 °C 49 % 1015,8 hPa 0,0 mm 8,4 km/h (2 Bft) W-NW 289 ° 0 min 0,000 mm 1,7 UV-I 79 W/m² 7,4 °C 18,3 °C 11,3 km/h (2 Bft)
10.07.2019 17:23 18,3 °C 50 % 1015,9 hPa 0,0 mm 10,4 km/h (2 Bft) W-NW 294 ° 0 min 0,000 mm 1,7 UV-I 67 W/m² 7,7 °C 18,3 °C 16,1 km/h (3 Bft)
10.07.2019 17:24 18,3 °C 51 % 1015,8 hPa 0,0 mm 6,3 km/h (2 Bft) NW 313 ° 0 min 0,000 mm 1,7 UV-I 70 W/m² 8,0 °C 18,3 °C 12,9 km/h (3 Bft)
10.07.2019 17:25 18,3 °C 49 % 1015,8 hPa 0,0 mm 7,2 km/h (2 Bft) N-NW 328 ° 0 min 0,000 mm 1,6 UV-I 63 W/m² 7,4 °C 18,3 °C 12,9 km/h (3 Bft)
10.07.2019 17:26 18,3 °C 50 % 1015,8 hPa 0,0 mm 7,1 km/h (2 Bft) NW 321 ° 0 min 0,000 mm 1,6 UV-I 63 W/m² 7,7 °C 18,3 °C 14,5 km/h (3 Bft)
10.07.2019 17:27 18,3 °C 49 % 1015,8 hPa 0,0 mm 5,9 km/h (2 Bft) NW 324 ° 0 min 0,000 mm 1,6 UV-I 63 W/m² 7,4 °C 18,3 °C 8,0 km/h (2 Bft)
10.07.2019 17:28 18,3 °C 51 % 1015,8 hPa 0,0 mm 7,1 km/h (2 Bft) NW 323 ° 0 min 0,000 mm 1,6 UV-I 63 W/m² 8,0 °C 18,3 °C 9,7 km/h (2 Bft)
10.07.2019 17:29 18,3 °C 49 % 1015,8 hPa 0,0 mm 5,6 km/h (1 Bft) W-NW 289 ° 0 min 0,000 mm 1,6 UV-I 62 W/m² 7,4 °C 18,3 °C 9,7 km/h (2 Bft)
10.07.2019 17:30 18,3 °C 51 % 1015,8 hPa 0,0 mm 4,2 km/h (1 Bft) W-SW 254 ° 0 min 0,000 mm 1,6 UV-I 67 W/m² 8,0 °C 18,3 °C 4,8 km/h (1 Bft)
10.07.2019 17:31 18,3 °C 48 % 1015,8 hPa 0,0 mm 3,7 km/h (1 Bft) W 261 ° 0 min 0,000 mm 1,6 UV-I 74 W/m² 7,1 °C 18,3 °C 4,8 km/h (1 Bft)
10.07.2019 17:32 18,3 °C 49 % 1015,8 hPa 0,0 mm 4,0 km/h (1 Bft) W 262 ° 0 min 0,000 mm 1,6 UV-I 91 W/m² 7,4 °C 18,3 °C 6,4 km/h (2 Bft)
10.07.2019 17:33 18,2 °C 47 % 1015,8 hPa 0,0 mm 1,1 km/h (1 Bft) W 262 ° 0 min 0,000 mm 1,6 UV-I 183 W/m² 6,7 °C 18,2 °C 3,2 km/h (1 Bft)
10.07.2019 17:34 18,2 °C 52 % 1015,8 hPa 0,0 mm 0,0 km/h (0 Bft) W 262 ° 0 min 0,000 mm 1,6 UV-I 221 W/m² 8,2 °C 18,2 °C 0,0 km/h (0 Bft)
10.07.2019 17:35 18,2 °C 50 % 1015,8 hPa 0,0 mm 0,0 km/h (0 Bft) W 262 ° 0 min 0,000 mm 1,6 UV-I 221 W/m² 7,6 °C 18,2 °C 0,0 km/h (0 Bft)
10.07.2019 17:36 18,2 °C 48 % 1015,8 hPa 0,0 mm 0,0 km/h (0 Bft) W 262 ° 0 min 0,000 mm 1,5 UV-I 58 W/m² 7,0 °C 18,2 °C 0,0 km/h (0 Bft)
10.07.2019 17:37 18,2 °C 50 % 1015,8 hPa 0,0 mm 4,3 km/h (1 Bft) NW 321 ° 0 min 0,000 mm 1,5 UV-I 58 W/m² 7,6 °C 18,2 °C 9,7 km/h (2 Bft)
10.07.2019 17:38 18,2 °C 51 % 1015,8 hPa 0,0 mm 6,0 km/h (2 Bft) N-NO 22 ° 0 min 0,000 mm 1,5 UV-I 58 W/m² 7,9 °C 18,2 °C 9,7 km/h (2 Bft)
10.07.2019 17:39 18,3 °C 49 % 1015,9 hPa 0,0 mm 7,7 km/h (2 Bft) N 360 ° 0 min 0,000 mm 1,5 UV-I 56 W/m² 7,4 °C 18,3 °C 12,9 km/h (3 Bft)
10.07.2019 17:40 18,3 °C 49 % 1015,9 hPa 0,0 mm 9,1 km/h (2 Bft) N 355 ° 0 min 0,000 mm 1,5 UV-I 56 W/m² 7,4 °C 18,3 °C 14,5 km/h (3 Bft)
10.07.2019 17:41 18,3 °C 49 % 1015,8 hPa 0,0 mm 2,8 km/h (1 Bft) N-NO 17 ° 0 min 0,000 mm 1,5 UV-I 56 W/m² 7,4 °C 18,3 °C 4,8 km/h (1 Bft)
10.07.2019 17:42 18,2 °C 50 % 1015,8 hPa 0,0 mm 7,6 km/h (2 Bft) NW 323 ° 0 min 0,000 mm 1,5 UV-I 58 W/m² 7,6 °C 18,2 °C 12,9 km/h (3 Bft)
10.07.2019 17:43 18,2 °C 48 % 1015,8 hPa 0,0 mm 5,8 km/h (2 Bft) NW 320 ° 0 min 0,000 mm 1,5 UV-I 56 W/m² 7,0 °C 18,2 °C 9,7 km/h (2 Bft)
10.07.2019 17:44 18,2 °C 49 % 1015,8 hPa 0,0 mm 3,8 km/h (1 Bft) N-NW 327 ° 0 min 0,000 mm 1,5 UV-I 56 W/m² 7,3 °C 18,2 °C 4,8 km/h (1 Bft)
10.07.2019 17:45 18,3 °C 49 % 1015,8 hPa 0,0 mm 3,8 km/h (1 Bft) W 277 ° 0 min 0,000 mm 0,0 UV-I 54 W/m² 7,4 °C 18,3 °C 4,8 km/h (1 Bft)
10.07.2019 17:46 18,3 °C 49 % 1015,8 hPa 0,0 mm 4,0 km/h (1 Bft) N-NW 333 ° 0 min 0,000 mm 1,5 UV-I 56 W/m² 7,4 °C 18,3 °C 6,4 km/h (2 Bft)
10.07.2019 17:47 18,3 °C 51 % 1015,8 hPa 0,0 mm 7,4 km/h (2 Bft) N 355 ° 0 min 0,000 mm 1,6 UV-I 63 W/m² 8,0 °C 18,3 °C 9,7 km/h (2 Bft)
10.07.2019 17:48 18,3 °C 50 % 1015,8 hPa 0,0 mm 11,1 km/h (2 Bft) N-NO 32 ° 0 min 0,000 mm 1,5 UV-I 128 W/m² 7,7 °C 18,3 °C 16,1 km/h (3 Bft)
10.07.2019 17:49 18,3 °C 48 % 1015,7 hPa 0,0 mm 4,2 km/h (1 Bft) O-NO 58 ° 0 min 0,000 mm 1,5 UV-I 63 W/m² 7,1 °C 18,3 °C 8,0 km/h (2 Bft)
10.07.2019 17:50 18,3 °C 48 % 1015,7 hPa 0,0 mm 5,3 km/h (1 Bft) NO 48 ° 0 min 0,000 mm 1,5 UV-I 65 W/m² 7,1 °C 18,3 °C 8,0 km/h (2 Bft)
10.07.2019 17:51 18,3 °C 48 % 1015,7 hPa 0,0 mm 5,7 km/h (1 Bft) NO 56 ° 0 min 0,000 mm 1,6 UV-I 56 W/m² 7,1 °C 18,3 °C 8,0 km/h (2 Bft)
10.07.2019 17:52 18,3 °C 49 % 1015,6 hPa 0,0 mm 1,9 km/h (1 Bft) NO 54 ° 0 min 0,000 mm 1,6 UV-I 56 W/m² 7,4 °C 18,3 °C 4,8 km/h (1 Bft)
10.07.2019 17:53 18,2 °C 49 % 1015,6 hPa 0,0 mm 1,0 km/h (0 Bft) NO 53 ° 0 min 0,000 mm 0,0 UV-I 63 W/m² 7,3 °C 18,2 °C 3,2 km/h (1 Bft)
10.07.2019 17:54 18,2 °C 49 % 1015,6 hPa 0,0 mm 1,5 km/h (1 Bft) NO 54 ° 0 min 0,000 mm 1,4 UV-I 69 W/m² 7,3 °C 18,2 °C 3,2 km/h (1 Bft)
10.07.2019 17:55 18,1 °C 48 % 1015,6 hPa 0,0 mm 0,6 km/h (0 Bft) NO 54 ° 0 min 0,000 mm 1,4 UV-I 86 W/m² 6,9 °C 18,1 °C 1,6 km/h (1 Bft)
10.07.2019 17:56 18,1 °C 50 % 1015,6 hPa 0,0 mm 0,0 km/h (0 Bft) NO 54 ° 0 min 0,000 mm 1,4 UV-I 91 W/m² 7,5 °C 18,1 °C 0,0 km/h (0 Bft)
10.07.2019 17:57 18,1 °C 51 % 1015,6 hPa 0,0 mm 4,1 km/h (1 Bft) W-NW 303 ° 0 min 0,000 mm 1,4 UV-I 63 W/m² 7,8 °C 18,1 °C 8,0 km/h (2 Bft)
10.07.2019 17:58 18,1 °C 50 % 1015,6 hPa 0,0 mm 4,0 km/h (1 Bft) O 84 ° 0 min 0,000 mm 1,4 UV-I 62 W/m² 7,5 °C 18,1 °C 6,4 km/h (2 Bft)
10.07.2019 17:59 18,2 °C 50 % 1015,7 hPa 0,0 mm 5,5 km/h (1 Bft) NW 313 ° 0 min 0,000 mm 1,4 UV-I 53 W/m² 7,6 °C 18,2 °C 9,7 km/h (2 Bft)
10.07.2019 18:00 18,2 °C 50 % 1015,6 hPa 0,0 mm 2,8 km/h (1 Bft) NW 322 ° 0 min 0,000 mm 0,0 UV-I 53 W/m² 7,6 °C 18,2 °C 8,0 km/h (2 Bft)
10.07.2019 18:01 18,2 °C 51 % 1015,7 hPa 0,0 mm 3,8 km/h (1 Bft) W-NW 283 ° 0 min 0,076 mm 1,3 UV-I 60 W/m² 7,9 °C 18,2 °C 9,7 km/h (2 Bft)
10.07.2019 18:02 18,2 °C 48 % 1015,6 hPa 0,0 mm 6,0 km/h (2 Bft) NW 320 ° 0 min 0,000 mm 1,3 UV-I 60 W/m² 7,0 °C 18,2 °C 8,0 km/h (2 Bft)
10.07.2019 18:03 18,3 °C 48 % 1015,6 hPa 0,0 mm 4,1 km/h (1 Bft) N-NO 18 ° 0 min 0,000 mm 1,4 UV-I 60 W/m² 7,1 °C 18,3 °C 8,0 km/h (2 Bft)
10.07.2019 18:04 18,3 °C 48 % 1015,7 hPa 0,0 mm 4,2 km/h (1 Bft) N 5 ° 0 min 0,000 mm 1,4 UV-I 69 W/m² 7,1 °C 18,3 °C 6,4 km/h (2 Bft)
10.07.2019 18:05 18,2 °C 49 % 1015,6 hPa 0,0 mm 2,5 km/h (1 Bft) N-NW 329 ° 0 min 0,000 mm 1,4 UV-I 56 W/m² 7,3 °C 18,2 °C 4,8 km/h (1 Bft)
10.07.2019 18:06 18,2 °C 48 % 1015,6 hPa 0,0 mm 4,3 km/h (1 Bft) N-NW 347 ° 0 min 0,000 mm 1,3 UV-I 58 W/m² 7,0 °C 18,2 °C 8,0 km/h (2 Bft)
10.07.2019 18:07 18,3 °C 51 % 1015,6 hPa 0,0 mm 4,3 km/h (1 Bft) N 360 ° 0 min 0,000 mm 1,3 UV-I 56 W/m² 8,0 °C 18,3 °C 6,4 km/h (2 Bft)
10.07.2019 18:08 18,3 °C 51 % 1015,6 hPa 0,0 mm 7,0 km/h (2 Bft) N-NW 335 ° 0 min 0,000 mm 1,3 UV-I 81 W/m² 8,0 °C 18,3 °C 12,9 km/h (3 Bft)
10.07.2019 18:09 18,4 °C 51 % 1015,6 hPa 0,0 mm 5,4 km/h (1 Bft) W-NW 294 ° 0 min 0,000 mm 1,3 UV-I 107 W/m² 8,1 °C 18,4 °C 6,4 km/h (2 Bft)
10.07.2019 18:10 18,4 °C 50 % 1015,6 hPa 0,0 mm 6,5 km/h (2 Bft) W 259 ° 0 min 0,000 mm 1,3 UV-I 88 W/m² 7,8 °C 18,4 °C 9,7 km/h (2 Bft)
10.07.2019 18:11 18,4 °C 50 % 1015,6 hPa 0,0 mm 6,4 km/h (2 Bft) W 266 ° 0 min 0,000 mm 1,4 UV-I 72 W/m² 7,8 °C 18,4 °C 12,9 km/h (3 Bft)
10.07.2019 18:12 18,4 °C 50 % 1015,5 hPa 0,0 mm 5,2 km/h (1 Bft) N-NW 344 ° 0 min 0,000 mm 1,3 UV-I 70 W/m² 7,8 °C 18,4 °C 11,3 km/h (2 Bft)
10.07.2019 18:13 18,4 °C 51 % 1015,6 hPa 0,0 mm 8,6 km/h (2 Bft) N 10 ° 0 min 0,000 mm 0,0 UV-I 54 W/m² 8,1 °C 18,4 °C 12,9 km/h (3 Bft)
10.07.2019 18:14 18,4 °C 50 % 1015,6 hPa 0,0 mm 5,3 km/h (1 Bft) N 9 ° 0 min 0,000 mm 0,0 UV-I 54 W/m² 7,8 °C 18,4 °C 11,3 km/h (2 Bft)
10.07.2019 18:15 18,4 °C 49 % 1015,6 hPa 0,0 mm 6,0 km/h (2 Bft) N 5 ° 0 min 0,000 mm 1,3 UV-I 56 W/m² 7,5 °C 18,4 °C 11,3 km/h (2 Bft)
10.07.2019 18:16 18,3 °C 50 % 1015,6 hPa 0,0 mm 3,2 km/h (1 Bft) N 5 ° 0 min 0,000 mm 1,3 UV-I 69 W/m² 7,7 °C 18,3 °C 4,8 km/h (1 Bft)
10.07.2019 18:17 18,3 °C 49 % 1015,6 hPa 0,0 mm 1,0 km/h (0 Bft) N 5 ° 0 min 0,000 mm 1,3 UV-I 69 W/m² 7,4 °C 18,3 °C 3,2 km/h (1 Bft)
10.07.2019 18:18 18,2 °C 50 % 1015,6 hPa 0,0 mm 6,1 km/h (2 Bft) N 350 ° 0 min 0,000 mm 1,3 UV-I 67 W/m² 7,6 °C 18,2 °C 14,5 km/h (3 Bft)
10.07.2019 18:19 18,2 °C 50 % 1015,6 hPa 0,0 mm 9,3 km/h (2 Bft) N-NW 333 ° 0 min 0,000 mm 1,2 UV-I 56 W/m² 7,6 °C 18,2 °C 14,5 km/h (3 Bft)
10.07.2019 18:20 18,2 °C 50 % 1015,6 hPa 0,0 mm 4,4 km/h (1 Bft) NW 310 ° 0 min 0,000 mm 0,0 UV-I 53 W/m² 7,6 °C 18,2 °C 6,4 km/h (2 Bft)
10.07.2019 18:21 18,2 °C 51 % 1015,6 hPa 0,0 mm 2,5 km/h (1 Bft) N-NW 328 ° 0 min 0,000 mm 0,0 UV-I 53 W/m² 7,9 °C 18,2 °C 4,8 km/h (1 Bft)
10.07.2019 18:22 18,3 °C 53 % 1015,6 hPa 0,0 mm 4,8 km/h (1 Bft) NO 48 ° 0 min 0,000 mm 0,0 UV-I 56 W/m² 8,6 °C 18,3 °C 8,0 km/h (2 Bft)
10.07.2019 18:23 18,3 °C 51 % 1015,6 hPa 0,0 mm 5,2 km/h (1 Bft) O-NO 65 ° 0 min 0,000 mm 0,0 UV-I 54 W/m² 8,0 °C 18,3 °C 8,0 km/h (2 Bft)
10.07.2019 18:24 18,2 °C 50 % 1015,6 hPa 0,0 mm 4,2 km/h (1 Bft) O-NO 61 ° 0 min 0,000 mm 1,2 UV-I 56 W/m² 7,6 °C 18,2 °C 6,4 km/h (2 Bft)
10.07.2019 18:25 18,2 °C 49 % 1015,6 hPa 0,0 mm 0,4 km/h (0 Bft) O-NO 61 ° 0 min 0,000 mm 0,0 UV-I 54 W/m² 7,3 °C 18,2 °C 3,2 km/h (1 Bft)
10.07.2019 18:26 18,2 °C 50 % 1015,7 hPa 0,0 mm 0,0 km/h (0 Bft) O-NO 61 ° 0 min 0,000 mm 0,0 UV-I 53 W/m² 7,6 °C 18,2 °C 0,0 km/h (0 Bft)
10.07.2019 18:27 18,2 °C 51 % 1015,6 hPa 0,0 mm 0,1 km/h (0 Bft) O 88 ° 0 min 0,000 mm 0,0 UV-I 54 W/m² 7,9 °C 18,2 °C 1,6 km/h (1 Bft)
10.07.2019 18:28 18,2 °C 51 % 1015,6 hPa 0,0 mm 5,8 km/h (2 Bft) O 83 ° 0 min 0,000 mm 0,0 UV-I 56 W/m² 7,9 °C 18,2 °C 8,0 km/h (2 Bft)
10.07.2019 18:29 18,2 °C 51 % 1015,6 hPa 0,0 mm 3,6 km/h (1 Bft) NO 44 ° 0 min 0,000 mm 1,2 UV-I 58 W/m² 7,9 °C 18,2 °C 4,8 km/h (1 Bft)
10.07.2019 18:30 18,2 °C 52 % 1015,6 hPa 0,0 mm 0,9 km/h (0 Bft) NO 44 ° 0 min 0,000 mm 1,1 UV-I 58 W/m² 8,2 °C 18,2 °C 4,8 km/h (1 Bft)
10.07.2019 18:31 18,2 °C 49 % 1015,6 hPa 0,0 mm 0,7 km/h (0 Bft) NO 44 ° 0 min 0,000 mm 1,1 UV-I 60 W/m² 7,3 °C 18,2 °C 3,2 km/h (1 Bft)
10.07.2019 18:32 18,1 °C 51 % 1015,6 hPa 0,0 mm 0,7 km/h (0 Bft) N 5 ° 0 min 0,000 mm 1,1 UV-I 56 W/m² 7,8 °C 18,1 °C 3,2 km/h (1 Bft)
10.07.2019 18:33 18,1 °C 53 % 1015,6 hPa 0,0 mm 2,9 km/h (1 Bft) N 350 ° 0 min 0,000 mm 1,1 UV-I 72 W/m² 8,4 °C 18,1 °C 3,2 km/h (1 Bft)
10.07.2019 18:34 18,2 °C 51 % 1015,6 hPa 0,0 mm 2,7 km/h (1 Bft) N 350 ° 0 min 0,000 mm 1,2 UV-I 86 W/m² 7,9 °C 18,2 °C 4,8 km/h (1 Bft)
10.07.2019 18:35 18,2 °C 51 % 1015,6 hPa 0,0 mm 3,2 km/h (1 Bft) N-NO 15 ° 0 min 0,000 mm 1,3 UV-I 116 W/m² 7,9 °C 18,2 °C 6,4 km/h (2 Bft)
10.07.2019 18:36 18,3 °C 51 % 1015,6 hPa 0,0 mm 3,6 km/h (1 Bft) N-NW 348 ° 0 min 0,000 mm 1,5 UV-I 116 W/m² 8,0 °C 18,3 °C 6,4 km/h (2 Bft)
10.07.2019 18:37 18,3 °C 49 % 1015,6 hPa 0,0 mm 0,8 km/h (0 Bft) NO 41 ° 0 min 0,000 mm 1,2 UV-I 116 W/m² 7,4 °C 18,3 °C 3,2 km/h (1 Bft)
10.07.2019 18:38 18,3 °C 50 % 1015,7 hPa 0,0 mm 0,3 km/h (0 Bft) NO 41 ° 0 min 0,000 mm 1,1 UV-I 62 W/m² 7,7 °C 18,3 °C 1,6 km/h (1 Bft)
10.07.2019 18:39 18,3 °C 51 % 1015,6 hPa 0,0 mm 0,0 km/h (0 Bft) N-NW 342 ° 0 min 0,000 mm 1,4 UV-I 62 W/m² 8,0 °C 18,3 °C 0,0 km/h (0 Bft)
10.07.2019 18:40 18,3 °C 52 % 1015,6 hPa 0,0 mm 4,0 km/h (1 Bft) N 5 ° 0 min 0,000 mm 1,4 UV-I 62 W/m² 8,3 °C 18,3 °C 6,4 km/h (2 Bft)
10.07.2019 18:41 18,3 °C 50 % 1015,6 hPa 0,0 mm 4,5 km/h (1 Bft) NW 315 ° 0 min 0,000 mm 1,3 UV-I 341 W/m² 7,7 °C 18,3 °C 6,4 km/h (2 Bft)
10.07.2019 18:42 18,3 °C 51 % 1015,6 hPa 0,0 mm 4,3 km/h (1 Bft) NW 313 ° 0 min 0,000 mm 1,2 UV-I 244 W/m² 8,0 °C 18,3 °C 6,4 km/h (2 Bft)
10.07.2019 18:43 18,2 °C 50 % 1015,6 hPa 0,0 mm 5,9 km/h (2 Bft) N-NW 334 ° 0 min 0,000 mm 1,1 UV-I 169 W/m² 7,6 °C 18,2 °C 8,0 km/h (2 Bft)
10.07.2019 18:44 18,3 °C 50 % 1015,6 hPa 0,0 mm 8,2 km/h (2 Bft) N 5 ° 0 min 0,000 mm 1,1 UV-I 95 W/m² 7,7 °C 18,3 °C 14,5 km/h (3 Bft)
10.07.2019 18:45 18,3 °C 51 % 1015,7 hPa 0,0 mm 4,6 km/h (1 Bft) N-NW 329 ° 0 min 0,000 mm 1,0 UV-I 77 W/m² 8,0 °C 18,3 °C 6,4 km/h (2 Bft)
10.07.2019 18:46 18,3 °C 51 % 1015,6 hPa 0,0 mm 1,2 km/h (1 Bft) N-NW 329 ° 0 min 0,000 mm 1,0 UV-I 65 W/m² 8,0 °C 18,3 °C 4,8 km/h (1 Bft)
10.07.2019 18:47 18,3 °C 52 % 1015,7 hPa 0,0 mm 2,4 km/h (1 Bft) N 355 ° 0 min 0,000 mm 1,3 UV-I 149 W/m² 8,3 °C 18,3 °C 4,8 km/h (1 Bft)
10.07.2019 18:48 18,2 °C 50 % 1015,7 hPa 0,0 mm 3,0 km/h (1 Bft) N 355 ° 0 min 0,000 mm 0,0 UV-I 54 W/m² 7,6 °C 18,2 °C 6,4 km/h (2 Bft)
10.07.2019 18:49 18,2 °C 50 % 1015,7 hPa 0,0 mm 1,5 km/h (1 Bft) N 355 ° 0 min 0,000 mm 1,1 UV-I 95 W/m² 7,6 °C 18,2 °C 3,2 km/h (1 Bft)
10.07.2019 18:50 18,1 °C 50 % 1015,6 hPa 0,0 mm 0,5 km/h (0 Bft) N-NO 19 ° 0 min 0,000 mm 1,3 UV-I 193 W/m² 7,5 °C 18,1 °C 4,8 km/h (1 Bft)
10.07.2019 18:51 18,1 °C 51 % 1015,6 hPa 0,0 mm 3,1 km/h (1 Bft) N 360 ° 0 min 0,000 mm 1,3 UV-I 171 W/m² 7,8 °C 18,1 °C 4,8 km/h (1 Bft)
10.07.2019 18:52 18,1 °C 52 % 1015,6 hPa 0,0 mm 1,4 km/h (1 Bft) N 360 ° 0 min 0,000 mm 1,2 UV-I 171 W/m² 8,1 °C 18,1 °C 3,2 km/h (1 Bft)
10.07.2019 18:53 18,1 °C 52 % 1015,6 hPa 0,0 mm 1,1 km/h (1 Bft) N 360 ° 0 min 0,000 mm 1,1 UV-I 149 W/m² 8,1 °C 18,1 °C 4,8 km/h (1 Bft)
10.07.2019 18:54 18,2 °C 53 % 1015,6 hPa 0,0 mm 2,7 km/h (1 Bft) NO 48 ° 0 min 0,000 mm 1,0 UV-I 93 W/m² 8,5 °C 18,2 °C 4,8 km/h (1 Bft)
10.07.2019 18:55 18,2 °C 50 % 1015,6 hPa 0,0 mm 1,6 km/h (1 Bft) NO 41 ° 0 min 0,000 mm 1,0 UV-I 84 W/m² 7,6 °C 18,2 °C 4,8 km/h (1 Bft)
10.07.2019 18:56 18,2 °C 51 % 1015,7 hPa 0,0 mm 0,5 km/h (0 Bft) NO 41 ° 0 min 0,000 mm 1,0 UV-I 95 W/m² 7,9 °C 18,2 °C 1,6 km/h (1 Bft)
10.07.2019 18:57 18,2 °C 49 % 1015,7 hPa 0,0 mm 1,0 km/h (0 Bft) NO 41 ° 0 min 0,000 mm 1,0 UV-I 70 W/m² 7,3 °C 18,2 °C 1,6 km/h (1 Bft)
10.07.2019 18:58 18,2 °C 49 % 1015,6 hPa 0,0 mm 1,0 km/h (0 Bft) N-NW 331 ° 0 min 0,000 mm 1,1 UV-I 100 W/m² 7,3 °C 18,2 °C 4,8 km/h (1 Bft)
10.07.2019 18:59 18,2 °C 51 % 1015,7 hPa 0,0 mm 5,1 km/h (1 Bft) NW 321 ° 0 min 0,000 mm 1,1 UV-I 141 W/m² 7,9 °C 18,2 °C 6,4 km/h (2 Bft)
10.07.2019 19:00 18,2 °C 52 % 1015,6 hPa 0,0 mm 3,9 km/h (1 Bft) N-NW 329 ° 0 min 0,000 mm 1,1 UV-I 111 W/m² 8,2 °C 18,2 °C 6,4 km/h (2 Bft)
10.07.2019 19:01 18,2 °C 50 % 1015,7 hPa 0,0 mm 3,8 km/h (1 Bft) N-NW 333 ° 0 min 0,076 mm 1,1 UV-I 93 W/m² 7,6 °C 18,2 °C 4,8 km/h (1 Bft)
10.07.2019 19:02 18,2 °C 49 % 1015,7 hPa 0,0 mm 4,4 km/h (1 Bft) N 5 ° 0 min 0,000 mm 1,1 UV-I 77 W/m² 7,3 °C 18,2 °C 6,4 km/h (2 Bft)
10.07.2019 19:03 18,2 °C 48 % 1015,7 hPa 0,0 mm 4,6 km/h (1 Bft) N-NO 15 ° 0 min 0,000 mm 1,1 UV-I 158 W/m² 7,0 °C 18,2 °C 6,4 km/h (2 Bft)
10.07.2019 19:04 18,1 °C 48 % 1015,7 hPa 0,0 mm 0,5 km/h (0 Bft) N-NO 15 ° 0 min 0,000 mm 1,1 UV-I 213 W/m² 6,9 °C 18,1 °C 3,2 km/h (1 Bft)
10.07.2019 19:05 18,1 °C 47 % 1015,6 hPa 0,0 mm 0,0 km/h (0 Bft) N-NO 15 ° 0 min 0,000 mm 1,0 UV-I 199 W/m² 6,6 °C 18,1 °C 0,0 km/h (0 Bft)
10.07.2019 19:06 18,1 °C 47 % 1015,7 hPa 0,0 mm 0,0 km/h (0 Bft) N-NO 15 ° 0 min 0,000 mm 1,0 UV-I 179 W/m² 6,6 °C 18,1 °C 0,0 km/h (0 Bft)
10.07.2019 19:07 17,9 °C 50 % 1015,7 hPa 0,0 mm 1,3 km/h (1 Bft) N-NO 15 ° 0 min 0,000 mm 1,0 UV-I 188 W/m² 7,3 °C 17,9 °C 3,2 km/h (1 Bft)
10.07.2019 19:08 18,0 °C 50 % 1015,6 hPa 0,0 mm 0,1 km/h (0 Bft) N-NO 15 ° 0 min 0,000 mm 1,0 UV-I 218 W/m² 7,4 °C 18,0 °C 1,6 km/h (1 Bft)
10.07.2019 19:09 18,0 °C 52 % 1015,6 hPa 0,0 mm 1,3 km/h (1 Bft) N-NO 15 ° 0 min 0,000 mm 1,0 UV-I 239 W/m² 8,0 °C 18,0 °C 3,2 km/h (1 Bft)
10.07.2019 19:10 18,1 °C 51 % 1015,6 hPa 0,0 mm 0,1 km/h (0 Bft) N-NO 15 ° 0 min 0,000 mm 1,0 UV-I 232 W/m² 7,8 °C 18,1 °C 1,6 km/h (1 Bft)
10.07.2019 19:11 18,1 °C 50 % 1015,6 hPa 0,0 mm 1,8 km/h (1 Bft) O-NO 68 ° 0 min 0,000 mm 0,9 UV-I 221 W/m² 7,5 °C 18,1 °C 3,2 km/h (1 Bft)
10.07.2019 19:12 18,1 °C 50 % 1015,6 hPa 0,0 mm 5,5 km/h (1 Bft) NO 54 ° 0 min 0,000 mm 0,9 UV-I 232 W/m² 7,5 °C 18,1 °C 8,0 km/h (2 Bft)
10.07.2019 19:13 18,1 °C 51 % 1015,6 hPa 0,0 mm 3,2 km/h (1 Bft) NO 55 ° 0 min 0,000 mm 0,9 UV-I 134 W/m² 7,8 °C 18,1 °C 6,4 km/h (2 Bft)
10.07.2019 19:14 18,1 °C 51 % 1015,6 hPa 0,0 mm 3,1 km/h (1 Bft) O-NO 57 ° 0 min 0,000 mm 0,9 UV-I 74 W/m² 7,8 °C 18,1 °C 6,4 km/h (2 Bft)
10.07.2019 19:15 18,0 °C 54 % 1015,6 hPa 0,0 mm 5,2 km/h (1 Bft) N-NO 23 ° 0 min 0,000 mm 0,8 UV-I 83 W/m² 8,6 °C 18,0 °C 6,4 km/h (2 Bft)
10.07.2019 19:16 18,0 °C 51 % 1015,6 hPa 0,0 mm 2,3 km/h (1 Bft) NO 47 ° 0 min 0,000 mm 0,0 UV-I 53 W/m² 7,7 °C 18,0 °C 4,8 km/h (1 Bft)
10.07.2019 19:17 18,0 °C 51 % 1015,6 hPa 0,0 mm 4,4 km/h (1 Bft) NO 51 ° 0 min 0,000 mm 0,0 UV-I 49 W/m² 7,7 °C 18,0 °C 8,0 km/h (2 Bft)
10.07.2019 19:18 18,0 °C 49 % 1015,6 hPa 0,0 mm 2,8 km/h (1 Bft) O-NO 63 ° 0 min 0,000 mm 0,9 UV-I 83 W/m² 7,1 °C 18,0 °C 4,8 km/h (1 Bft)
10.07.2019 19:19 18,0 °C 51 % 1015,6 hPa 0,0 mm 2,3 km/h (1 Bft) NO 44 ° 0 min 0,000 mm 0,9 UV-I 127 W/m² 7,7 °C 18,0 °C 6,4 km/h (2 Bft)
10.07.2019 19:20 18,1 °C 50 % 1015,6 hPa 0,0 mm 2,6 km/h (1 Bft) NO 44 ° 0 min 0,000 mm 0,8 UV-I 178 W/m² 7,5 °C 18,1 °C 3,2 km/h (1 Bft)
10.07.2019 19:21 18,1 °C 51 % 1015,6 hPa 0,0 mm 3,7 km/h (1 Bft) N-NO 28 ° 0 min 0,000 mm 0,8 UV-I 169 W/m² 7,8 °C 18,1 °C 6,4 km/h (2 Bft)
10.07.2019 19:22 18,1 °C 51 % 1015,6 hPa 0,0 mm 2,9 km/h (1 Bft) NO 37 ° 0 min 0,000 mm 0,8 UV-I 186 W/m² 7,8 °C 18,1 °C 4,8 km/h (1 Bft)
10.07.2019 19:23 18,1 °C 50 % 1015,7 hPa 0,0 mm 1,5 km/h (1 Bft) NO 37 ° 0 min 0,000 mm 0,8 UV-I 202 W/m² 7,5 °C 18,1 °C 4,8 km/h (1 Bft)
10.07.2019 19:24 18,2 °C 53 % 1015,6 hPa 0,0 mm 0,5 km/h (0 Bft) NO 37 ° 0 min 0,000 mm 0,8 UV-I 200 W/m² 8,5 °C 18,2 °C 1,6 km/h (1 Bft)
10.07.2019 19:25 18,1 °C 54 % 1015,6 hPa 0,0 mm 2,7 km/h (1 Bft) NO 44 ° 0 min 0,000 mm 0,8 UV-I 199 W/m² 8,6 °C 18,1 °C 4,8 km/h (1 Bft)
10.07.2019 19:26 18,1 °C 50 % 1015,6 hPa 0,0 mm 2,7 km/h (1 Bft) NO 45 ° 0 min 0,000 mm 0,8 UV-I 199 W/m² 7,5 °C 18,1 °C 4,8 km/h (1 Bft)
10.07.2019 19:27 18,1 °C 49 % 1015,7 hPa 0,0 mm 3,0 km/h (1 Bft) N 9 ° 0 min 0,000 mm 0,8 UV-I 199 W/m² 7,2 °C 18,1 °C 8,0 km/h (2 Bft)
10.07.2019 19:28 18,1 °C 49 % 1015,6 hPa 0,0 mm 3,8 km/h (1 Bft) NO 56 ° 0 min 0,000 mm 0,7 UV-I 193 W/m² 7,2 °C 18,1 °C 8,0 km/h (2 Bft)
10.07.2019 19:29 18,1 °C 50 % 1015,6 hPa 0,0 mm 4,0 km/h (1 Bft) NO 38 ° 0 min 0,000 mm 0,7 UV-I 188 W/m² 7,5 °C 18,1 °C 6,4 km/h (2 Bft)
10.07.2019 19:30 18,1 °C 48 % 1015,6 hPa 0,0 mm 4,5 km/h (1 Bft) NO 46 ° 0 min 0,000 mm 0,7 UV-I 186 W/m² 6,9 °C 18,1 °C 6,4 km/h (2 Bft)
10.07.2019 19:31 18,1 °C 49 % 1015,6 hPa 0,0 mm 3,6 km/h (1 Bft) N 5 ° 0 min 0,000 mm 0,7 UV-I 185 W/m² 7,2 °C 18,1 °C 8,0 km/h (2 Bft)
10.07.2019 19:32 18,0 °C 49 % 1015,6 hPa 0,0 mm 4,8 km/h (1 Bft) N-NO 17 ° 0 min 0,000 mm 0,7 UV-I 179 W/m² 7,1 °C 18,0 °C 8,0 km/h (2 Bft)
10.07.2019 19:33 17,9 °C 50 % 1015,6 hPa 0,0 mm 5,4 km/h (1 Bft) N-NO 18 ° 0 min 0,000 mm 0,7 UV-I 176 W/m² 7,3 °C 17,9 °C 8,0 km/h (2 Bft)
10.07.2019 19:34 18,0 °C 51 % 1015,7 hPa 0,0 mm 4,8 km/h (1 Bft) N 5 ° 0 min 0,000 mm 0,7 UV-I 176 W/m² 7,7 °C 18,0 °C 6,4 km/h (2 Bft)
10.07.2019 19:35 18,0 °C 50 % 1015,6 hPa 0,0 mm 1,9 km/h (1 Bft) N 5 ° 0 min 0,000 mm 0,7 UV-I 172 W/m² 7,4 °C 18,0 °C 4,8 km/h (1 Bft)
10.07.2019 19:36 18,0 °C 51 % 1015,6 hPa 0,0 mm 0,3 km/h (0 Bft) N 5 ° 0 min 0,000 mm 0,6 UV-I 172 W/m² 7,7 °C 18,0 °C 1,6 km/h (1 Bft)
10.07.2019 19:37 18,1 °C 51 % 1015,6 hPa 0,0 mm 0,0 km/h (0 Bft) N 5 ° 0 min 0,000 mm 0,6 UV-I 167 W/m² 7,8 °C 18,1 °C 0,0 km/h (0 Bft)
10.07.2019 19:38 17,9 °C 53 % 1015,6 hPa 0,0 mm 0,3 km/h (0 Bft) N 5 ° 0 min 0,000 mm 0,6 UV-I 163 W/m² 8,2 °C 17,9 °C 1,6 km/h (1 Bft)
10.07.2019 19:39 17,9 °C 52 % 1015,6 hPa 0,0 mm 1,7 km/h (1 Bft) N 5 ° 0 min 0,000 mm 0,6 UV-I 162 W/m² 7,9 °C 17,9 °C 4,8 km/h (1 Bft)
10.07.2019 19:40 17,9 °C 50 % 1015,6 hPa 0,0 mm 1,7 km/h (1 Bft) N 5 ° 0 min 0,000 mm 0,6 UV-I 160 W/m² 7,3 °C 17,9 °C 3,2 km/h (1 Bft)
10.07.2019 19:41 17,9 °C 52 % 1015,7 hPa 0,0 mm 0,7 km/h (0 Bft) N 5 ° 0 min 0,000 mm 0,6 UV-I 158 W/m² 7,9 °C 17,9 °C 1,6 km/h (1 Bft)
10.07.2019 19:42 17,9 °C 52 % 1015,6 hPa 0,0 mm 0,5 km/h (0 Bft) N 5 ° 0 min 0,000 mm 0,6 UV-I 155 W/m² 7,9 °C 17,9 °C 1,6 km/h (1 Bft)
10.07.2019 19:43 18,0 °C 53 % 1015,6 hPa 0,0 mm 0,0 km/h (0 Bft) N 5 ° 0 min 0,000 mm 0,6 UV-I 153 W/m² 8,3 °C 18,0 °C 0,0 km/h (0 Bft)
10.07.2019 19:44 18,1 °C 53 % 1015,6 hPa 0,0 mm 1,3 km/h (1 Bft) N 5 ° 0 min 0,000 mm 0,6 UV-I 146 W/m² 8,4 °C 18,1 °C 4,8 km/h (1 Bft)
10.07.2019 19:45 18,1 °C 51 % 1015,6 hPa 0,0 mm 4,6 km/h (1 Bft) N 9 ° 0 min 0,000 mm 0,6 UV-I 144 W/m² 7,8 °C 18,1 °C 8,0 km/h (2 Bft)
10.07.2019 19:46 18,1 °C 52 % 1015,6 hPa 0,0 mm 0,3 km/h (0 Bft) N 9 ° 0 min 0,000 mm 0,5 UV-I 141 W/m² 8,1 °C 18,1 °C 3,2 km/h (1 Bft)
10.07.2019 19:47 18,1 °C 50 % 1015,6 hPa 0,0 mm 1,0 km/h (0 Bft) N 9 ° 0 min 0,000 mm 0,5 UV-I 139 W/m² 7,5 °C 18,1 °C 3,2 km/h (1 Bft)
10.07.2019 19:48 18,1 °C 52 % 1015,6 hPa 0,0 mm 0,1 km/h (0 Bft) N 9 ° 0 min 0,000 mm 0,5 UV-I 137 W/m² 8,1 °C 18,1 °C 1,6 km/h (1 Bft)
10.07.2019 19:49 18,1 °C 52 % 1015,6 hPa 0,0 mm 0,0 km/h (0 Bft) N 9 ° 0 min 0,000 mm 0,5 UV-I 135 W/m² 8,1 °C 18,1 °C 0,0 km/h (0 Bft)
10.07.2019 19:50 18,0 °C 54 % 1015,7 hPa 0,0 mm 0,0 km/h (0 Bft) N 9 ° 0 min 0,000 mm 0,5 UV-I 132 W/m² 8,6 °C 18,0 °C 0,0 km/h (0 Bft)
10.07.2019 19:51 17,9 °C 54 % 1015,6 hPa 0,0 mm 0,0 km/h (0 Bft) N 9 ° 0 min 0,000 mm 0,5 UV-I 128 W/m² 8,5 °C 17,9 °C 0,0 km/h (0 Bft)
10.07.2019 19:52 17,7 °C 56 % 1015,7 hPa 0,0 mm 0,0 km/h (0 Bft) N 9 ° 0 min 0,000 mm 0,5 UV-I 127 W/m² 8,8 °C 17,7 °C 0,0 km/h (0 Bft)
10.07.2019 19:53 17,7 °C 55 % 1015,6 hPa 0,0 mm 0,5 km/h (0 Bft) N 9 ° 0 min 0,000 mm 0,5 UV-I 123 W/m² 8,5 °C 17,7 °C 1,6 km/h (1 Bft)
10.07.2019 19:54 17,6 °C 59 % 1015,7 hPa 0,0 mm 0,5 km/h (0 Bft) N 9 ° 0 min 0,000 mm 0,5 UV-I 121 W/m² 9,5 °C 17,6 °C 1,6 km/h (1 Bft)
10.07.2019 19:55 17,6 °C 57 % 1015,7 hPa 0,0 mm 1,2 km/h (1 Bft) N 9 ° 0 min 0,000 mm 0,5 UV-I 116 W/m² 9,0 °C 17,6 °C 3,2 km/h (1 Bft)
10.07.2019 19:56 17,5 °C 56 % 1015,7 hPa 0,0 mm 2,7 km/h (1 Bft) N 355 ° 0 min 0,000 mm 0,5 UV-I 114 W/m² 8,6 °C 17,5 °C 4,8 km/h (1 Bft)
10.07.2019 19:57 17,6 °C 54 % 1015,7 hPa 0,0 mm 0,8 km/h (0 Bft) N 5 ° 0 min 0,000 mm 0,0 UV-I 113 W/m² 8,2 °C 17,6 °C 3,2 km/h (1 Bft)
10.07.2019 19:58 17,5 °C 54 % 1015,7 hPa 0,0 mm 0,3 km/h (0 Bft) N 5 ° 0 min 0,000 mm 0,0 UV-I 109 W/m² 8,1 °C 17,5 °C 1,6 km/h (1 Bft)
10.07.2019 19:59 17,5 °C 54 % 1015,7 hPa 0,0 mm 1,9 km/h (1 Bft) N 9 ° 0 min 0,000 mm 0,0 UV-I 107 W/m² 8,1 °C 17,5 °C 3,2 km/h (1 Bft)
10.07.2019 20:00 17,4 °C 53 % 1015,7 hPa 0,0 mm 0,2 km/h (0 Bft) N-NO 21 ° 0 min 0,000 mm 0,0 UV-I 104 W/m² 7,7 °C 17,4 °C 1,6 km/h (1 Bft)
10.07.2019 20:01 17,4 °C 52 % 1015,7 hPa 0,0 mm 0,0 km/h (0 Bft) N-NO 21 ° 0 min 0,102 mm 0,0 UV-I 98 W/m² 7,4 °C 17,4 °C 0,0 km/h (0 Bft)
10.07.2019 20:02 17,4 °C 52 % 1015,7 hPa 0,0 mm 1,3 km/h (1 Bft) N-NO 21 ° 0 min 0,000 mm 0,0 UV-I 98 W/m² 7,4 °C 17,4 °C 3,2 km/h (1 Bft)
10.07.2019 20:03 17,4 °C 53 % 1015,6 hPa 0,0 mm 3,5 km/h (1 Bft) N 355 ° 0 min 0,000 mm 0,0 UV-I 95 W/m² 7,7 °C 17,4 °C 6,4 km/h (2 Bft)
10.07.2019 20:04 17,4 °C 52 % 1015,6 hPa 0,0 mm 2,6 km/h (1 Bft) N-NO 27 ° 0 min 0,000 mm 0,0 UV-I 93 W/m² 7,4 °C 17,4 °C 3,2 km/h (1 Bft)
10.07.2019 20:05 17,4 °C 56 % 1015,6 hPa 0,0 mm 1,2 km/h (1 Bft) N-NO 28 ° 0 min 0,000 mm 0,0 UV-I 91 W/m² 8,5 °C 17,4 °C 3,2 km/h (1 Bft)
10.07.2019 20:06 17,3 °C 55 % 1015,7 hPa 0,0 mm 0,0 km/h (0 Bft) N-NO 28 ° 0 min 0,000 mm 0,0 UV-I 90 W/m² 8,2 °C 17,3 °C 0,0 km/h (0 Bft)
10.07.2019 20:07 17,3 °C 59 % 1015,6 hPa 0,0 mm 0,1 km/h (0 Bft) N-NO 28 ° 0 min 0,000 mm 0,0 UV-I 83 W/m² 9,2 °C 17,3 °C 1,6 km/h (1 Bft)
10.07.2019 20:08 17,2 °C 58 % 1015,7 hPa 0,0 mm 0,7 km/h (0 Bft) N-NO 28 ° 0 min 0,000 mm 0,0 UV-I 84 W/m² 8,9 °C 17,2 °C 1,6 km/h (1 Bft)
10.07.2019 20:09 17,0 °C 59 % 1015,6 hPa 0,0 mm 0,9 km/h (0 Bft) SO 142 ° 0 min 0,000 mm 0,0 UV-I 83 W/m² 8,9 °C 17,0 °C 3,2 km/h (1 Bft)
10.07.2019 20:10 17,1 °C 56 % 1015,6 hPa 0,0 mm 0,5 km/h (0 Bft) SO 138 ° 0 min 0,000 mm 0,0 UV-I 81 W/m² 8,3 °C 17,1 °C 1,6 km/h (1 Bft)
10.07.2019 20:11 16,9 °C 60 % 1015,6 hPa 0,0 mm 0,0 km/h (0 Bft) SO 138 ° 0 min 0,000 mm 0,0 UV-I 79 W/m² 9,1 °C 16,9 °C 0,0 km/h (0 Bft)
10.07.2019 20:12 16,9 °C 59 % 1015,6 hPa 0,0 mm 0,0 km/h (0 Bft) SO 138 ° 0 min 0,000 mm 0,0 UV-I 76 W/m² 8,8 °C 16,9 °C 0,0 km/h (0 Bft)
10.07.2019 20:13 16,8 °C 60 % 1015,7 hPa 0,0 mm 0,9 km/h (0 Bft) SO 138 ° 0 min 0,000 mm 0,0 UV-I 72 W/m² 9,0 °C 16,8 °C 3,2 km/h (1 Bft)
10.07.2019 20:14 16,7 °C 60 % 1015,7 hPa 0,0 mm 0,0 km/h (0 Bft) SO 138 ° 0 min 0,000 mm 0,0 UV-I 70 W/m² 8,9 °C 16,7 °C 0,0 km/h (0 Bft)
10.07.2019 20:15 16,6 °C 60 % 1015,7 hPa 0,0 mm 0,0 km/h (0 Bft) SO 138 ° 0 min 0,000 mm 0,0 UV-I 69 W/m² 8,8 °C 16,6 °C 0,0 km/h (0 Bft)
10.07.2019 20:16 16,5 °C 58 % 1015,7 hPa 0,0 mm 0,0 km/h (0 Bft) SO 138 ° 0 min 0,000 mm 0,0 UV-I 67 W/m² 8,2 °C 16,5 °C 0,0 km/h (0 Bft)
10.07.2019 20:17 16,4 °C 61 % 1015,7 hPa 0,0 mm 0,0 km/h (0 Bft) SO 138 ° 0 min 0,000 mm 0,0 UV-I 63 W/m² 8,9 °C 16,4 °C 0,0 km/h (0 Bft)
10.07.2019 20:18 16,3 °C 60 % 1015,8 hPa 0,0 mm 0,0 km/h (0 Bft) SO 138 ° 0 min 0,000 mm 0,0 UV-I 63 W/m² 8,5 °C 16,3 °C 0,0 km/h (0 Bft)
10.07.2019 20:19 16,3 °C 61 % 1015,7 hPa 0,0 mm 0,1 km/h (0 Bft) SO 138 ° 0 min 0,000 mm 0,0 UV-I 60 W/m² 8,8 °C 16,3 °C 1,6 km/h (1 Bft)
10.07.2019 20:20 16,2 °C 63 % 1015,8 hPa 0,0 mm 0,0 km/h (0 Bft) SO 138 ° 0 min 0,000 mm 0,0 UV-I 58 W/m² 9,1 °C 16,2 °C 0,0 km/h (0 Bft)
10.07.2019 20:21 16,2 °C 61 % 1015,7 hPa 0,0 mm 0,0 km/h (0 Bft) SO 138 ° 0 min 0,000 mm 0,0 UV-I 56 W/m² 8,7 °C 16,2 °C 0,0 km/h (0 Bft)
10.07.2019 20:22 16,1 °C 63 % 1015,7 hPa 0,0 mm 0,6 km/h (0 Bft) SO 137 ° 0 min 0,000 mm 0,0 UV-I 54 W/m² 9,1 °C 16,1 °C 3,2 km/h (1 Bft)
10.07.2019 20:23 16,0 °C 63 % 1015,7 hPa 0,0 mm 0,2 km/h (0 Bft) SO 137 ° 0 min 0,000 mm 0,0 UV-I 53 W/m² 9,0 °C 16,0 °C 1,6 km/h (1 Bft)
10.07.2019 20:24 16,0 °C 61 % 1015,7 hPa 0,0 mm 0,0 km/h (0 Bft) SO 137 ° 0 min 0,000 mm 0,0 UV-I 51 W/m² 8,5 °C 16,0 °C 0,0 km/h (0 Bft)
10.07.2019 20:25 16,1 °C 60 % 1015,7 hPa 0,0 mm 0,0 km/h (0 Bft) SO 137 ° 0 min 0,000 mm 0,0 UV-I 49 W/m² 8,3 °C 16,1 °C 0,0 km/h (0 Bft)
10.07.2019 20:26 16,1 °C 60 % 1015,7 hPa 0,0 mm 0,0 km/h (0 Bft) SO 137 ° 0 min 0,000 mm 0,0 UV-I 47 W/m² 8,3 °C 16,1 °C 0,0 km/h (0 Bft)
10.07.2019 20:27 16,1 °C 63 % 1015,7 hPa 0,0 mm 0,0 km/h (0 Bft) SO 137 ° 0 min 0,000 mm 0,0 UV-I 44 W/m² 9,1 °C 16,1 °C 0,0 km/h (0 Bft)
10.07.2019 20:28 16,1 °C 63 % 1015,7 hPa 0,0 mm 0,0 km/h (0 Bft) SO 137 ° 0 min 0,000 mm 0,0 UV-I 42 W/m² 9,1 °C 16,1 °C 0,0 km/h (0 Bft)
10.07.2019 20:29 16,0 °C 64 % 1015,7 hPa 0,0 mm 0,0 km/h (0 Bft) SO 137 ° 0 min 0,000 mm 0,0 UV-I 39 W/m² 9,2 °C 16,0 °C 0,0 km/h (0 Bft)
10.07.2019 20:30 16,0 °C 62 % 1015,7 hPa 0,0 mm 0,0 km/h (0 Bft) SO 137 ° 0 min 0,000 mm 0,0 UV-I 39 W/m² 8,7 °C 16,0 °C 0,0 km/h (0 Bft)
10.07.2019 20:31 15,9 °C 62 % 1015,7 hPa 0,0 mm 0,0 km/h (0 Bft) SO 137 ° 0 min 0,000 mm 0,0 UV-I 39 W/m² 8,6 °C 15,9 °C 0,0 km/h (0 Bft)
10.07.2019 20:32 15,9 °C 60 % 1015,7 hPa 0,0 mm 0,0 km/h (0 Bft) SO 137 ° 0 min 0,000 mm 0,0 UV-I 35 W/m² 8,1 °C 15,9 °C 0,0 km/h (0 Bft)
10.07.2019 20:33 15,8 °C 62 % 1015,7 hPa 0,0 mm 0,0 km/h (0 Bft) SO 137 ° 0 min 0,000 mm 0,0 UV-I 30 W/m² 8,5 °C 15,8 °C 0,0 km/h (0 Bft)
10.07.2019 20:34 15,8 °C 62 % 1015,8 hPa 0,0 mm 0,0 km/h (0 Bft) SO 137 ° 0 min 0,000 mm 0,0 UV-I 28 W/m² 8,5 °C 15,8 °C 0,0 km/h (0 Bft)
10.07.2019 20:35 15,8 °C 61 % 1015,7 hPa 0,0 mm 0,0 km/h (0 Bft) SO 137 ° 0 min 0,000 mm 0,0 UV-I 26 W/m² 8,3 °C 15,8 °C 0,0 km/h (0 Bft)
10.07.2019 20:36 15,7 °C 62 % 1015,7 hPa 0,0 mm 0,0 km/h (0 Bft) SO 137 ° 0 min 0,000 mm 0,0 UV-I 23 W/m² 8,4 °C 15,7 °C 0,0 km/h (0 Bft)
10.07.2019 20:37 15,7 °C 61 % 1015,7 hPa 0,0 mm 0,0 km/h (0 Bft) SO 137 ° 0 min 0,000 mm 0,0 UV-I 18 W/m² 8,2 °C 15,7 °C 0,0 km/h (0 Bft)
10.07.2019 20:38 15,6 °C 63 % 1015,8 hPa 0,0 mm 0,0 km/h (0 Bft) SO 137 ° 0 min 0,000 mm 0,0 UV-I 18 W/m² 8,6 °C 15,6 °C 0,0 km/h (0 Bft)
10.07.2019 20:39 15,6 °C 62 % 1015,7 hPa 0,0 mm 0,0 km/h (0 Bft) SO 137 ° 0 min 0,000 mm 0,0 UV-I 18 W/m² 8,3 °C 15,6 °C 0,0 km/h (0 Bft)
10.07.2019 20:40 15,6 °C 62 % 1015,7 hPa 0,0 mm 0,0 km/h (0 Bft) SO 137 ° 0 min 0,000 mm 0,0 UV-I 18 W/m² 8,3 °C 15,6 °C 0,0 km/h (0 Bft)
10.07.2019 20:41 15,5 °C 61 % 1015,7 hPa 0,0 mm 0,0 km/h (0 Bft) SO 137 ° 0 min 0,000 mm 0,0 UV-I 18 W/m² 8,0 °C 15,5 °C 0,0 km/h (0 Bft)
10.07.2019 20:42 15,4 °C 62 % 1015,8 hPa 0,0 mm 0,0 km/h (0 Bft) SO 137 ° 0 min 0,000 mm 0,0 UV-I 16 W/m² 8,2 °C 15,4 °C 0,0 km/h (0 Bft)
10.07.2019 20:43 15,4 °C 61 % 1015,8 hPa 0,0 mm 0,0 km/h (0 Bft) SO 137 ° 0 min 0,000 mm 0,0 UV-I 18 W/m² 7,9 °C 15,4 °C 0,0 km/h (0 Bft)
10.07.2019 20:44 15,4 °C 62 % 1015,8 hPa 0,0 mm 0,0 km/h (0 Bft) SO 137 ° 0 min 0,000 mm 0,0 UV-I 18 W/m² 8,2 °C 15,4 °C 0,0 km/h (0 Bft)
10.07.2019 20:45 15,3 °C 62 % 1015,8 hPa 0,0 mm 0,2 km/h (0 Bft) SO 137 ° 0 min 0,000 mm 0,0 UV-I 18 W/m² 8,1 °C 15,3 °C 1,6 km/h (1 Bft)
10.07.2019 20:46 15,2 °C 63 % 1015,8 hPa 0,0 mm 0,0 km/h (0 Bft) SO 137 ° 0 min 0,000 mm 0,0 UV-I 18 W/m² 8,2 °C 15,2 °C 0,0 km/h (0 Bft)
10.07.2019 20:47 15,2 °C 64 % 1015,8 hPa 0,0 mm 0,0 km/h (0 Bft) SO 137 ° 0 min 0,000 mm 0,0 UV-I 18 W/m² 8,4 °C 15,2 °C 0,0 km/h (0 Bft)
10.07.2019 20:48 15,2 °C 64 % 1015,8 hPa 0,0 mm 0,0 km/h (0 Bft) SO 137 ° 0 min 0,000 mm 0,0 UV-I 18 W/m² 8,4 °C 15,2 °C 0,0 km/h (0 Bft)
10.07.2019 20:49 15,1 °C 64 % 1015,8 hPa 0,0 mm 0,0 km/h (0 Bft) SO 137 ° 0 min 0,000 mm 0,0 UV-I 18 W/m² 8,3 °C 15,1 °C 0,0 km/h (0 Bft)
10.07.2019 20:50 15,1 °C 64 % 1015,8 hPa 0,0 mm 0,0 km/h (0 Bft) SO 137 ° 0 min 0,000 mm 0,0 UV-I 18 W/m² 8,3 °C 15,1 °C 0,0 km/h (0 Bft)
10.07.2019 20:51 15,0 °C 65 % 1015,8 hPa 0,0 mm 0,0 km/h (0 Bft) SO 137 ° 0 min 0,000 mm 0,0 UV-I 18 W/m² 8,5 °C 15,0 °C 0,0 km/h (0 Bft)
10.07.2019 20:52 14,9 °C 65 % 1015,8 hPa 0,0 mm 0,0 km/h (0 Bft) SO 137 ° 0 min 0,000 mm 0,0 UV-I 18 W/m² 8,4 °C 14,9 °C 0,0 km/h (0 Bft)
10.07.2019 20:53 14,9 °C 65 % 1015,8 hPa 0,0 mm 0,0 km/h (0 Bft) SO 137 ° 0 min 0,000 mm 0,0 UV-I 16 W/m² 8,4 °C 14,9 °C 0,0 km/h (0 Bft)
10.07.2019 20:54 14,8 °C 66 % 1015,9 hPa 0,0 mm 0,0 km/h (0 Bft) SO 137 ° 0 min 0,000 mm 0,0 UV-I 16 W/m² 8,5 °C 14,8 °C 0,0 km/h (0 Bft)
10.07.2019 20:55 14,8 °C 67 % 1015,8 hPa 0,0 mm 0,0 km/h (0 Bft) SO 137 ° 0 min 0,000 mm 0,0 UV-I 16 W/m² 8,7 °C 14,8 °C 0,0 km/h (0 Bft)
10.07.2019 20:56 14,7 °C 67 % 1015,8 hPa 0,0 mm 0,0 km/h (0 Bft) SO 137 ° 0 min 0,000 mm 0,0 UV-I 16 W/m² 8,6 °C 14,7 °C 0,0 km/h (0 Bft)
10.07.2019 20:57 14,5 °C 70 % 1015,9 hPa 0,0 mm 0,0 km/h (0 Bft) SO 137 ° 0 min 0,000 mm 0,0 UV-I 14 W/m² 9,1 °C 14,5 °C 0,0 km/h (0 Bft)
10.07.2019 20:58 14,3 °C 71 % 1015,9 hPa 0,0 mm 0,0 km/h (0 Bft) SO 137 ° 0 min 0,000 mm 0,0 UV-I 14 W/m² 9,1 °C 14,3 °C 0,0 km/h (0 Bft)
10.07.2019 20:59 14,1 °C 71 % 1015,8 hPa 0,0 mm 0,0 km/h (0 Bft) SO 137 ° 0 min 0,000 mm 0,0 UV-I 14 W/m² 8,9 °C 14,1 °C 0,0 km/h (0 Bft)
10.07.2019 21:00 13,9 °C 72 % 1015,9 hPa 0,0 mm 0,0 km/h (0 Bft) SO 137 ° 0 min 0,000 mm 0,0 UV-I 12 W/m² 8,9 °C 13,9 °C 0,0 km/h (0 Bft)
10.07.2019 21:01 13,8 °C 72 % 1015,9 hPa 0,0 mm 0,0 km/h (0 Bft) SO 137 ° 0 min 0,025 mm 0,0 UV-I 11 W/m² 8,8 °C 13,8 °C 0,0 km/h (0 Bft)
10.07.2019 21:02 13,8 °C 72 % 1015,9 hPa 0,0 mm 0,0 km/h (0 Bft) SO 137 ° 0 min 0,000 mm 0,0 UV-I 11 W/m² 8,8 °C 13,8 °C 0,0 km/h (0 Bft)
10.07.2019 21:03 13,7 °C 72 % 1016,0 hPa 0,0 mm 0,0 km/h (0 Bft) SO 137 ° 0 min 0,000 mm 0,0 UV-I 9 W/m² 8,7 °C 13,7 °C 0,0 km/h (0 Bft)
10.07.2019 21:04 13,7 °C 72 % 1016,0 hPa 0,0 mm 0,0 km/h (0 Bft) SO 137 ° 0 min 0,000 mm 0,0 UV-I 9 W/m² 8,7 °C 13,7 °C 0,0 km/h (0 Bft)
10.07.2019 21:05 13,6 °C 73 % 1016,0 hPa 0,0 mm 0,0 km/h (0 Bft) SO 137 ° 0 min 0,000 mm 0,0 UV-I 9 W/m² 8,9 °C 13,6 °C 0,0 km/h (0 Bft)
10.07.2019 21:06 13,6 °C 73 % 1016,0 hPa 0,0 mm 0,0 km/h (0 Bft) SO 137 ° 0 min 0,000 mm 0,0 UV-I 7 W/m² 8,9 °C 13,6 °C 0,0 km/h (0 Bft)
10.07.2019 21:07 13,4 °C 73 % 1015,9 hPa 0,0 mm 0,0 km/h (0 Bft) SO 137 ° 0 min 0,000 mm 0,0 UV-I 7 W/m² 8,7 °C 13,4 °C 0,0 km/h (0 Bft)
10.07.2019 21:08 13,4 °C 74 % 1015,9 hPa 0,0 mm 0,0 km/h (0 Bft) SO 137 ° 0 min 0,000 mm 0,0 UV-I 5 W/m² 8,9 °C 13,4 °C 0,0 km/h (0 Bft)
10.07.2019 21:09 13,4 °C 72 % 1015,9 hPa 0,0 mm 0,0 km/h (0 Bft) SO 137 ° 0 min 0,000 mm 0,0 UV-I 5 W/m² 8,5 °C 13,4 °C 0,0 km/h (0 Bft)
10.07.2019 21:10 13,4 °C 72 % 1015,9 hPa 0,0 mm 0,0 km/h (0 Bft) SO 137 ° 0 min 0,000 mm 0,0 UV-I 5 W/m² 8,5 °C 13,4 °C 0,0 km/h (0 Bft)
10.07.2019 21:11 13,4 °C 73 % 1015,9 hPa 0,0 mm 0,0 km/h (0 Bft) SO 137 ° 0 min 0,000 mm 0,0 UV-I 5 W/m² 8,7 °C 13,4 °C 0,0 km/h (0 Bft)
10.07.2019 21:12 13,4 °C 72 % 1015,9 hPa 0,0 mm 0,0 km/h (0 Bft) SO 137 ° 0 min 0,000 mm 0,0 UV-I 0 W/m² 8,5 °C 13,4 °C 0,0 km/h (0 Bft)
10.07.2019 21:13 13,4 °C 72 % 1015,9 hPa 0,0 mm 0,0 km/h (0 Bft) SO 137 ° 0 min 0,000 mm 0,0 UV-I 0 W/m² 8,5 °C 13,4 °C 0,0 km/h (0 Bft)
10.07.2019 21:14 13,3 °C 72 % 1015,9 hPa 0,0 mm 0,0 km/h (0 Bft) SO 137 ° 0 min 0,000 mm 0,0 UV-I 0 W/m² 8,4 °C 13,3 °C 0,0 km/h (0 Bft)
10.07.2019 21:15 13,3 °C 73 % 1015,9 hPa 0,0 mm 0,0 km/h (0 Bft) SO 137 ° 0 min 0,000 mm 0,0 UV-I 0 W/m² 8,6 °C 13,3 °C 0,0 km/h (0 Bft)
10.07.2019 21:16 13,2 °C 74 % 1015,9 hPa 0,0 mm 0,0 km/h (0 Bft) SO 137 ° 0 min 0,000 mm 0,0 UV-I 0 W/m² 8,7 °C 13,2 °C 0,0 km/h (0 Bft)
10.07.2019 21:17 12,9 °C 75 % 1016,0 hPa 0,0 mm 0,0 km/h (0 Bft) SO 137 ° 0 min 0,000 mm 0,0 UV-I 0 W/m² 8,6 °C 12,9 °C 0,0 km/h (0 Bft)
10.07.2019 21:18 12,8 °C 75 % 1016,0 hPa 0,0 mm 0,0 km/h (0 Bft) SO 137 ° 0 min 0,000 mm 0,0 UV-I 0 W/m² 8,5 °C 12,8 °C 0,0 km/h (0 Bft)
10.07.2019 21:19 12,6 °C 76 % 1016,0 hPa 0,0 mm 0,0 km/h (0 Bft) SO 137 ° 0 min 0,000 mm 0,0 UV-I 0 W/m² 8,5 °C 12,6 °C 0,0 km/h (0 Bft)
10.07.2019 21:20 12,4 °C 76 % 1015,9 hPa 0,0 mm 0,0 km/h (0 Bft) SO 137 ° 0 min 0,000 mm 0,0 UV-I 0 W/m² 8,3 °C 12,4 °C 0,0 km/h (0 Bft)
10.07.2019 21:21 12,4 °C 77 % 1015,9 hPa 0,0 mm 0,0 km/h (0 Bft) SO 137 ° 0 min 0,000 mm 0,0 UV-I 0 W/m² 8,5 °C 12,4 °C 0,0 km/h (0 Bft)
10.07.2019 21:22 12,2 °C 77 % 1015,9 hPa 0,0 mm 0,0 km/h (0 Bft) SO 137 ° 0 min 0,000 mm 0,0 UV-I 0 W/m² 8,3 °C 12,2 °C 0,0 km/h (0 Bft)
10.07.2019 21:23 12,2 °C 77 % 1016,0 hPa 0,0 mm 0,0 km/h (0 Bft) SO 137 ° 0 min 0,000 mm 0,0 UV-I 0 W/m² 8,3 °C 12,2 °C 0,0 km/h (0 Bft)
10.07.2019 21:24 12,1 °C 78 % 1016,0 hPa 0,0 mm 0,0 km/h (0 Bft) SO 137 ° 0 min 0,000 mm 0,0 UV-I 0 W/m² 8,4 °C 12,1 °C 0,0 km/h (0 Bft)
10.07.2019 21:25 11,9 °C 78 % 1016,0 hPa 0,0 mm 0,0 km/h (0 Bft) SO 137 ° 0 min 0,000 mm 0,0 UV-I 0 W/m² 8,2 °C 11,9 °C 0,0 km/h (0 Bft)
10.07.2019 21:26 11,8 °C 78 % 1016,0 hPa 0,0 mm 0,0 km/h (0 Bft) SO 137 ° 0 min 0,000 mm 0,0 UV-I 0 W/m² 8,1 °C 11,8 °C 0,0 km/h (0 Bft)
10.07.2019 21:27 11,8 °C 79 % 1016,0 hPa 0,0 mm 0,0 km/h (0 Bft) SO 137 ° 0 min 0,000 mm 0,0 UV-I 0 W/m² 8,3 °C 11,8 °C 0,0 km/h (0 Bft)
10.07.2019 21:28 11,7 °C 79 % 1016,0 hPa 0,0 mm 0,0 km/h (0 Bft) SO 137 ° 0 min 0,000 mm 0,0 UV-I 0 W/m² 8,2 °C 11,7 °C 0,0 km/h (0 Bft)
10.07.2019 21:29 11,7 °C 79 % 1016,0 hPa 0,0 mm 0,0 km/h (0 Bft) SO 137 ° 0 min 0,000 mm 0,0 UV-I 0 W/m² 8,2 °C 11,7 °C 0,0 km/h (0 Bft)
10.07.2019 21:30 11,7 °C 79 % 1016,0 hPa 0,0 mm 0,0 km/h (0 Bft) SO 137 ° 0 min 0,000 mm 0,0 UV-I 0 W/m² 8,2 °C 11,7 °C 0,0 km/h (0 Bft)
10.07.2019 21:31 11,6 °C 80 % 1016,0 hPa 0,0 mm 0,0 km/h (0 Bft) SO 137 ° 0 min 0,000 mm 0,0 UV-I 0 W/m² 8,3 °C 11,6 °C 0,0 km/h (0 Bft)
10.07.2019 21:32 11,6 °C 80 % 1015,9 hPa 0,0 mm 0,0 km/h (0 Bft) SO 137 ° 0 min 0,000 mm 0,0 UV-I 0 W/m² 8,3 °C 11,6 °C 0,0 km/h (0 Bft)
10.07.2019 21:33 11,6 °C 80 % 1016,0 hPa 0,0 mm 0,0 km/h (0 Bft) SO 137 ° 0 min 0,000 mm 0,0 UV-I 0 W/m² 8,3 °C 11,6 °C 0,0 km/h (0 Bft)
10.07.2019 21:34 11,6 °C 80 % 1016,0 hPa 0,0 mm 0,0 km/h (0 Bft) SO 137 ° 0 min 0,000 mm 0,0 UV-I 0 W/m² 8,3 °C 11,6 °C 0,0 km/h (0 Bft)
10.07.2019 21:35 11,5 °C 80 % 1016,1 hPa 0,0 mm 0,0 km/h (0 Bft) SO 137 ° 0 min 0,000 mm 0,0 UV-I 0 W/m² 8,2 °C 11,5 °C 0,0 km/h (0 Bft)
10.07.2019 21:36 11,4 °C 80 % 1016,0 hPa 0,0 mm 0,0 km/h (0 Bft) SO 137 ° 0 min 0,000 mm 0,0 UV-I 0 W/m² 8,1 °C 11,4 °C 0,0 km/h (0 Bft)
10.07.2019 21:37 11,4 °C 80 % 1016,1 hPa 0,0 mm 0,0 km/h (0 Bft) SO 137 ° 0 min 0,000 mm 0,0 UV-I 0 W/m² 8,1 °C 11,4 °C 0,0 km/h (0 Bft)
10.07.2019 21:38 11,3 °C 80 % 1016,1 hPa 0,0 mm 1,5 km/h (1 Bft) SO 140 ° 0 min 0,000 mm 0,0 UV-I 0 W/m² 8,0 °C 11,3 °C 3,2 km/h (1 Bft)
10.07.2019 21:39 11,3 °C 82 % 1016,1 hPa 0,0 mm 0,1 km/h (0 Bft) SO 140 ° 0 min 0,000 mm 0,0 UV-I 0 W/m² 8,3 °C 11,3 °C 1,6 km/h (1 Bft)
10.07.2019 21:40 11,3 °C 82 % 1016,1 hPa 0,0 mm 0,0 km/h (0 Bft) SO 140 ° 0 min 0,000 mm 0,0 UV-I 0 W/m² 8,3 °C 11,3 °C 0,0 km/h (0 Bft)
10.07.2019 21:41 11,3 °C 81 % 1016,2 hPa 0,0 mm 0,0 km/h (0 Bft) SO 140 ° 0 min 0,000 mm 0,0 UV-I 0 W/m² 8,2 °C 11,3 °C 0,0 km/h (0 Bft)
10.07.2019 21:42 11,3 °C 81 % 1016,1 hPa 0,0 mm 0,0 km/h (0 Bft) SO 140 ° 0 min 0,000 mm 0,0 UV-I 0 W/m² 8,2 °C 11,3 °C 0,0 km/h (0 Bft)
10.07.2019 21:43 11,3 °C 81 % 1016,2 hPa 0,0 mm 0,0 km/h (0 Bft) SO 140 ° 0 min 0,000 mm 0,0 UV-I 0 W/m² 8,2 °C 11,3 °C 0,0 km/h (0 Bft)
10.07.2019 21:44 11,2 °C 81 % 1016,2 hPa 0,0 mm 0,3 km/h (0 Bft) SO 140 ° 0 min 0,000 mm 0,0 UV-I 0 W/m² 8,1 °C 11,2 °C 1,6 km/h (1 Bft)
10.07.2019 21:45 11,2 °C 81 % 1016,2 hPa 0,0 mm 1,1 km/h (1 Bft) SO 140 ° 0 min 0,000 mm 0,0 UV-I 0 W/m² 8,1 °C 11,2 °C 3,2 km/h (1 Bft)
10.07.2019 21:46 11,1 °C 81 % 1016,3 hPa 0,0 mm 0,0 km/h (0 Bft) SO 140 ° 0 min 0,000 mm 0,0 UV-I 0 W/m² 8,0 °C 11,1 °C 0,0 km/h (0 Bft)
10.07.2019 21:47 11,1 °C 81 % 1016,3 hPa 0,0 mm 0,0 km/h (0 Bft) SO 140 ° 0 min 0,000 mm 0,0 UV-I 0 W/m² 8,0 °C 11,1 °C 0,0 km/h (0 Bft)
10.07.2019 21:48 11,1 °C 81 % 1016,3 hPa 0,0 mm 0,8 km/h (0 Bft) SO 140 ° 0 min 0,000 mm 0,0 UV-I 0 W/m² 8,0 °C 11,1 °C 3,2 km/h (1 Bft)
10.07.2019 21:49 11,1 °C 81 % 1016,3 hPa 0,0 mm 2,0 km/h (1 Bft) SO 140 ° 0 min 0,000 mm 0,0 UV-I 0 W/m² 8,0 °C 11,1 °C 3,2 km/h (1 Bft)
10.07.2019 21:50 11,1 °C 81 % 1016,3 hPa 0,0 mm 0,8 km/h (0 Bft) SO 140 ° 0 min 0,000 mm 0,0 UV-I 0 W/m² 8,0 °C 11,1 °C 1,6 km/h (1 Bft)
10.07.2019 21:51 11,1 °C 81 % 1016,3 hPa 0,0 mm 0,0 km/h (0 Bft) SO 140 ° 0 min 0,000 mm 0,0 UV-I 0 W/m² 8,0 °C 11,1 °C 0,0 km/h (0 Bft)
10.07.2019 21:52 11,1 °C 81 % 1016,3 hPa 0,0 mm 0,0 km/h (0 Bft) SO 140 ° 0 min 0,000 mm 0,0 UV-I 0 W/m² 8,0 °C 11,1 °C 0,0 km/h (0 Bft)
10.07.2019 21:53 11,0 °C 81 % 1016,3 hPa 0,0 mm 0,0 km/h (0 Bft) SO 140 ° 0 min 0,000 mm 0,0 UV-I 0 W/m² 7,9 °C 11,0 °C 0,0 km/h (0 Bft)
10.07.2019 21:54 10,9 °C 81 % 1016,3 hPa 0,0 mm 0,0 km/h (0 Bft) SO 140 ° 0 min 0,000 mm 0,0 UV-I 0 W/m² 7,8 °C 10,9 °C 0,0 km/h (0 Bft)
10.07.2019 21:55 10,9 °C 81 % 1016,3 hPa 0,0 mm 0,0 km/h (0 Bft) SO 140 ° 0 min 0,000 mm 0,0 UV-I 0 W/m² 7,8 °C 10,9 °C 0,0 km/h (0 Bft)
10.07.2019 21:56 10,9 °C 81 % 1016,3 hPa 0,0 mm 1,1 km/h (1 Bft) SO 140 ° 0 min 0,000 mm 0,0 UV-I 0 W/m² 7,8 °C 10,9 °C 3,2 km/h (1 Bft)
10.07.2019 21:57 11,0 °C 80 % 1016,3 hPa 0,0 mm 1,9 km/h (1 Bft) SO 141 ° 0 min 0,000 mm 0,0 UV-I 0 W/m² 7,7 °C 11,0 °C 4,8 km/h (1 Bft)
10.07.2019 21:58 11,1 °C 79 % 1016,3 hPa 0,0 mm 3,2 km/h (1 Bft) S-SO 147 ° 0 min 0,000 mm 0,0 UV-I 0 W/m² 7,6 °C 11,1 °C 4,8 km/h (1 Bft)
10.07.2019 21:59 11,1 °C 79 % 1016,3 hPa 0,0 mm 1,9 km/h (1 Bft) S-SO 147 ° 0 min 0,000 mm 0,0 UV-I 0 W/m² 7,6 °C 11,1 °C 4,8 km/h (1 Bft)
10.07.2019 22:00 11,2 °C 79 % 1016,3 hPa 0,0 mm 1,0 km/h (0 Bft) S-SO 147 ° 0 min 0,000 mm 0,0 UV-I 0 W/m² 7,7 °C 11,2 °C 3,2 km/h (1 Bft)
10.07.2019 22:01 11,3 °C 79 % 1016,3 hPa 0,0 mm 0,0 km/h (0 Bft) S-SO 147 ° 0 min 0,000 mm 0,0 UV-I 0 W/m² 7,8 °C 11,3 °C 0,0 km/h (0 Bft)
10.07.2019 22:02 11,3 °C 79 % 1016,3 hPa 0,0 mm 2,0 km/h (1 Bft) S-SO 147 ° 0 min 0,000 mm 0,0 UV-I 0 W/m² 7,8 °C 11,3 °C 4,8 km/h (1 Bft)
10.07.2019 22:03 11,3 °C 79 % 1016,3 hPa 0,0 mm 1,3 km/h (1 Bft) S-SO 147 ° 0 min 0,000 mm 0,0 UV-I 0 W/m² 7,8 °C 11,3 °C 3,2 km/h (1 Bft)
10.07.2019 22:04 11,4 °C 79 % 1016,3 hPa 0,0 mm 1,5 km/h (1 Bft) S-SO 147 ° 0 min 0,000 mm 0,0 UV-I 0 W/m² 7,9 °C 11,4 °C 3,2 km/h (1 Bft)
10.07.2019 22:05 11,4 °C 79 % 1016,3 hPa 0,0 mm 0,0 km/h (0 Bft) S-SO 147 ° 0 min 0,000 mm 0,0 UV-I 0 W/m² 7,9 °C 11,4 °C 0,0 km/h (0 Bft)
10.07.2019 22:06 11,4 °C 79 % 1016,3 hPa 0,0 mm 0,2 km/h (0 Bft) S-SO 147 ° 0 min 0,000 mm 0,0 UV-I 0 W/m² 7,9 °C 11,4 °C 1,6 km/h (1 Bft)
10.07.2019 22:07 11,3 °C 79 % 1016,3 hPa 0,0 mm 2,3 km/h (1 Bft) S-SO 147 ° 0 min 0,000 mm 0,0 UV-I 0 W/m² 7,8 °C 11,3 °C 4,8 km/h (1 Bft)
10.07.2019 22:08 11,3 °C 79 % 1016,3 hPa 0,0 mm 2,2 km/h (1 Bft) S-SO 147 ° 0 min 0,000 mm 0,0 UV-I 0 W/m² 7,8 °C 11,3 °C 3,2 km/h (1 Bft)
10.07.2019 22:09 11,2 °C 79 % 1016,3 hPa 0,0 mm 2,9 km/h (1 Bft) S-SO 147 ° 0 min 0,000 mm 0,0 UV-I 0 W/m² 7,7 °C 11,2 °C 3,2 km/h (1 Bft)
10.07.2019 22:10 11,2 °C 80 % 1016,4 hPa 0,0 mm 1,7 km/h (1 Bft) S-SO 147 ° 0 min 0,000 mm 0,0 UV-I 0 W/m² 7,9 °C 11,2 °C 4,8 km/h (1 Bft)
10.07.2019 22:11 11,2 °C 80 % 1016,4 hPa 0,0 mm 1,1 km/h (1 Bft) S-SO 147 ° 0 min 0,000 mm 0,0 UV-I 0 W/m² 7,9 °C 11,2 °C 3,2 km/h (1 Bft)
10.07.2019 22:12 11,1 °C 81 % 1016,4 hPa 0,0 mm 1,3 km/h (1 Bft) S-SO 147 ° 0 min 0,000 mm 0,0 UV-I 0 W/m² 8,0 °C 11,1 °C 3,2 km/h (1 Bft)
10.07.2019 22:13 11,1 °C 81 % 1016,4 hPa 0,0 mm 0,0 km/h (0 Bft) S-SO 147 ° 0 min 0,000 mm 0,0 UV-I 0 W/m² 8,0 °C 11,1 °C 0,0 km/h (0 Bft)
10.07.2019 22:14 11,0 °C 81 % 1016,4 hPa 0,0 mm 0,0 km/h (0 Bft) S-SO 147 ° 0 min 0,000 mm 0,0 UV-I 0 W/m² 7,9 °C 11,0 °C 0,0 km/h (0 Bft)
10.07.2019 22:15 11,0 °C 81 % 1016,4 hPa 0,0 mm 1,3 km/h (1 Bft) S-SO 147 ° 0 min 0,000 mm 0,0 UV-I 0 W/m² 7,9 °C 11,0 °C 3,2 km/h (1 Bft)
10.07.2019 22:16 10,9 °C 81 % 1016,4 hPa 0,0 mm 3,9 km/h (1 Bft) S-SO 147 ° 0 min 0,000 mm 0,0 UV-I 0 W/m² 7,8 °C 10,9 °C 4,8 km/h (1 Bft)
10.07.2019 22:17 10,9 °C 81 % 1016,4 hPa 0,0 mm 3,1 km/h (1 Bft) S-SO 147 ° 0 min 0,000 mm 0,0 UV-I 0 W/m² 7,8 °C 10,9 °C 4,8 km/h (1 Bft)
10.07.2019 22:18 10,8 °C 81 % 1016,4 hPa 0,0 mm 3,2 km/h (1 Bft) S-SO 147 ° 0 min 0,000 mm 0,0 UV-I 0 W/m² 7,7 °C 10,8 °C 4,8 km/h (1 Bft)
10.07.2019 22:19 10,8 °C 81 % 1016,4 hPa 0,0 mm 1,6 km/h (1 Bft) S-SO 147 ° 0 min 0,000 mm 0,0 UV-I 0 W/m² 7,7 °C 10,8 °C 3,2 km/h (1 Bft)
10.07.2019 22:20 10,8 °C 82 % 1016,4 hPa 0,0 mm 2,3 km/h (1 Bft) S-SO 147 ° 0 min 0,000 mm 0,0 UV-I 0 W/m² 7,9 °C 10,8 °C 4,8 km/h (1 Bft)
10.07.2019 22:21 10,8 °C 82 % 1016,4 hPa 0,0 mm 2,2 km/h (1 Bft) S-SO 147 ° 0 min 0,000 mm 0,0 UV-I 0 W/m² 7,9 °C 10,8 °C 3,2 km/h (1 Bft)
10.07.2019 22:22 10,8 °C 82 % 1016,4 hPa 0,0 mm 2,4 km/h (1 Bft) S-SO 147 ° 0 min 0,000 mm 0,0 UV-I 0 W/m² 7,9 °C 10,8 °C 3,2 km/h (1 Bft)
10.07.2019 22:23 10,8 °C 82 % 1016,4 hPa 0,0 mm 3,3 km/h (1 Bft) S-SO 147 ° 0 min 0,000 mm 0,0 UV-I 0 W/m² 7,9 °C 10,8 °C 4,8 km/h (1 Bft)
10.07.2019 22:24 10,9 °C 82 % 1016,4 hPa 0,0 mm 2,6 km/h (1 Bft) S-SO 147 ° 0 min 0,000 mm 0,0 UV-I 0 W/m² 7,9 °C 10,9 °C 3,2 km/h (1 Bft)
10.07.2019 22:25 10,9 °C 82 % 1016,4 hPa 0,0 mm 3,0 km/h (1 Bft) S-SO 147 ° 0 min 0,000 mm 0,0 UV-I 0 W/m² 7,9 °C 10,9 °C 4,8 km/h (1 Bft)
10.07.2019 22:26 10,9 °C 82 % 1016,4 hPa 0,0 mm 2,3 km/h (1 Bft) S-SO 147 ° 0 min 0,000 mm 0,0 UV-I 0 W/m² 7,9 °C 10,9 °C 3,2 km/h (1 Bft)
10.07.2019 22:27 10,9 °C 82 % 1016,4 hPa 0,0 mm 2,0 km/h (1 Bft) S-SO 147 ° 0 min 0,000 mm 0,0 UV-I 0 W/m² 7,9 °C 10,9 °C 3,2 km/h (1 Bft)
10.07.2019 22:28 10,8 °C 82 % 1016,4 hPa 0,0 mm 2,6 km/h (1 Bft) S-SO 147 ° 0 min 0,000 mm 0,0 UV-I 0 W/m² 7,9 °C 10,8 °C 3,2 km/h (1 Bft)
10.07.2019 22:29 10,8 °C 82 % 1016,4 hPa 0,0 mm 2,8 km/h (1 Bft) S-SO 147 ° 0 min 0,000 mm 0,0 UV-I 0 W/m² 7,9 °C 10,8 °C 3,2 km/h (1 Bft)
10.07.2019 22:30 10,7 °C 83 % 1016,4 hPa 0,0 mm 3,5 km/h (1 Bft) S-SO 147 ° 0 min 0,000 mm 0,0 UV-I 0 W/m² 7,9 °C 10,7 °C 4,8 km/h (1 Bft)
10.07.2019 22:31 10,6 °C 83 % 1016,3 hPa 0,0 mm 4,1 km/h (1 Bft) S-SO 147 ° 0 min 0,000 mm 0,0 UV-I 0 W/m² 7,8 °C 10,6 °C 4,8 km/h (1 Bft)
10.07.2019 22:32 10,5 °C 83 % 1016,4 hPa 0,0 mm 4,0 km/h (1 Bft) S-SO 147 ° 0 min 0,000 mm 0,0 UV-I 0 W/m² 7,7 °C 10,5 °C 4,8 km/h (1 Bft)
10.07.2019 22:33 10,4 °C 83 % 1016,4 hPa 0,0 mm 4,1 km/h (1 Bft) S-SO 147 ° 0 min 0,000 mm 0,0 UV-I 0 W/m² 7,6 °C 10,4 °C 4,8 km/h (1 Bft)
10.07.2019 22:34 10,3 °C 84 % 1016,4 hPa 0,0 mm 4,3 km/h (1 Bft) S-SO 147 ° 0 min 0,000 mm 0,0 UV-I 0 W/m² 7,7 °C 10,3 °C 4,8 km/h (1 Bft)
10.07.2019 22:35 10,3 °C 84 % 1016,4 hPa 0,0 mm 4,4 km/h (1 Bft) S-SO 147 ° 0 min 0,000 mm 0,0 UV-I 0 W/m² 7,7 °C 10,3 °C 4,8 km/h (1 Bft)
10.07.2019 22:36 10,2 °C 84 % 1016,4 hPa 0,0 mm 4,9 km/h (1 Bft) S-SO 147 ° 0 min 0,000 mm 0,0 UV-I 0 W/m² 7,6 °C 10,2 °C 6,4 km/h (2 Bft)
10.07.2019 22:37 10,3 °C 85 % 1016,5 hPa 0,0 mm 5,0 km/h (1 Bft) S-SO 147 ° 0 min 0,000 mm 0,0 UV-I 0 W/m² 7,9 °C 10,3 °C 6,4 km/h (2 Bft)
10.07.2019 22:38 10,3 °C 85 % 1016,5 hPa 0,0 mm 5,0 km/h (1 Bft) S-SO 155 ° 0 min 0,000 mm 0,0 UV-I 0 W/m² 7,9 °C 10,3 °C 6,4 km/h (2 Bft)
10.07.2019 22:39 10,2 °C 84 % 1016,5 hPa 0,0 mm 5,0 km/h (1 Bft) S-SO 155 ° 0 min 0,000 mm 0,0 UV-I 0 W/m² 7,6 °C 10,2 °C 6,4 km/h (2 Bft)
10.07.2019 22:40 10,2 °C 84 % 1016,4 hPa 0,0 mm 5,2 km/h (1 Bft) S-SO 155 ° 0 min 0,000 mm 0,0 UV-I 0 W/m² 7,6 °C 10,2 °C 6,4 km/h (2 Bft)
10.07.2019 22:41 10,2 °C 84 % 1016,4 hPa 0,0 mm 4,9 km/h (1 Bft) S-SO 155 ° 0 min 0,000 mm 0,0 UV-I 0 W/m² 7,6 °C 10,2 °C 8,0 km/h (2 Bft)
10.07.2019 22:42 10,2 °C 85 % 1016,5 hPa 0,0 mm 5,0 km/h (1 Bft) S-SO 156 ° 0 min 0,000 mm 0,0 UV-I 0 W/m² 7,8 °C 10,2 °C 6,4 km/h (2 Bft)
10.07.2019 22:43 10,2 °C 85 % 1016,5 hPa 0,0 mm 3,9 km/h (1 Bft) S-SO 155 ° 0 min 0,000 mm 0,0 UV-I 0 W/m² 7,8 °C 10,2 °C 4,8 km/h (1 Bft)
10.07.2019 22:44 10,2 °C 85 % 1016,4 hPa 0,0 mm 3,5 km/h (1 Bft) S-SO 155 ° 0 min 0,000 mm 0,0 UV-I 0 W/m² 7,8 °C 10,2 °C 4,8 km/h (1 Bft)
10.07.2019 22:45 10,2 °C 85 % 1016,4 hPa 0,0 mm 2,7 km/h (1 Bft) S-SO 155 ° 0 min 0,000 mm 0,0 UV-I 0 W/m² 7,8 °C 10,2 °C 3,2 km/h (1 Bft)
10.07.2019 22:46 10,2 °C 85 % 1016,4 hPa 0,0 mm 1,6 km/h (1 Bft) S-SO 155 ° 0 min 0,000 mm 0,0 UV-I 0 W/m² 7,8 °C 10,2 °C 3,2 km/h (1 Bft)
10.07.2019 22:47 10,2 °C 85 % 1016,4 hPa 0,0 mm 0,0 km/h (0 Bft) S-SO 155 ° 0 min 0,000 mm 0,0 UV-I 0 W/m² 7,8 °C 10,2 °C 0,0 km/h (0 Bft)
10.07.2019 22:48 10,2 °C 85 % 1016,4 hPa 0,0 mm 0,0 km/h (0 Bft) S-SO 156 ° 0 min 0,000 mm 0,0 UV-I 0 W/m² 7,8 °C 10,2 °C 0,0 km/h (0 Bft)
10.07.2019 22:49 10,2 °C 85 % 1016,4 hPa 0,0 mm 0,0 km/h (0 Bft) S-SO 155 ° 0 min 0,000 mm 0,0 UV-I 0 W/m² 7,8 °C 10,2 °C 0,0 km/h (0 Bft)
10.07.2019 22:50 10,2 °C 85 % 1016,4 hPa 0,0 mm 0,0 km/h (0 Bft) S-SO 155 ° 0 min 0,000 mm 0,0 UV-I 0 W/m² 7,8 °C 10,2 °C 0,0 km/h (0 Bft)
10.07.2019 22:51 10,2 °C 85 % 1016,4 hPa 0,0 mm 0,0 km/h (0 Bft) S-SO 155 ° 0 min 0,000 mm 0,0 UV-I 0 W/m² 7,8 °C 10,2 °C 0,0 km/h (0 Bft)
10.07.2019 22:52 10,1 °C 85 % 1016,4 hPa 0,0 mm 0,0 km/h (0 Bft) S-SO 155 ° 0 min 0,000 mm 0,0 UV-I 0 W/m² 7,7 °C 10,1 °C 0,0 km/h (0 Bft)
10.07.2019 22:53 10,1 °C 85 % 1016,4 hPa 0,0 mm 0,0 km/h (0 Bft) S-SO 156 ° 0 min 0,000 mm 0,0 UV-I 0 W/m² 7,7 °C 10,1 °C 0,0 km/h (0 Bft)
10.07.2019 22:54 10,1 °C 85 % 1016,4 hPa 0,0 mm 0,0 km/h (0 Bft) S-SO 155 ° 0 min 0,000 mm 0,0 UV-I 0 W/m² 7,7 °C 10,1 °C 0,0 km/h (0 Bft)
10.07.2019 22:55 10,1 °C 85 % 1016,3 hPa 0,0 mm 0,0 km/h (0 Bft) S-SO 155 ° 0 min 0,000 mm 0,0 UV-I 0 W/m² 7,7 °C 10,1 °C 0,0 km/h (0 Bft)
10.07.2019 22:56 10,1 °C 85 % 1016,4 hPa 0,0 mm 0,0 km/h (0 Bft) S-SO 156 ° 0 min 0,000 mm 0,0 UV-I 0 W/m² 7,7 °C 10,1 °C 0,0 km/h (0 Bft)
10.07.2019 22:57 10,1 °C 85 % 1016,3 hPa 0,0 mm 0,0 km/h (0 Bft) S-SO 155 ° 0 min 0,000 mm 0,0 UV-I 0 W/m² 7,7 °C 10,1 °C 0,0 km/h (0 Bft)
10.07.2019 22:58 10,1 °C 85 % 1016,3 hPa 0,0 mm 0,0 km/h (0 Bft) S-SO 155 ° 0 min 0,000 mm 0,0 UV-I 0 W/m² 7,7 °C 10,1 °C 0,0 km/h (0 Bft)
10.07.2019 22:59 10,1 °C 85 % 1016,4 hPa 0,0 mm 0,0 km/h (0 Bft) S-SO 155 ° 0 min 0,000 mm 0,0 UV-I 0 W/m² 7,7 °C 10,1 °C 0,0 km/h (0 Bft)
10.07.2019 23:00 10,1 °C 85 % 1016,4 hPa 0,0 mm 0,0 km/h (0 Bft) S-SO 155 ° 0 min 0,000 mm 0,0 UV-I 0 W/m² 7,7 °C 10,1 °C 0,0 km/h (0 Bft)
10.07.2019 23:01 10,1 °C 85 % 1016,4 hPa 0,0 mm 0,0 km/h (0 Bft) S-SO 155 ° 0 min 0,026 mm 0,0 UV-I 0 W/m² 7,7 °C 10,1 °C 0,0 km/h (0 Bft)
10.07.2019 23:02 10,1 °C 85 % 1016,4 hPa 0,0 mm 0,0 km/h (0 Bft) S-SO 155 ° 0 min 0,000 mm 0,0 UV-I 0 W/m² 7,7 °C 10,1 °C 0,0 km/h (0 Bft)
10.07.2019 23:03 10,1 °C 85 % 1016,4 hPa 0,0 mm 0,0 km/h (0 Bft) S-SO 156 ° 0 min 0,000 mm 0,0 UV-I 0 W/m² 7,7 °C 10,1 °C 0,0 km/h (0 Bft)
10.07.2019 23:04 10,1 °C 85 % 1016,4 hPa 0,0 mm 0,0 km/h (0 Bft) S-SO 155 ° 0 min 0,000 mm 0,0 UV-I 0 W/m² 7,7 °C 10,1 °C 0,0 km/h (0 Bft)
10.07.2019 23:05 10,1 °C 85 % 1016,4 hPa 0,0 mm 0,0 km/h (0 Bft) S-SO 155 ° 0 min 0,000 mm 0,0 UV-I 0 W/m² 7,7 °C 10,1 °C 0,0 km/h (0 Bft)
10.07.2019 23:06 10,1 °C 85 % 1016,4 hPa 0,0 mm 0,0 km/h (0 Bft) S-SO 155 ° 0 min 0,000 mm 0,0 UV-I 0 W/m² 7,7 °C 10,1 °C 0,0 km/h (0 Bft)
10.07.2019 23:07 10,1 °C 85 % 1016,4 hPa 0,0 mm 0,0 km/h (0 Bft) S-SO 155 ° 0 min 0,000 mm 0,0 UV-I 0 W/m² 7,7 °C 10,1 °C 0,0 km/h (0 Bft)
10.07.2019 23:08 10,0 °C 85 % 1016,4 hPa 0,0 mm 0,0 km/h (0 Bft) S-SO 155 ° 0 min 0,000 mm 0,0 UV-I 0 W/m² 7,6 °C 10,0 °C 0,0 km/h (0 Bft)
10.07.2019 23:09 10,1 °C 84 % 1016,4 hPa 0,0 mm 0,0 km/h (0 Bft) S-SO 156 ° 0 min 0,000 mm 0,0 UV-I 0 W/m² 7,5 °C 10,1 °C 0,0 km/h (0 Bft)
10.07.2019 23:10 10,1 °C 84 % 1016,4 hPa 0,0 mm 0,0 km/h (0 Bft) S-SO 155 ° 0 min 0,000 mm 0,0 UV-I 0 W/m² 7,5 °C 10,1 °C 0,0 km/h (0 Bft)
10.07.2019 23:11 10,1 °C 84 % 1016,4 hPa 0,0 mm 0,0 km/h (0 Bft) S-SO 155 ° 0 min 0,000 mm 0,0 UV-I 0 W/m² 7,5 °C 10,1 °C 0,0 km/h (0 Bft)
10.07.2019 23:12 10,1 °C 84 % 1016,4 hPa 0,0 mm 0,0 km/h (0 Bft) S-SO 155 ° 0 min 0,000 mm 0,0 UV-I 0 W/m² 7,5 °C 10,1 °C 0,0 km/h (0 Bft)
10.07.2019 23:13 10,0 °C 84 % 1016,4 hPa 0,0 mm 0,0 km/h (0 Bft) S-SO 155 ° 0 min 0,000 mm 0,0 UV-I 0 W/m² 7,4 °C 10,0 °C 0,0 km/h (0 Bft)
10.07.2019 23:14 10,0 °C 84 % 1016,4 hPa 0,0 mm 0,0 km/h (0 Bft) S-SO 155 ° 0 min 0,000 mm 0,0 UV-I 0 W/m² 7,4 °C 10,0 °C 0,0 km/h (0 Bft)
10.07.2019 23:15 10,0 °C 84 % 1016,4 hPa 0,0 mm 0,0 km/h (0 Bft) S-SO 155 ° 0 min 0,000 mm 0,0 UV-I 0 W/m² 7,4 °C 10,0 °C 0,0 km/h (0 Bft)
10.07.2019 23:16 9,9 °C 84 % 1016,4 hPa 0,0 mm 0,0 km/h (0 Bft) S-SO 155 ° 0 min 0,000 mm 0,0 UV-I 0 W/m² 7,3 °C 9,9 °C 0,0 km/h (0 Bft)
10.07.2019 23:17 9,9 °C 84 % 1016,4 hPa 0,0 mm 0,0 km/h (0 Bft) S-SO 155 ° 0 min 0,000 mm 0,0 UV-I 0 W/m² 7,3 °C 9,9 °C 0,0 km/h (0 Bft)
10.07.2019 23:18 9,9 °C 84 % 1016,4 hPa 0,0 mm 0,0 km/h (0 Bft) S-SO 155 ° 0 min 0,000 mm 0,0 UV-I 0 W/m² 7,3 °C 9,9 °C 0,0 km/h (0 Bft)
10.07.2019 23:19 9,9 °C 84 % 1016,4 hPa 0,0 mm 0,0 km/h (0 Bft) S-SO 155 ° 0 min 0,000 mm 0,0 UV-I 0 W/m² 7,3 °C 9,9 °C 0,0 km/h (0 Bft)
10.07.2019 23:20 9,9 °C 84 % 1016,4 hPa 0,0 mm 0,0 km/h (0 Bft) S-SO 155 ° 0 min 0,000 mm 0,0 UV-I 0 W/m² 7,3 °C 9,9 °C 0,0 km/h (0 Bft)
10.07.2019 23:21 9,9 °C 84 % 1016,4 hPa 0,0 mm 0,0 km/h (0 Bft) S-SO 155 ° 0 min 0,000 mm 0,0 UV-I 0 W/m² 7,3 °C 9,9 °C 0,0 km/h (0 Bft)
10.07.2019 23:22 9,9 °C 84 % 1016,4 hPa 0,0 mm 0,0 km/h (0 Bft) S-SO 155 ° 0 min 0,000 mm 0,0 UV-I 0 W/m² 7,3 °C 9,9 °C 0,0 km/h (0 Bft)
10.07.2019 23:23 9,9 °C 84 % 1016,4 hPa 0,0 mm 0,0 km/h (0 Bft) S-SO 155 ° 0 min 0,000 mm 0,0 UV-I 0 W/m² 7,3 °C 9,9 °C 0,0 km/h (0 Bft)
10.07.2019 23:24 9,9 °C 84 % 1016,4 hPa 0,0 mm 0,0 km/h (0 Bft) S-SO 155 ° 0 min 0,000 mm 0,0 UV-I 0 W/m² 7,3 °C 9,9 °C 0,0 km/h (0 Bft)
10.07.2019 23:25 9,9 °C 84 % 1016,4 hPa 0,0 mm 0,0 km/h (0 Bft) S-SO 155 ° 0 min 0,000 mm 0,0 UV-I 0 W/m² 7,3 °C 9,9 °C 0,0 km/h (0 Bft)
10.07.2019 23:26 9,9 °C 84 % 1016,4 hPa 0,0 mm 0,0 km/h (0 Bft) S-SO 155 ° 0 min 0,000 mm 0,0 UV-I 0 W/m² 7,3 °C 9,9 °C 0,0 km/h (0 Bft)
10.07.2019 23:27 9,9 °C 84 % 1016,4 hPa 0,0 mm 0,0 km/h (0 Bft) S-SO 155 ° 0 min 0,000 mm 0,0 UV-I 0 W/m² 7,3 °C 9,9 °C 0,0 km/h (0 Bft)
10.07.2019 23:28 9,9 °C 84 % 1016,4 hPa 0,0 mm 0,0 km/h (0 Bft) S-SO 155 ° 0 min 0,000 mm 0,0 UV-I 0 W/m² 7,3 °C 9,9 °C 0,0 km/h (0 Bft)
10.07.2019 23:29 9,9 °C 84 % 1016,4 hPa 0,0 mm 0,0 km/h (0 Bft) S-SO 155 ° 0 min 0,000 mm 0,0 UV-I 0 W/m² 7,3 °C 9,9 °C 0,0 km/h (0 Bft)
10.07.2019 23:30 9,9 °C 84 % 1016,4 hPa 0,0 mm 0,0 km/h (0 Bft) S-SO 155 ° 0 min 0,000 mm 0,0 UV-I 0 W/m² 7,3 °C 9,9 °C 0,0 km/h (0 Bft)
10.07.2019 23:31 9,9 °C 84 % 1016,4 hPa 0,0 mm 0,0 km/h (0 Bft) S-SO 155 ° 0 min 0,000 mm 0,0 UV-I 0 W/m² 7,3 °C 9,9 °C 0,0 km/h (0 Bft)
10.07.2019 23:32 9,9 °C 84 % 1016,4 hPa 0,0 mm 0,0 km/h (0 Bft) S-SO 155 ° 0 min 0,000 mm 0,0 UV-I 0 W/m² 7,3 °C 9,9 °C 0,0 km/h (0 Bft)
10.07.2019 23:33 9,9 °C 84 % 1016,4 hPa 0,0 mm 0,0 km/h (0 Bft) S-SO 155 ° 0 min 0,000 mm 0,0 UV-I 0 W/m² 7,3 °C 9,9 °C 0,0 km/h (0 Bft)
10.07.2019 23:34 9,8 °C 84 % 1016,4 hPa 0,0 mm 0,0 km/h (0 Bft) S-SO 155 ° 0 min 0,000 mm 0,0 UV-I 0 W/m² 7,2 °C 9,8 °C 0,0 km/h (0 Bft)
10.07.2019 23:35 9,8 °C 84 % 1016,4 hPa 0,0 mm 0,0 km/h (0 Bft) S-SO 155 ° 0 min 0,000 mm 0,0 UV-I 0 W/m² 7,2 °C 9,8 °C 0,0 km/h (0 Bft)
10.07.2019 23:36 9,8 °C 83 % 1016,3 hPa 0,0 mm 0,0 km/h (0 Bft) S-SO 155 ° 0 min 0,000 mm 0,0 UV-I 0 W/m² 7,1 °C 9,8 °C 0,0 km/h (0 Bft)
10.07.2019 23:37 9,8 °C 84 % 1016,4 hPa 0,0 mm 0,0 km/h (0 Bft) S-SO 155 ° 0 min 0,000 mm 0,0 UV-I 0 W/m² 7,2 °C 9,8 °C 0,0 km/h (0 Bft)
10.07.2019 23:38 9,8 °C 84 % 1016,4 hPa 0,0 mm 0,0 km/h (0 Bft) S-SO 155 ° 0 min 0,000 mm 0,0 UV-I 0 W/m² 7,2 °C 9,8 °C 0,0 km/h (0 Bft)
10.07.2019 23:39 9,8 °C 83 % 1016,4 hPa 0,0 mm 0,0 km/h (0 Bft) S-SO 155 ° 0 min 0,000 mm 0,0 UV-I 0 W/m² 7,1 °C 9,8 °C 0,0 km/h (0 Bft)
10.07.2019 23:40 9,8 °C 83 % 1016,4 hPa 0,0 mm 0,0 km/h (0 Bft) S-SO 155 ° 0 min 0,000 mm 0,0 UV-I 0 W/m² 7,1 °C 9,8 °C 0,0 km/h (0 Bft)
10.07.2019 23:41 9,8 °C 84 % 1016,4 hPa 0,0 mm 0,0 km/h (0 Bft) S-SO 155 ° 0 min 0,000 mm 0,0 UV-I 0 W/m² 7,2 °C 9,8 °C 0,0 km/h (0 Bft)
10.07.2019 23:42 9,8 °C 83 % 1016,4 hPa 0,0 mm 0,0 km/h (0 Bft) S-SO 155 ° 0 min 0,000 mm 0,0 UV-I 0 W/m² 7,1 °C 9,8 °C 0,0 km/h (0 Bft)
10.07.2019 23:43 9,8 °C 83 % 1016,4 hPa 0,0 mm 0,0 km/h (0 Bft) S-SO 155 ° 0 min 0,000 mm 0,0 UV-I 0 W/m² 7,1 °C 9,8 °C 0,0 km/h (0 Bft)
10.07.2019 23:44 9,8 °C 83 % 1016,4 hPa 0,0 mm 0,0 km/h (0 Bft) S-SO 155 ° 0 min 0,000 mm 0,0 UV-I 0 W/m² 7,1 °C 9,8 °C 0,0 km/h (0 Bft)
10.07.2019 23:45 9,8 °C 83 % 1016,4 hPa 0,0 mm 0,0 km/h (0 Bft) S-SO 155 ° 0 min 0,000 mm 0,0 UV-I 0 W/m² 7,1 °C 9,8 °C 0,0 km/h (0 Bft)
10.07.2019 23:46 9,8 °C 83 % 1016,4 hPa 0,0 mm 0,0 km/h (0 Bft) S-SO 155 ° 0 min 0,000 mm 0,0 UV-I 0 W/m² 7,1 °C 9,8 °C 0,0 km/h (0 Bft)
10.07.2019 23:47 9,7 °C 84 % 1016,4 hPa 0,0 mm 0,0 km/h (0 Bft) S-SO 155 ° 0 min 0,000 mm 0,0 UV-I 0 W/m² 7,1 °C 9,7 °C 0,0 km/h (0 Bft)
10.07.2019 23:48 9,7 °C 84 % 1016,4 hPa 0,0 mm 0,0 km/h (0 Bft) S-SO 156 ° 0 min 0,000 mm 0,0 UV-I 0 W/m² 7,1 °C 9,7 °C 0,0 km/h (0 Bft)
10.07.2019 23:49 9,7 °C 84 % 1016,4 hPa 0,0 mm 0,0 km/h (0 Bft) S-SO 155 ° 0 min 0,000 mm 0,0 UV-I 0 W/m² 7,1 °C 9,7 °C 0,0 km/h (0 Bft)
10.07.2019 23:50 9,7 °C 84 % 1016,4 hPa 0,0 mm 0,0 km/h (0 Bft) S-SO 155 ° 0 min 0,000 mm 0,0 UV-I 0 W/m² 7,1 °C 9,7 °C 0,0 km/h (0 Bft)
10.07.2019 23:51 9,7 °C 84 % 1016,4 hPa 0,0 mm 0,0 km/h (0 Bft) S-SO 155 ° 0 min 0,000 mm 0,0 UV-I 0 W/m² 7,1 °C 9,7 °C 0,0 km/h (0 Bft)
10.07.2019 23:52 9,7 °C 84 % 1016,4 hPa 0,0 mm 0,0 km/h (0 Bft) S-SO 155 ° 0 min 0,000 mm 0,0 UV-I 0 W/m² 7,1 °C 9,7 °C 0,0 km/h (0 Bft)
10.07.2019 23:53 9,7 °C 84 % 1016,5 hPa 0,0 mm 0,0 km/h (0 Bft) S-SO 155 ° 0 min 0,000 mm 0,0 UV-I 0 W/m² 7,1 °C 9,7 °C 0,0 km/h (0 Bft)
10.07.2019 23:54 9,7 °C 84 % 1016,4 hPa 0,0 mm 0,0 km/h (0 Bft) S-SO 155 ° 0 min 0,000 mm 0,0 UV-I 0 W/m² 7,1 °C 9,7 °C 0,0 km/h (0 Bft)
10.07.2019 23:55 9,7 °C 84 % 1016,4 hPa 0,0 mm 0,0 km/h (0 Bft) S-SO 155 ° 0 min 0,000 mm 0,0 UV-I 0 W/m² 7,1 °C 9,7 °C 0,0 km/h (0 Bft)
10.07.2019 23:56 9,7 °C 83 % 1016,4 hPa 0,0 mm 0,0 km/h (0 Bft) S-SO 155 ° 0 min 0,000 mm 0,0 UV-I 0 W/m² 7,0 °C 9,7 °C 0,0 km/h (0 Bft)
10.07.2019 23:57 9,8 °C 83 % 1016,4 hPa 0,0 mm 0,0 km/h (0 Bft) S-SO 155 ° 0 min 0,000 mm 0,0 UV-I 0 W/m² 7,1 °C 9,8 °C 0,0 km/h (0 Bft)
10.07.2019 23:58 9,8 °C 83 % 1016,4 hPa 0,0 mm 0,0 km/h (0 Bft) S-SO 155 ° 0 min 0,000 mm 0,0 UV-I 0 W/m² 7,1 °C 9,8 °C 0,0 km/h (0 Bft)
10.07.2019 23:59 9,7 °C 83 % 1016,4 hPa 0,0 mm 0,0 km/h (0 Bft) S-SO 155 ° 0 min 0,000 mm 0,0 UV-I 0 W/m² 7,0 °C 9,7 °C 0,0 km/h (0 Bft)
_ Min-Zeit 06:14 16:52 18:12 - 23:59 - - - - - - 06:12 06:14 23:59
Minimum _ 6,9 °C 46 % 1015,5 hPa - 0,0 km/h (0 Bft) - - - - - - 5,2 °C 6,9 °C 0,0 km/h (0 Bft)
_ Max-Zeit 17:12 06:43 12:08 23:59 16:04 - - 16:14 14:01 13:25 12:43 12:55 17:12 16:04
Maximum _ 18,5 °C 91 % 1017,2 hPa 0,0 mm 13,9 km/h
NO (3 Bft)
- - 1 min 0,534 mm 7,2 UV-I 1025 W/m² 10,6 °C 18,5 °C 20,9 km/h
N-NO (4 Bft)
Durchschnitt _ 13,1 °C 71 % 1016,4 hPa #0,0 mm 2,1 km/h (1 Bft) NO - #5:16 h #3,785 mm 3,6 UV-I 273 W/m² 7,6 °C 13,1 °C 3,8 km/h (1 Bft)